<?xml version="1.0" encoding="UTF-8" standalone="no" ?>
<gpx xmlns="http://www.topografix.com/GPX/1/1" xmlns:xsi="http://www.w3.org/2001/XMLSchema-instance" xsi:schemaLocation="http://www.topografix.com/GPX/1/1 http://www.topografix.com/GPX/1/1/gpx.xsd" version="1.1" creator="VisuGPX - https://www.visugpx.com">
  <metadata>
    <name>ACTIVE LOG 006</name>
  </metadata>
  <trk>
    <name><![CDATA[ACTIVE LOG 006]]></name>
    <trkseg>
      <trkpt lat="43.9965" lon="7.15019">
        <ele>656.2370605</ele>
        <time>2012-05-12T06:35:23Z</time>
      </trkpt>
      <trkpt lat="43.9967" lon="7.15031">
        <ele>659.6018066</ele>
        <time>2012-05-12T06:35:47Z</time>
      </trkpt>
      <trkpt lat="43.9967" lon="7.15031">
        <ele>663.9274902</ele>
        <time>2012-05-12T06:35:50Z</time>
      </trkpt>
      <trkpt lat="43.99671" lon="7.15032">
        <ele>667.2922363</ele>
        <time>2012-05-12T06:35:53Z</time>
      </trkpt>
      <trkpt lat="43.99671" lon="7.15032">
        <ele>670.6569824</ele>
        <time>2012-05-12T06:35:56Z</time>
      </trkpt>
      <trkpt lat="43.99671" lon="7.15032">
        <ele>673.5410156</ele>
        <time>2012-05-12T06:35:59Z</time>
      </trkpt>
      <trkpt lat="43.99671" lon="7.15032">
        <ele>676.4248047</ele>
        <time>2012-05-12T06:36:02Z</time>
      </trkpt>
      <trkpt lat="43.99671" lon="7.15032">
        <ele>680.2700195</ele>
        <time>2012-05-12T06:36:06Z</time>
      </trkpt>
      <trkpt lat="43.99671" lon="7.15032">
        <ele>683.6345215</ele>
        <time>2012-05-12T06:36:11Z</time>
      </trkpt>
      <trkpt lat="43.99671" lon="7.15032">
        <ele>686.5187988</ele>
        <time>2012-05-12T06:36:16Z</time>
      </trkpt>
      <trkpt lat="43.99671" lon="7.15032">
        <ele>690.3640137</ele>
        <time>2012-05-12T06:36:22Z</time>
      </trkpt>
      <trkpt lat="43.99671" lon="7.15032">
        <ele>690.3640137</ele>
        <time>2012-05-12T06:36:23Z</time>
      </trkpt>
      <trkpt lat="43.99672" lon="7.15033">
        <ele>693.2478027</ele>
        <time>2012-05-12T06:36:33Z</time>
      </trkpt>
      <trkpt lat="43.99672" lon="7.15033">
        <ele>696.6125488</ele>
        <time>2012-05-12T06:36:44Z</time>
      </trkpt>
      <trkpt lat="43.99672" lon="7.15033">
        <ele>699.4963379</ele>
        <time>2012-05-12T06:37:05Z</time>
      </trkpt>
      <trkpt lat="43.99672" lon="7.15035">
        <ele>702.3803711</ele>
        <time>2012-05-12T06:38:03Z</time>
      </trkpt>
      <trkpt lat="43.99672" lon="7.15035">
        <ele>702.3803711</ele>
        <time>2012-05-12T06:38:13Z</time>
      </trkpt>
      <trkpt lat="43.99672" lon="7.15035">
        <ele>700.9384766</ele>
        <time>2012-05-12T06:38:15Z</time>
      </trkpt>
      <trkpt lat="43.99673" lon="7.15035">
        <ele>699.4963379</ele>
        <time>2012-05-12T06:38:33Z</time>
      </trkpt>
      <trkpt lat="43.99673" lon="7.15035">
        <ele>701.4191895</ele>
        <time>2012-05-12T06:38:36Z</time>
      </trkpt>
      <trkpt lat="43.99671" lon="7.15032">
        <ele>700.9384766</ele>
        <time>2012-05-12T06:40:13Z</time>
      </trkpt>
      <trkpt lat="43.99671" lon="7.15032">
        <ele>701.4191895</ele>
        <time>2012-05-12T06:40:25Z</time>
      </trkpt>
      <trkpt lat="43.99669" lon="7.15026">
        <ele>700.9384766</ele>
        <time>2012-05-12T06:40:39Z</time>
      </trkpt>
      <trkpt lat="43.99669" lon="7.15026">
        <ele>700.9384766</ele>
        <time>2012-05-12T06:40:42Z</time>
      </trkpt>
      <trkpt lat="43.99659" lon="7.14989">
        <ele>701.8999023</ele>
        <time>2012-05-12T06:40:57Z</time>
      </trkpt>
      <trkpt lat="43.99654" lon="7.14968">
        <ele>702.3803711</ele>
        <time>2012-05-12T06:41:04Z</time>
      </trkpt>
      <trkpt lat="43.99651" lon="7.14956">
        <ele>702.3803711</ele>
        <time>2012-05-12T06:41:08Z</time>
      </trkpt>
      <trkpt lat="43.99645" lon="7.14963">
        <ele>702.861084</ele>
        <time>2012-05-12T06:41:13Z</time>
      </trkpt>
      <trkpt lat="43.99645" lon="7.15017">
        <ele>702.861084</ele>
        <time>2012-05-12T06:41:29Z</time>
      </trkpt>
      <trkpt lat="43.99667" lon="7.15071">
        <ele>703.3417969</ele>
        <time>2012-05-12T06:41:45Z</time>
      </trkpt>
      <trkpt lat="43.99667" lon="7.15093">
        <ele>703.3417969</ele>
        <time>2012-05-12T06:41:51Z</time>
      </trkpt>
      <trkpt lat="43.9966" lon="7.15121">
        <ele>704.3032227</ele>
        <time>2012-05-12T06:42:05Z</time>
      </trkpt>
      <trkpt lat="43.9964" lon="7.15171">
        <ele>706.2255859</ele>
        <time>2012-05-12T06:42:22Z</time>
      </trkpt>
      <trkpt lat="43.99626" lon="7.15235">
        <ele>708.1484375</ele>
        <time>2012-05-12T06:42:40Z</time>
      </trkpt>
      <trkpt lat="43.99615" lon="7.15274">
        <ele>709.590332</ele>
        <time>2012-05-12T06:42:55Z</time>
      </trkpt>
      <trkpt lat="43.99589" lon="7.15337">
        <ele>711.5129395</ele>
        <time>2012-05-12T06:43:17Z</time>
      </trkpt>
      <trkpt lat="43.99575" lon="7.15394">
        <ele>714.8774414</ele>
        <time>2012-05-12T06:43:35Z</time>
      </trkpt>
      <trkpt lat="43.99587" lon="7.15457">
        <ele>714.3967285</ele>
        <time>2012-05-12T06:43:51Z</time>
      </trkpt>
      <trkpt lat="43.99609" lon="7.15531">
        <ele>715.3581543</ele>
        <time>2012-05-12T06:44:10Z</time>
      </trkpt>
      <trkpt lat="43.99633" lon="7.15604">
        <ele>715.8388672</ele>
        <time>2012-05-12T06:44:29Z</time>
      </trkpt>
      <trkpt lat="43.99636" lon="7.15654">
        <ele>715.8388672</ele>
        <time>2012-05-12T06:44:42Z</time>
      </trkpt>
      <trkpt lat="43.99602" lon="7.15769">
        <ele>716.800293</ele>
        <time>2012-05-12T06:45:08Z</time>
      </trkpt>
      <trkpt lat="43.99619" lon="7.15838">
        <ele>716.800293</ele>
        <time>2012-05-12T06:45:24Z</time>
      </trkpt>
      <trkpt lat="43.99628" lon="7.15874">
        <ele>716.800293</ele>
        <time>2012-05-12T06:45:32Z</time>
      </trkpt>
      <trkpt lat="43.99647" lon="7.15946">
        <ele>716.800293</ele>
        <time>2012-05-12T06:45:48Z</time>
      </trkpt>
      <trkpt lat="43.99649" lon="7.15984">
        <ele>717.2810059</ele>
        <time>2012-05-12T06:45:58Z</time>
      </trkpt>
      <trkpt lat="43.99595" lon="7.15974">
        <ele>717.2810059</ele>
        <time>2012-05-12T06:46:13Z</time>
      </trkpt>
      <trkpt lat="43.99544" lon="7.15961">
        <ele>717.7614746</ele>
        <time>2012-05-12T06:46:27Z</time>
      </trkpt>
      <trkpt lat="43.99503" lon="7.15982">
        <ele>717.2810059</ele>
        <time>2012-05-12T06:46:38Z</time>
      </trkpt>
      <trkpt lat="43.99501" lon="7.16007">
        <ele>717.7614746</ele>
        <time>2012-05-12T06:46:43Z</time>
      </trkpt>
      <trkpt lat="43.9954" lon="7.16072">
        <ele>718.7229004</ele>
        <time>2012-05-12T06:47:00Z</time>
      </trkpt>
      <trkpt lat="43.9957" lon="7.16151">
        <ele>718.7229004</ele>
        <time>2012-05-12T06:47:17Z</time>
      </trkpt>
      <trkpt lat="43.99568" lon="7.16171">
        <ele>718.7229004</ele>
        <time>2012-05-12T06:47:21Z</time>
      </trkpt>
      <trkpt lat="43.9961" lon="7.16252">
        <ele>719.2036133</ele>
        <time>2012-05-12T06:47:41Z</time>
      </trkpt>
      <trkpt lat="43.99616" lon="7.16262">
        <ele>719.6843262</ele>
        <time>2012-05-12T06:47:43Z</time>
      </trkpt>
      <trkpt lat="43.99614" lon="7.16283">
        <ele>719.6843262</ele>
        <time>2012-05-12T06:47:47Z</time>
      </trkpt>
      <trkpt lat="43.99599" lon="7.16363">
        <ele>720.1647949</ele>
        <time>2012-05-12T06:48:03Z</time>
      </trkpt>
      <trkpt lat="43.99607" lon="7.16417">
        <ele>720.6455078</ele>
        <time>2012-05-12T06:48:15Z</time>
      </trkpt>
      <trkpt lat="43.99601" lon="7.16431">
        <ele>720.6455078</ele>
        <time>2012-05-12T06:48:18Z</time>
      </trkpt>
      <trkpt lat="43.99606" lon="7.16463">
        <ele>721.1262207</ele>
        <time>2012-05-12T06:48:25Z</time>
      </trkpt>
      <trkpt lat="43.99619" lon="7.16476">
        <ele>720.6455078</ele>
        <time>2012-05-12T06:48:29Z</time>
      </trkpt>
      <trkpt lat="43.99633" lon="7.16483">
        <ele>721.6066895</ele>
        <time>2012-05-12T06:48:33Z</time>
      </trkpt>
      <trkpt lat="43.99645" lon="7.16498">
        <ele>720.6455078</ele>
        <time>2012-05-12T06:48:37Z</time>
      </trkpt>
      <trkpt lat="43.99713" lon="7.16533">
        <ele>721.6066895</ele>
        <time>2012-05-12T06:48:55Z</time>
      </trkpt>
      <trkpt lat="43.99724" lon="7.16542">
        <ele>721.6066895</ele>
        <time>2012-05-12T06:48:58Z</time>
      </trkpt>
      <trkpt lat="43.99767" lon="7.16575">
        <ele>721.6066895</ele>
        <time>2012-05-12T06:49:11Z</time>
      </trkpt>
      <trkpt lat="43.99799" lon="7.16568">
        <ele>722.0874023</ele>
        <time>2012-05-12T06:49:19Z</time>
      </trkpt>
      <trkpt lat="43.99824" lon="7.16604">
        <ele>721.6066895</ele>
        <time>2012-05-12T06:49:30Z</time>
      </trkpt>
      <trkpt lat="43.99818" lon="7.16613">
        <ele>721.6066895</ele>
        <time>2012-05-12T06:49:33Z</time>
      </trkpt>
      <trkpt lat="43.99764" lon="7.16657">
        <ele>722.0874023</ele>
        <time>2012-05-12T06:49:48Z</time>
      </trkpt>
      <trkpt lat="43.99726" lon="7.16673">
        <ele>722.5681152</ele>
        <time>2012-05-12T06:49:57Z</time>
      </trkpt>
      <trkpt lat="43.99711" lon="7.16681">
        <ele>722.5681152</ele>
        <time>2012-05-12T06:50:01Z</time>
      </trkpt>
      <trkpt lat="43.99696" lon="7.16693">
        <ele>722.5681152</ele>
        <time>2012-05-12T06:50:05Z</time>
      </trkpt>
      <trkpt lat="43.99688" lon="7.16721">
        <ele>723.0488281</ele>
        <time>2012-05-12T06:50:11Z</time>
      </trkpt>
      <trkpt lat="43.9969" lon="7.16744">
        <ele>723.0488281</ele>
        <time>2012-05-12T06:50:15Z</time>
      </trkpt>
      <trkpt lat="43.99695" lon="7.16778">
        <ele>723.529541</ele>
        <time>2012-05-12T06:50:21Z</time>
      </trkpt>
      <trkpt lat="43.99696" lon="7.16828">
        <ele>722.5681152</ele>
        <time>2012-05-12T06:50:29Z</time>
      </trkpt>
      <trkpt lat="43.99702" lon="7.16871">
        <ele>722.5681152</ele>
        <time>2012-05-12T06:50:36Z</time>
      </trkpt>
      <trkpt lat="43.99713" lon="7.16905">
        <ele>722.0874023</ele>
        <time>2012-05-12T06:50:42Z</time>
      </trkpt>
      <trkpt lat="43.99721" lon="7.16934">
        <ele>722.5681152</ele>
        <time>2012-05-12T06:50:47Z</time>
      </trkpt>
      <trkpt lat="43.99753" lon="7.16945">
        <ele>723.0488281</ele>
        <time>2012-05-12T06:50:56Z</time>
      </trkpt>
      <trkpt lat="43.99774" lon="7.16936">
        <ele>722.5681152</ele>
        <time>2012-05-12T06:51:01Z</time>
      </trkpt>
      <trkpt lat="43.99791" lon="7.16935">
        <ele>723.0488281</ele>
        <time>2012-05-12T06:51:05Z</time>
      </trkpt>
      <trkpt lat="43.99833" lon="7.16942">
        <ele>723.529541</ele>
        <time>2012-05-12T06:51:15Z</time>
      </trkpt>
      <trkpt lat="43.99843" lon="7.16943">
        <ele>723.0488281</ele>
        <time>2012-05-12T06:51:17Z</time>
      </trkpt>
      <trkpt lat="43.99843" lon="7.16986">
        <ele>724.0100098</ele>
        <time>2012-05-12T06:51:26Z</time>
      </trkpt>
      <trkpt lat="43.99842" lon="7.16988">
        <ele>724.0100098</ele>
        <time>2012-05-12T06:51:27Z</time>
      </trkpt>
      <trkpt lat="43.99818" lon="7.17006">
        <ele>723.0488281</ele>
        <time>2012-05-12T06:51:33Z</time>
      </trkpt>
      <trkpt lat="43.99793" lon="7.17048">
        <ele>723.0488281</ele>
        <time>2012-05-12T06:51:42Z</time>
      </trkpt>
      <trkpt lat="43.99788" lon="7.17091">
        <ele>723.529541</ele>
        <time>2012-05-12T06:51:49Z</time>
      </trkpt>
      <trkpt lat="43.99771" lon="7.17166">
        <ele>724.4907227</ele>
        <time>2012-05-12T06:52:02Z</time>
      </trkpt>
      <trkpt lat="43.99792" lon="7.17215">
        <ele>724.0100098</ele>
        <time>2012-05-12T06:52:12Z</time>
      </trkpt>
      <trkpt lat="43.99821" lon="7.17236">
        <ele>724.0100098</ele>
        <time>2012-05-12T06:52:19Z</time>
      </trkpt>
      <trkpt lat="43.99838" lon="7.17234">
        <ele>724.4907227</ele>
        <time>2012-05-12T06:52:23Z</time>
      </trkpt>
      <trkpt lat="43.99847" lon="7.17233">
        <ele>724.4907227</ele>
        <time>2012-05-12T06:52:25Z</time>
      </trkpt>
      <trkpt lat="43.99874" lon="7.17272">
        <ele>724.0100098</ele>
        <time>2012-05-12T06:52:35Z</time>
      </trkpt>
      <trkpt lat="43.99862" lon="7.17283">
        <ele>724.0100098</ele>
        <time>2012-05-12T06:52:38Z</time>
      </trkpt>
      <trkpt lat="43.99853" lon="7.17285">
        <ele>724.4907227</ele>
        <time>2012-05-12T06:52:40Z</time>
      </trkpt>
      <trkpt lat="43.99854" lon="7.17329">
        <ele>724.9714355</ele>
        <time>2012-05-12T06:52:49Z</time>
      </trkpt>
      <trkpt lat="43.99881" lon="7.17352">
        <ele>724.9714355</ele>
        <time>2012-05-12T06:52:56Z</time>
      </trkpt>
      <trkpt lat="43.99891" lon="7.1739">
        <ele>724.9714355</ele>
        <time>2012-05-12T06:53:04Z</time>
      </trkpt>
      <trkpt lat="43.99886" lon="7.17399">
        <ele>725.4519043</ele>
        <time>2012-05-12T06:53:06Z</time>
      </trkpt>
      <trkpt lat="43.99896" lon="7.17442">
        <ele>725.9326172</ele>
        <time>2012-05-12T06:53:14Z</time>
      </trkpt>
      <trkpt lat="43.99901" lon="7.17451">
        <ele>725.4519043</ele>
        <time>2012-05-12T06:53:16Z</time>
      </trkpt>
      <trkpt lat="43.99944" lon="7.17467">
        <ele>725.4519043</ele>
        <time>2012-05-12T06:53:26Z</time>
      </trkpt>
      <trkpt lat="43.99964" lon="7.17479">
        <ele>725.4519043</ele>
        <time>2012-05-12T06:53:31Z</time>
      </trkpt>
      <trkpt lat="43.99961" lon="7.17515">
        <ele>725.9326172</ele>
        <time>2012-05-12T06:53:40Z</time>
      </trkpt>
      <trkpt lat="43.99932" lon="7.17534">
        <ele>725.9326172</ele>
        <time>2012-05-12T06:53:48Z</time>
      </trkpt>
      <trkpt lat="43.99926" lon="7.17579">
        <ele>725.9326172</ele>
        <time>2012-05-12T06:53:55Z</time>
      </trkpt>
      <trkpt lat="43.99931" lon="7.17598">
        <ele>725.4519043</ele>
        <time>2012-05-12T06:53:58Z</time>
      </trkpt>
      <trkpt lat="43.99937" lon="7.17619">
        <ele>725.4519043</ele>
        <time>2012-05-12T06:54:02Z</time>
      </trkpt>
      <trkpt lat="43.99941" lon="7.17644">
        <ele>726.4133301</ele>
        <time>2012-05-12T06:54:06Z</time>
      </trkpt>
      <trkpt lat="43.99949" lon="7.17662">
        <ele>726.4133301</ele>
        <time>2012-05-12T06:54:10Z</time>
      </trkpt>
      <trkpt lat="43.99971" lon="7.17686">
        <ele>726.4133301</ele>
        <time>2012-05-12T06:54:17Z</time>
      </trkpt>
      <trkpt lat="43.99987" lon="7.17704">
        <ele>726.4133301</ele>
        <time>2012-05-12T06:54:22Z</time>
      </trkpt>
      <trkpt lat="43.99999" lon="7.17721">
        <ele>726.4133301</ele>
        <time>2012-05-12T06:54:26Z</time>
      </trkpt>
      <trkpt lat="44.00009" lon="7.17748">
        <ele>726.4133301</ele>
        <time>2012-05-12T06:54:31Z</time>
      </trkpt>
      <trkpt lat="44.00017" lon="7.17769">
        <ele>725.9326172</ele>
        <time>2012-05-12T06:54:35Z</time>
      </trkpt>
      <trkpt lat="44.00035" lon="7.17804">
        <ele>726.894043</ele>
        <time>2012-05-12T06:54:43Z</time>
      </trkpt>
      <trkpt lat="44.00015" lon="7.17841">
        <ele>726.4133301</ele>
        <time>2012-05-12T06:54:51Z</time>
      </trkpt>
      <trkpt lat="43.99988" lon="7.17827">
        <ele>726.894043</ele>
        <time>2012-05-12T06:54:58Z</time>
      </trkpt>
      <trkpt lat="43.9997" lon="7.17808">
        <ele>726.894043</ele>
        <time>2012-05-12T06:55:03Z</time>
      </trkpt>
      <trkpt lat="43.99913" lon="7.17782">
        <ele>726.894043</ele>
        <time>2012-05-12T06:55:16Z</time>
      </trkpt>
      <trkpt lat="43.99872" lon="7.1779">
        <ele>729.777832</ele>
        <time>2012-05-12T06:55:29Z</time>
      </trkpt>
      <trkpt lat="43.99841" lon="7.17825">
        <ele>733.1425781</ele>
        <time>2012-05-12T06:55:43Z</time>
      </trkpt>
      <trkpt lat="43.9984" lon="7.17828">
        <ele>733.1425781</ele>
        <time>2012-05-12T06:55:44Z</time>
      </trkpt>
      <trkpt lat="43.99814" lon="7.17831">
        <ele>734.1040039</ele>
        <time>2012-05-12T06:55:57Z</time>
      </trkpt>
      <trkpt lat="43.99808" lon="7.17794">
        <ele>736.987793</ele>
        <time>2012-05-12T06:56:12Z</time>
      </trkpt>
      <trkpt lat="43.9982" lon="7.17765">
        <ele>740.8330078</ele>
        <time>2012-05-12T06:56:27Z</time>
      </trkpt>
      <trkpt lat="43.9982" lon="7.17763">
        <ele>740.8330078</ele>
        <time>2012-05-12T06:56:28Z</time>
      </trkpt>
      <trkpt lat="43.99835" lon="7.17734">
        <ele>743.717041</ele>
        <time>2012-05-12T06:56:43Z</time>
      </trkpt>
      <trkpt lat="43.9984" lon="7.17696">
        <ele>747.5622559</ele>
        <time>2012-05-12T06:57:01Z</time>
      </trkpt>
      <trkpt lat="43.99828" lon="7.17663">
        <ele>749.4851074</ele>
        <time>2012-05-12T06:57:16Z</time>
      </trkpt>
      <trkpt lat="43.99809" lon="7.17651">
        <ele>751.4077148</ele>
        <time>2012-05-12T06:57:29Z</time>
      </trkpt>
      <trkpt lat="43.99804" lon="7.17642">
        <ele>752.3688965</ele>
        <time>2012-05-12T06:57:34Z</time>
      </trkpt>
      <trkpt lat="43.99803" lon="7.17636">
        <ele>752.3688965</ele>
        <time>2012-05-12T06:57:38Z</time>
      </trkpt>
      <trkpt lat="43.99799" lon="7.1762">
        <ele>754.7722168</ele>
        <time>2012-05-12T06:57:47Z</time>
      </trkpt>
      <trkpt lat="43.99769" lon="7.17583">
        <ele>757.65625</ele>
        <time>2012-05-12T06:58:12Z</time>
      </trkpt>
      <trkpt lat="43.99769" lon="7.17583">
        <ele>758.6174316</ele>
        <time>2012-05-12T06:58:16Z</time>
      </trkpt>
      <trkpt lat="43.99743" lon="7.17585">
        <ele>760.5400391</ele>
        <time>2012-05-12T06:58:27Z</time>
      </trkpt>
      <trkpt lat="43.99738" lon="7.17585">
        <ele>761.020752</ele>
        <time>2012-05-12T06:58:31Z</time>
      </trkpt>
      <trkpt lat="43.99717" lon="7.17583">
        <ele>764.385498</ele>
        <time>2012-05-12T06:58:48Z</time>
      </trkpt>
      <trkpt lat="43.99708" lon="7.17576">
        <ele>765.3469238</ele>
        <time>2012-05-12T06:58:57Z</time>
      </trkpt>
      <trkpt lat="43.99707" lon="7.17574">
        <ele>765.8276367</ele>
        <time>2012-05-12T06:59:00Z</time>
      </trkpt>
      <trkpt lat="43.99703" lon="7.17567">
        <ele>766.7888184</ele>
        <time>2012-05-12T06:59:05Z</time>
      </trkpt>
      <trkpt lat="43.997" lon="7.1756">
        <ele>767.75</ele>
        <time>2012-05-12T06:59:10Z</time>
      </trkpt>
      <trkpt lat="43.99696" lon="7.17555">
        <ele>768.2307129</ele>
        <time>2012-05-12T06:59:14Z</time>
      </trkpt>
      <trkpt lat="43.99672" lon="7.17537">
        <ele>772.0759277</ele>
        <time>2012-05-12T06:59:34Z</time>
      </trkpt>
      <trkpt lat="43.99645" lon="7.17519">
        <ele>774.9599609</ele>
        <time>2012-05-12T06:59:58Z</time>
      </trkpt>
      <trkpt lat="43.99622" lon="7.17501">
        <ele>778.3244629</ele>
        <time>2012-05-12T07:00:16Z</time>
      </trkpt>
      <trkpt lat="43.99617" lon="7.17495">
        <ele>778.8051758</ele>
        <time>2012-05-12T07:00:21Z</time>
      </trkpt>
      <trkpt lat="43.996" lon="7.17469">
        <ele>781.689209</ele>
        <time>2012-05-12T07:00:42Z</time>
      </trkpt>
      <trkpt lat="43.99599" lon="7.17468">
        <ele>782.1699219</ele>
        <time>2012-05-12T07:00:43Z</time>
      </trkpt>
      <trkpt lat="43.99592" lon="7.17451">
        <ele>784.0925293</ele>
        <time>2012-05-12T07:00:54Z</time>
      </trkpt>
      <trkpt lat="43.99582" lon="7.17416">
        <ele>786.4958496</ele>
        <time>2012-05-12T07:01:16Z</time>
      </trkpt>
      <trkpt lat="43.99573" lon="7.174">
        <ele>788.418457</ele>
        <time>2012-05-12T07:01:27Z</time>
      </trkpt>
      <trkpt lat="43.99543" lon="7.17414">
        <ele>791.782959</ele>
        <time>2012-05-12T07:01:48Z</time>
      </trkpt>
      <trkpt lat="43.99526" lon="7.17438">
        <ele>794.1862793</ele>
        <time>2012-05-12T07:02:05Z</time>
      </trkpt>
      <trkpt lat="43.99509" lon="7.17468">
        <ele>797.5510254</ele>
        <time>2012-05-12T07:02:25Z</time>
      </trkpt>
      <trkpt lat="43.9949" lon="7.17489">
        <ele>800.4350586</ele>
        <time>2012-05-12T07:02:44Z</time>
      </trkpt>
      <trkpt lat="43.99487" lon="7.1749">
        <ele>800.9155273</ele>
        <time>2012-05-12T07:02:46Z</time>
      </trkpt>
      <trkpt lat="43.99467" lon="7.17495">
        <ele>802.8381348</ele>
        <time>2012-05-12T07:03:02Z</time>
      </trkpt>
      <trkpt lat="43.99447" lon="7.17524">
        <ele>806.2026367</ele>
        <time>2012-05-12T07:03:23Z</time>
      </trkpt>
      <trkpt lat="43.99447" lon="7.17526">
        <ele>806.6833496</ele>
        <time>2012-05-12T07:03:24Z</time>
      </trkpt>
      <trkpt lat="43.99448" lon="7.17534">
        <ele>807.6447754</ele>
        <time>2012-05-12T07:03:30Z</time>
      </trkpt>
      <trkpt lat="43.99438" lon="7.17552">
        <ele>809.5673828</ele>
        <time>2012-05-12T07:03:45Z</time>
      </trkpt>
      <trkpt lat="43.99433" lon="7.17556">
        <ele>810.5285645</ele>
        <time>2012-05-12T07:03:49Z</time>
      </trkpt>
      <trkpt lat="43.99431" lon="7.17559">
        <ele>810.5285645</ele>
        <time>2012-05-12T07:03:51Z</time>
      </trkpt>
      <trkpt lat="43.99426" lon="7.17565">
        <ele>811.9707031</ele>
        <time>2012-05-12T07:03:58Z</time>
      </trkpt>
      <trkpt lat="43.99405" lon="7.1759">
        <ele>814.8547363</ele>
        <time>2012-05-12T07:04:17Z</time>
      </trkpt>
      <trkpt lat="43.99392" lon="7.176">
        <ele>816.2966309</ele>
        <time>2012-05-12T07:04:26Z</time>
      </trkpt>
      <trkpt lat="43.99382" lon="7.17615">
        <ele>817.2580566</ele>
        <time>2012-05-12T07:04:40Z</time>
      </trkpt>
      <trkpt lat="43.99378" lon="7.17617">
        <ele>818.2192383</ele>
        <time>2012-05-12T07:04:44Z</time>
      </trkpt>
      <trkpt lat="43.99369" lon="7.1762">
        <ele>818.6999512</ele>
        <time>2012-05-12T07:04:50Z</time>
      </trkpt>
      <trkpt lat="43.99353" lon="7.17616">
        <ele>818.6999512</ele>
        <time>2012-05-12T07:05:01Z</time>
      </trkpt>
      <trkpt lat="43.99351" lon="7.17613">
        <ele>819.661377</ele>
        <time>2012-05-12T07:05:03Z</time>
      </trkpt>
      <trkpt lat="43.99355" lon="7.17601">
        <ele>820.1418457</ele>
        <time>2012-05-12T07:05:08Z</time>
      </trkpt>
      <trkpt lat="43.99357" lon="7.17597">
        <ele>819.661377</ele>
        <time>2012-05-12T07:05:10Z</time>
      </trkpt>
      <trkpt lat="43.99362" lon="7.17571">
        <ele>821.1032715</ele>
        <time>2012-05-12T07:05:22Z</time>
      </trkpt>
      <trkpt lat="43.99355" lon="7.17556">
        <ele>820.6225586</ele>
        <time>2012-05-12T07:05:31Z</time>
      </trkpt>
      <trkpt lat="43.99357" lon="7.17545">
        <ele>822.0644531</ele>
        <time>2012-05-12T07:05:38Z</time>
      </trkpt>
      <trkpt lat="43.9936" lon="7.17539">
        <ele>822.545166</ele>
        <time>2012-05-12T07:05:43Z</time>
      </trkpt>
      <trkpt lat="43.99358" lon="7.17509">
        <ele>825.909668</ele>
        <time>2012-05-12T07:06:01Z</time>
      </trkpt>
      <trkpt lat="43.99358" lon="7.17507">
        <ele>826.3903809</ele>
        <time>2012-05-12T07:06:03Z</time>
      </trkpt>
      <trkpt lat="43.99356" lon="7.17501">
        <ele>826.3903809</ele>
        <time>2012-05-12T07:06:07Z</time>
      </trkpt>
      <trkpt lat="43.99355" lon="7.17494">
        <ele>826.3903809</ele>
        <time>2012-05-12T07:06:11Z</time>
      </trkpt>
      <trkpt lat="43.99357" lon="7.17465">
        <ele>828.3132324</ele>
        <time>2012-05-12T07:06:26Z</time>
      </trkpt>
      <trkpt lat="43.99354" lon="7.17457">
        <ele>829.2744141</ele>
        <time>2012-05-12T07:06:31Z</time>
      </trkpt>
      <trkpt lat="43.99354" lon="7.17432">
        <ele>830.7165527</ele>
        <time>2012-05-12T07:06:44Z</time>
      </trkpt>
      <trkpt lat="43.99354" lon="7.17412">
        <ele>831.6777344</ele>
        <time>2012-05-12T07:06:54Z</time>
      </trkpt>
      <trkpt lat="43.99356" lon="7.17409">
        <ele>831.6777344</ele>
        <time>2012-05-12T07:06:56Z</time>
      </trkpt>
      <trkpt lat="43.99356" lon="7.17405">
        <ele>832.1584473</ele>
        <time>2012-05-12T07:06:58Z</time>
      </trkpt>
      <trkpt lat="43.99358" lon="7.174">
        <ele>832.1584473</ele>
        <time>2012-05-12T07:07:01Z</time>
      </trkpt>
      <trkpt lat="43.99357" lon="7.17393">
        <ele>833.1196289</ele>
        <time>2012-05-12T07:07:05Z</time>
      </trkpt>
      <trkpt lat="43.99358" lon="7.17388">
        <ele>833.6003418</ele>
        <time>2012-05-12T07:07:08Z</time>
      </trkpt>
      <trkpt lat="43.99373" lon="7.17363">
        <ele>836.0036621</ele>
        <time>2012-05-12T07:07:26Z</time>
      </trkpt>
      <trkpt lat="43.99372" lon="7.17333">
        <ele>838.8876953</ele>
        <time>2012-05-12T07:07:44Z</time>
      </trkpt>
      <trkpt lat="43.9937" lon="7.17297">
        <ele>840.8100586</ele>
        <time>2012-05-12T07:08:04Z</time>
      </trkpt>
      <trkpt lat="43.99347" lon="7.17265">
        <ele>842.7329102</ele>
        <time>2012-05-12T07:08:24Z</time>
      </trkpt>
      <trkpt lat="43.99347" lon="7.17258">
        <ele>843.2133789</ele>
        <time>2012-05-12T07:08:28Z</time>
      </trkpt>
      <trkpt lat="43.99348" lon="7.17251">
        <ele>844.6555176</ele>
        <time>2012-05-12T07:08:32Z</time>
      </trkpt>
      <trkpt lat="43.99349" lon="7.17244">
        <ele>844.6555176</ele>
        <time>2012-05-12T07:08:35Z</time>
      </trkpt>
      <trkpt lat="43.99356" lon="7.1723">
        <ele>845.6169434</ele>
        <time>2012-05-12T07:08:42Z</time>
      </trkpt>
      <trkpt lat="43.99361" lon="7.17217">
        <ele>847.0588379</ele>
        <time>2012-05-12T07:08:51Z</time>
      </trkpt>
      <trkpt lat="43.99361" lon="7.17207">
        <ele>848.0202637</ele>
        <time>2012-05-12T07:08:56Z</time>
      </trkpt>
      <trkpt lat="43.99348" lon="7.17181">
        <ele>850.423584</ele>
        <time>2012-05-12T07:09:14Z</time>
      </trkpt>
      <trkpt lat="43.99322" lon="7.17164">
        <ele>853.7880859</ele>
        <time>2012-05-12T07:09:36Z</time>
      </trkpt>
      <trkpt lat="43.99313" lon="7.17168">
        <ele>854.2687988</ele>
        <time>2012-05-12T07:09:43Z</time>
      </trkpt>
      <trkpt lat="43.99309" lon="7.1717">
        <ele>855.2299805</ele>
        <time>2012-05-12T07:09:46Z</time>
      </trkpt>
      <trkpt lat="43.99301" lon="7.17172">
        <ele>856.1911621</ele>
        <time>2012-05-12T07:09:52Z</time>
      </trkpt>
      <trkpt lat="43.99296" lon="7.17175">
        <ele>856.1911621</ele>
        <time>2012-05-12T07:09:57Z</time>
      </trkpt>
      <trkpt lat="43.99271" lon="7.17172">
        <ele>859.0751953</ele>
        <time>2012-05-12T07:10:15Z</time>
      </trkpt>
      <trkpt lat="43.99267" lon="7.17171">
        <ele>859.5559082</ele>
        <time>2012-05-12T07:10:19Z</time>
      </trkpt>
      <trkpt lat="43.99232" lon="7.1718">
        <ele>862.4399414</ele>
        <time>2012-05-12T07:10:45Z</time>
      </trkpt>
      <trkpt lat="43.99214" lon="7.1719">
        <ele>864.3625488</ele>
        <time>2012-05-12T07:10:59Z</time>
      </trkpt>
      <trkpt lat="43.99204" lon="7.17196">
        <ele>864.3625488</ele>
        <time>2012-05-12T07:11:08Z</time>
      </trkpt>
      <trkpt lat="43.99194" lon="7.17198">
        <ele>866.2851563</ele>
        <time>2012-05-12T07:11:15Z</time>
      </trkpt>
      <trkpt lat="43.99188" lon="7.172">
        <ele>866.2851563</ele>
        <time>2012-05-12T07:11:19Z</time>
      </trkpt>
      <trkpt lat="43.99183" lon="7.17204">
        <ele>866.7658691</ele>
        <time>2012-05-12T07:11:24Z</time>
      </trkpt>
      <trkpt lat="43.99181" lon="7.17206">
        <ele>867.7270508</ele>
        <time>2012-05-12T07:11:42Z</time>
      </trkpt>
      <trkpt lat="43.99181" lon="7.17205">
        <ele>866.7658691</ele>
        <time>2012-05-12T07:12:37Z</time>
      </trkpt>
      <trkpt lat="43.99181" lon="7.17206">
        <ele>867.246582</ele>
        <time>2012-05-12T07:13:27Z</time>
      </trkpt>
      <trkpt lat="43.99175" lon="7.17214">
        <ele>867.7270508</ele>
        <time>2012-05-12T07:13:34Z</time>
      </trkpt>
      <trkpt lat="43.99159" lon="7.17232">
        <ele>869.6499023</ele>
        <time>2012-05-12T07:13:49Z</time>
      </trkpt>
      <trkpt lat="43.99152" lon="7.17236">
        <ele>870.1303711</ele>
        <time>2012-05-12T07:13:53Z</time>
      </trkpt>
      <trkpt lat="43.99138" lon="7.17236">
        <ele>870.611084</ele>
        <time>2012-05-12T07:14:00Z</time>
      </trkpt>
      <trkpt lat="43.99121" lon="7.17225">
        <ele>871.5722656</ele>
        <time>2012-05-12T07:14:12Z</time>
      </trkpt>
      <trkpt lat="43.99107" lon="7.17235">
        <ele>873.9755859</ele>
        <time>2012-05-12T07:14:22Z</time>
      </trkpt>
      <trkpt lat="43.99103" lon="7.17238">
        <ele>874.4562988</ele>
        <time>2012-05-12T07:14:25Z</time>
      </trkpt>
      <trkpt lat="43.99085" lon="7.17261">
        <ele>873.4951172</ele>
        <time>2012-05-12T07:14:34Z</time>
      </trkpt>
      <trkpt lat="43.99068" lon="7.17255">
        <ele>872.5336914</ele>
        <time>2012-05-12T07:14:38Z</time>
      </trkpt>
      <trkpt lat="43.99025" lon="7.17303">
        <ele>871.0917969</ele>
        <time>2012-05-12T07:14:51Z</time>
      </trkpt>
      <trkpt lat="43.99004" lon="7.1731">
        <ele>870.611084</ele>
        <time>2012-05-12T07:14:57Z</time>
      </trkpt>
      <trkpt lat="43.98986" lon="7.17285">
        <ele>869.6499023</ele>
        <time>2012-05-12T07:15:03Z</time>
      </trkpt>
      <trkpt lat="43.98986" lon="7.17283">
        <ele>869.6499023</ele>
        <time>2012-05-12T07:15:04Z</time>
      </trkpt>
      <trkpt lat="43.98986" lon="7.1728">
        <ele>869.6499023</ele>
        <time>2012-05-12T07:15:05Z</time>
      </trkpt>
      <trkpt lat="43.98987" lon="7.17275">
        <ele>870.1303711</ele>
        <time>2012-05-12T07:15:07Z</time>
      </trkpt>
      <trkpt lat="43.98986" lon="7.17224">
        <ele>872.5336914</ele>
        <time>2012-05-12T07:15:27Z</time>
      </trkpt>
      <trkpt lat="43.98955" lon="7.17222">
        <ele>875.4174805</ele>
        <time>2012-05-12T07:15:44Z</time>
      </trkpt>
      <trkpt lat="43.98933" lon="7.17232">
        <ele>875.8981934</ele>
        <time>2012-05-12T07:15:57Z</time>
      </trkpt>
      <trkpt lat="43.98902" lon="7.17215">
        <ele>876.8598633</ele>
        <time>2012-05-12T07:16:13Z</time>
      </trkpt>
      <trkpt lat="43.9888" lon="7.17225">
        <ele>876.3791504</ele>
        <time>2012-05-12T07:16:20Z</time>
      </trkpt>
      <trkpt lat="43.98869" lon="7.17231">
        <ele>874.9370117</ele>
        <time>2012-05-12T07:16:23Z</time>
      </trkpt>
      <trkpt lat="43.98866" lon="7.1723">
        <ele>873.4951172</ele>
        <time>2012-05-12T07:16:24Z</time>
      </trkpt>
      <trkpt lat="43.98857" lon="7.17194">
        <ele>875.4174805</ele>
        <time>2012-05-12T07:16:32Z</time>
      </trkpt>
      <trkpt lat="43.98853" lon="7.1717">
        <ele>873.0144043</ele>
        <time>2012-05-12T07:16:35Z</time>
      </trkpt>
      <trkpt lat="43.98879" lon="7.17133">
        <ele>874.9370117</ele>
        <time>2012-05-12T07:16:44Z</time>
      </trkpt>
      <trkpt lat="43.98895" lon="7.17096">
        <ele>876.8598633</ele>
        <time>2012-05-12T07:16:58Z</time>
      </trkpt>
      <trkpt lat="43.98909" lon="7.1706">
        <ele>878.7824707</ele>
        <time>2012-05-12T07:17:11Z</time>
      </trkpt>
      <trkpt lat="43.98916" lon="7.17043">
        <ele>879.2629395</ele>
        <time>2012-05-12T07:17:17Z</time>
      </trkpt>
      <trkpt lat="43.98943" lon="7.16997">
        <ele>881.6662598</ele>
        <time>2012-05-12T07:17:35Z</time>
      </trkpt>
      <trkpt lat="43.98969" lon="7.16959">
        <ele>885.0310059</ele>
        <time>2012-05-12T07:17:54Z</time>
      </trkpt>
      <trkpt lat="43.98974" lon="7.16942">
        <ele>885.9921875</ele>
        <time>2012-05-12T07:18:02Z</time>
      </trkpt>
      <trkpt lat="43.98977" lon="7.16914">
        <ele>887.9147949</ele>
        <time>2012-05-12T07:18:14Z</time>
      </trkpt>
      <trkpt lat="43.98988" lon="7.16862">
        <ele>890.798584</ele>
        <time>2012-05-12T07:18:36Z</time>
      </trkpt>
      <trkpt lat="43.98999" lon="7.16833">
        <ele>892.2409668</ele>
        <time>2012-05-12T07:18:49Z</time>
      </trkpt>
      <trkpt lat="43.99019" lon="7.16794">
        <ele>893.6828613</ele>
        <time>2012-05-12T07:19:07Z</time>
      </trkpt>
      <trkpt lat="43.99029" lon="7.16784">
        <ele>895.1247559</ele>
        <time>2012-05-12T07:19:13Z</time>
      </trkpt>
      <trkpt lat="43.99033" lon="7.16779">
        <ele>895.6054688</ele>
        <time>2012-05-12T07:19:17Z</time>
      </trkpt>
      <trkpt lat="43.9904" lon="7.16766">
        <ele>896.0861816</ele>
        <time>2012-05-12T07:19:23Z</time>
      </trkpt>
      <trkpt lat="43.99066" lon="7.16724">
        <ele>898.0087891</ele>
        <time>2012-05-12T07:19:45Z</time>
      </trkpt>
      <trkpt lat="43.99073" lon="7.16693">
        <ele>899.9313965</ele>
        <time>2012-05-12T07:19:58Z</time>
      </trkpt>
      <trkpt lat="43.99083" lon="7.16655">
        <ele>903.2958984</ele>
        <time>2012-05-12T07:20:17Z</time>
      </trkpt>
      <trkpt lat="43.99082" lon="7.1664">
        <ele>905.2185059</ele>
        <time>2012-05-12T07:20:26Z</time>
      </trkpt>
      <trkpt lat="43.99073" lon="7.16612">
        <ele>908.1027832</ele>
        <time>2012-05-12T07:20:43Z</time>
      </trkpt>
      <trkpt lat="43.99067" lon="7.16595">
        <ele>909.0639648</ele>
        <time>2012-05-12T07:20:52Z</time>
      </trkpt>
      <trkpt lat="43.99053" lon="7.16566">
        <ele>912.9091797</ele>
        <time>2012-05-12T07:21:11Z</time>
      </trkpt>
      <trkpt lat="43.99025" lon="7.16548">
        <ele>915.3125</ele>
        <time>2012-05-12T07:21:33Z</time>
      </trkpt>
      <trkpt lat="43.99008" lon="7.16531">
        <ele>917.2351074</ele>
        <time>2012-05-12T07:21:46Z</time>
      </trkpt>
      <trkpt lat="43.98984" lon="7.16495">
        <ele>920.1188965</ele>
        <time>2012-05-12T07:22:09Z</time>
      </trkpt>
      <trkpt lat="43.98956" lon="7.16477">
        <ele>922.5222168</ele>
        <time>2012-05-12T07:22:31Z</time>
      </trkpt>
      <trkpt lat="43.98954" lon="7.16476">
        <ele>923.0029297</ele>
        <time>2012-05-12T07:22:33Z</time>
      </trkpt>
      <trkpt lat="43.9895" lon="7.16472">
        <ele>923.4836426</ele>
        <time>2012-05-12T07:22:36Z</time>
      </trkpt>
      <trkpt lat="43.98937" lon="7.1646">
        <ele>924.9257813</ele>
        <time>2012-05-12T07:22:49Z</time>
      </trkpt>
      <trkpt lat="43.98934" lon="7.16456">
        <ele>925.40625</ele>
        <time>2012-05-12T07:22:52Z</time>
      </trkpt>
      <trkpt lat="43.98928" lon="7.16443">
        <ele>926.8483887</ele>
        <time>2012-05-12T07:23:02Z</time>
      </trkpt>
      <trkpt lat="43.98925" lon="7.16435">
        <ele>927.3291016</ele>
        <time>2012-05-12T07:23:07Z</time>
      </trkpt>
      <trkpt lat="43.98922" lon="7.16424">
        <ele>928.7709961</ele>
        <time>2012-05-12T07:23:18Z</time>
      </trkpt>
      <trkpt lat="43.98927" lon="7.16382">
        <ele>931.1743164</ele>
        <time>2012-05-12T07:23:41Z</time>
      </trkpt>
      <trkpt lat="43.98927" lon="7.16338">
        <ele>933.5773926</ele>
        <time>2012-05-12T07:23:58Z</time>
      </trkpt>
      <trkpt lat="43.98919" lon="7.16306">
        <ele>935.5</ele>
        <time>2012-05-12T07:24:13Z</time>
      </trkpt>
      <trkpt lat="43.98909" lon="7.16268">
        <ele>938.3840332</ele>
        <time>2012-05-12T07:24:34Z</time>
      </trkpt>
      <trkpt lat="43.98899" lon="7.16235">
        <ele>940.3068848</ele>
        <time>2012-05-12T07:24:52Z</time>
      </trkpt>
      <trkpt lat="43.98891" lon="7.16207">
        <ele>941.2680664</ele>
        <time>2012-05-12T07:25:07Z</time>
      </trkpt>
      <trkpt lat="43.98888" lon="7.16198">
        <ele>942.2294922</ele>
        <time>2012-05-12T07:25:11Z</time>
      </trkpt>
      <trkpt lat="43.98876" lon="7.16158">
        <ele>944.1520996</ele>
        <time>2012-05-12T07:25:33Z</time>
      </trkpt>
      <trkpt lat="43.98875" lon="7.16156">
        <ele>944.1520996</ele>
        <time>2012-05-12T07:25:34Z</time>
      </trkpt>
      <trkpt lat="43.98872" lon="7.16143">
        <ele>945.1132813</ele>
        <time>2012-05-12T07:25:41Z</time>
      </trkpt>
      <trkpt lat="43.98863" lon="7.1612">
        <ele>947.0358887</ele>
        <time>2012-05-12T07:25:52Z</time>
      </trkpt>
      <trkpt lat="43.98842" lon="7.16102">
        <ele>949.9199219</ele>
        <time>2012-05-12T07:26:12Z</time>
      </trkpt>
      <trkpt lat="43.98822" lon="7.16098">
        <ele>951.3618164</ele>
        <time>2012-05-12T07:26:28Z</time>
      </trkpt>
      <trkpt lat="43.98789" lon="7.16115">
        <ele>953.7651367</ele>
        <time>2012-05-12T07:26:49Z</time>
      </trkpt>
      <trkpt lat="43.98758" lon="7.16119">
        <ele>956.168457</ele>
        <time>2012-05-12T07:27:11Z</time>
      </trkpt>
      <trkpt lat="43.98734" lon="7.16113">
        <ele>959.5332031</ele>
        <time>2012-05-12T07:27:28Z</time>
      </trkpt>
      <trkpt lat="43.98699" lon="7.161">
        <ele>962.8977051</ele>
        <time>2012-05-12T07:27:54Z</time>
      </trkpt>
      <trkpt lat="43.98668" lon="7.16081">
        <ele>965.7817383</ele>
        <time>2012-05-12T07:28:17Z</time>
      </trkpt>
      <trkpt lat="43.98638" lon="7.16061">
        <ele>968.6655273</ele>
        <time>2012-05-12T07:28:39Z</time>
      </trkpt>
      <trkpt lat="43.98627" lon="7.16054">
        <ele>970.5881348</ele>
        <time>2012-05-12T07:28:48Z</time>
      </trkpt>
      <trkpt lat="43.98624" lon="7.16053">
        <ele>970.1074219</ele>
        <time>2012-05-12T07:28:50Z</time>
      </trkpt>
      <trkpt lat="43.98594" lon="7.16036">
        <ele>973.4724121</ele>
        <time>2012-05-12T07:29:12Z</time>
      </trkpt>
      <trkpt lat="43.98579" lon="7.16028">
        <ele>975.3947754</ele>
        <time>2012-05-12T07:29:24Z</time>
      </trkpt>
      <trkpt lat="43.98569" lon="7.16026">
        <ele>976.3562012</ele>
        <time>2012-05-12T07:29:32Z</time>
      </trkpt>
      <trkpt lat="43.98565" lon="7.16025">
        <ele>976.3562012</ele>
        <time>2012-05-12T07:29:35Z</time>
      </trkpt>
      <trkpt lat="43.98562" lon="7.16024">
        <ele>976.3562012</ele>
        <time>2012-05-12T07:29:37Z</time>
      </trkpt>
      <trkpt lat="43.98555" lon="7.16022">
        <ele>977.317627</ele>
        <time>2012-05-12T07:29:42Z</time>
      </trkpt>
      <trkpt lat="43.98555" lon="7.16022">
        <ele>976.8369141</ele>
        <time>2012-05-12T07:29:58Z</time>
      </trkpt>
      <trkpt lat="43.98552" lon="7.16022">
        <ele>980.6821289</ele>
        <time>2012-05-12T07:30:13Z</time>
      </trkpt>
      <trkpt lat="43.98552" lon="7.16022">
        <ele>983.565918</ele>
        <time>2012-05-12T07:30:29Z</time>
      </trkpt>
      <trkpt lat="43.98552" lon="7.16022">
        <ele>986.9304199</ele>
        <time>2012-05-12T07:30:47Z</time>
      </trkpt>
      <trkpt lat="43.98552" lon="7.16022">
        <ele>987.4111328</ele>
        <time>2012-05-12T07:31:03Z</time>
      </trkpt>
      <trkpt lat="43.98552" lon="7.16022">
        <ele>990.7758789</ele>
        <time>2012-05-12T07:32:59Z</time>
      </trkpt>
      <trkpt lat="43.98552" lon="7.16022">
        <ele>994.140625</ele>
        <time>2012-05-12T07:33:15Z</time>
      </trkpt>
      <trkpt lat="43.98552" lon="7.16022">
        <ele>997.505127</ele>
        <time>2012-05-12T07:33:43Z</time>
      </trkpt>
      <trkpt lat="43.98552" lon="7.16022">
        <ele>1000.3891602</ele>
        <time>2012-05-12T07:33:59Z</time>
      </trkpt>
      <trkpt lat="43.98552" lon="7.16022">
        <ele>1002.3115234</ele>
        <time>2012-05-12T07:34:30Z</time>
      </trkpt>
      <trkpt lat="43.98552" lon="7.16022">
        <ele>1005.1958008</ele>
        <time>2012-05-12T07:35:32Z</time>
      </trkpt>
      <trkpt lat="43.98552" lon="7.16022">
        <ele>1008.5603027</ele>
        <time>2012-05-12T07:35:49Z</time>
      </trkpt>
      <trkpt lat="43.98552" lon="7.16022">
        <ele>1011.9250488</ele>
        <time>2012-05-12T07:36:07Z</time>
      </trkpt>
      <trkpt lat="43.98552" lon="7.16022">
        <ele>1015.2895508</ele>
        <time>2012-05-12T07:36:26Z</time>
      </trkpt>
      <trkpt lat="43.98552" lon="7.16022">
        <ele>1018.1733398</ele>
        <time>2012-05-12T07:36:41Z</time>
      </trkpt>
      <trkpt lat="43.98584" lon="7.16156">
        <ele>1021.5380859</ele>
        <time>2012-05-12T07:37:02Z</time>
      </trkpt>
      <trkpt lat="43.98588" lon="7.1617">
        <ele>1024.902832</ele>
        <time>2012-05-12T07:37:23Z</time>
      </trkpt>
      <trkpt lat="43.98589" lon="7.16172">
        <ele>1025.8640137</ele>
        <time>2012-05-12T07:37:25Z</time>
      </trkpt>
      <trkpt lat="43.98592" lon="7.1618">
        <ele>1027.3061523</ele>
        <time>2012-05-12T07:37:36Z</time>
      </trkpt>
      <trkpt lat="43.98595" lon="7.16194">
        <ele>1031.1513672</ele>
        <time>2012-05-12T07:37:54Z</time>
      </trkpt>
      <trkpt lat="43.98596" lon="7.16196">
        <ele>1031.1513672</ele>
        <time>2012-05-12T07:37:56Z</time>
      </trkpt>
      <trkpt lat="43.98598" lon="7.16198">
        <ele>1032.1125488</ele>
        <time>2012-05-12T07:38:00Z</time>
      </trkpt>
      <trkpt lat="43.98604" lon="7.16217">
        <ele>1035.4770508</ele>
        <time>2012-05-12T07:38:21Z</time>
      </trkpt>
      <trkpt lat="43.98608" lon="7.1623">
        <ele>1036.4387207</ele>
        <time>2012-05-12T07:38:45Z</time>
      </trkpt>
      <trkpt lat="43.98619" lon="7.16246">
        <ele>1036.9191895</ele>
        <time>2012-05-12T07:39:18Z</time>
      </trkpt>
      <trkpt lat="43.98647" lon="7.16284">
        <ele>1039.3225098</ele>
        <time>2012-05-12T07:39:44Z</time>
      </trkpt>
      <trkpt lat="43.98667" lon="7.16311">
        <ele>1042.6872559</ele>
        <time>2012-05-12T07:40:05Z</time>
      </trkpt>
      <trkpt lat="43.9867" lon="7.16317">
        <ele>1042.6872559</ele>
        <time>2012-05-12T07:40:09Z</time>
      </trkpt>
      <trkpt lat="43.98686" lon="7.16339">
        <ele>1046.5324707</ele>
        <time>2012-05-12T07:40:28Z</time>
      </trkpt>
      <trkpt lat="43.98694" lon="7.16356">
        <ele>1048.454834</ele>
        <time>2012-05-12T07:40:40Z</time>
      </trkpt>
      <trkpt lat="43.98706" lon="7.16374">
        <ele>1051.8195801</ele>
        <time>2012-05-12T07:40:54Z</time>
      </trkpt>
      <trkpt lat="43.98717" lon="7.16388">
        <ele>1055.1843262</ele>
        <time>2012-05-12T07:41:06Z</time>
      </trkpt>
      <trkpt lat="43.98729" lon="7.16402">
        <ele>1056.6262207</ele>
        <time>2012-05-12T07:41:18Z</time>
      </trkpt>
      <trkpt lat="43.98737" lon="7.16453">
        <ele>1060.9521484</ele>
        <time>2012-05-12T07:41:47Z</time>
      </trkpt>
      <trkpt lat="43.98745" lon="7.16513">
        <ele>1063.8359375</ele>
        <time>2012-05-12T07:42:18Z</time>
      </trkpt>
      <trkpt lat="43.98747" lon="7.16521">
        <ele>1064.7973633</ele>
        <time>2012-05-12T07:42:38Z</time>
      </trkpt>
      <trkpt lat="43.98747" lon="7.16521">
        <ele>1064.7973633</ele>
        <time>2012-05-12T07:43:10Z</time>
      </trkpt>
      <trkpt lat="43.98743" lon="7.16545">
        <ele>1067.6811523</ele>
        <time>2012-05-12T07:43:29Z</time>
      </trkpt>
      <trkpt lat="43.98743" lon="7.16566">
        <ele>1071.0461426</ele>
        <time>2012-05-12T07:43:50Z</time>
      </trkpt>
      <trkpt lat="43.98741" lon="7.16586">
        <ele>1074.4106445</ele>
        <time>2012-05-12T07:44:11Z</time>
      </trkpt>
      <trkpt lat="43.9874" lon="7.166">
        <ele>1077.2946777</ele>
        <time>2012-05-12T07:44:27Z</time>
      </trkpt>
      <trkpt lat="43.98739" lon="7.16617">
        <ele>1080.1784668</ele>
        <time>2012-05-12T07:44:45Z</time>
      </trkpt>
      <trkpt lat="43.98736" lon="7.1663">
        <ele>1081.6203613</ele>
        <time>2012-05-12T07:45:03Z</time>
      </trkpt>
      <trkpt lat="43.98725" lon="7.16665">
        <ele>1084.0239258</ele>
        <time>2012-05-12T07:45:23Z</time>
      </trkpt>
      <trkpt lat="43.98717" lon="7.16696">
        <ele>1087.3884277</ele>
        <time>2012-05-12T07:45:41Z</time>
      </trkpt>
      <trkpt lat="43.98716" lon="7.16699">
        <ele>1087.3884277</ele>
        <time>2012-05-12T07:45:58Z</time>
      </trkpt>
      <trkpt lat="43.98706" lon="7.16732">
        <ele>1089.3110352</ele>
        <time>2012-05-12T07:46:17Z</time>
      </trkpt>
      <trkpt lat="43.987" lon="7.16753">
        <ele>1092.1950684</ele>
        <time>2012-05-12T07:46:28Z</time>
      </trkpt>
      <trkpt lat="43.98685" lon="7.1679">
        <ele>1095.0788574</ele>
        <time>2012-05-12T07:46:50Z</time>
      </trkpt>
      <trkpt lat="43.98658" lon="7.16814">
        <ele>1097.9628906</ele>
        <time>2012-05-12T07:47:14Z</time>
      </trkpt>
      <trkpt lat="43.98622" lon="7.16824">
        <ele>1100.8469238</ele>
        <time>2012-05-12T07:47:39Z</time>
      </trkpt>
      <trkpt lat="43.98597" lon="7.16832">
        <ele>1102.2888184</ele>
        <time>2012-05-12T07:47:57Z</time>
      </trkpt>
      <trkpt lat="43.98593" lon="7.16836">
        <ele>1103.2502441</ele>
        <time>2012-05-12T07:48:12Z</time>
      </trkpt>
      <trkpt lat="43.98595" lon="7.16838">
        <ele>1103.730957</ele>
        <time>2012-05-12T07:49:17Z</time>
      </trkpt>
      <trkpt lat="43.98602" lon="7.16897">
        <ele>1102.2888184</ele>
        <time>2012-05-12T07:49:35Z</time>
      </trkpt>
      <trkpt lat="43.98603" lon="7.16918">
        <ele>1102.7695313</ele>
        <time>2012-05-12T07:49:49Z</time>
      </trkpt>
      <trkpt lat="43.98602" lon="7.16918">
        <ele>1102.2888184</ele>
        <time>2012-05-12T07:51:36Z</time>
      </trkpt>
      <trkpt lat="43.98585" lon="7.16974">
        <ele>1103.2502441</ele>
        <time>2012-05-12T07:51:59Z</time>
      </trkpt>
      <trkpt lat="43.98557" lon="7.17026">
        <ele>1104.6921387</ele>
        <time>2012-05-12T07:52:24Z</time>
      </trkpt>
      <trkpt lat="43.98534" lon="7.1705">
        <ele>1107.5761719</ele>
        <time>2012-05-12T07:52:41Z</time>
      </trkpt>
      <trkpt lat="43.98527" lon="7.17052">
        <ele>1109.4987793</ele>
        <time>2012-05-12T07:52:45Z</time>
      </trkpt>
      <trkpt lat="43.98494" lon="7.17095">
        <ele>1111.9020996</ele>
        <time>2012-05-12T07:53:11Z</time>
      </trkpt>
      <trkpt lat="43.98478" lon="7.1711">
        <ele>1112.8632813</ele>
        <time>2012-05-12T07:53:23Z</time>
      </trkpt>
      <trkpt lat="43.98452" lon="7.17119">
        <ele>1116.7087402</ele>
        <time>2012-05-12T07:53:41Z</time>
      </trkpt>
      <trkpt lat="43.98451" lon="7.1712">
        <ele>1116.7087402</ele>
        <time>2012-05-12T07:53:42Z</time>
      </trkpt>
      <trkpt lat="43.98442" lon="7.17143">
        <ele>1120.0732422</ele>
        <time>2012-05-12T07:53:57Z</time>
      </trkpt>
      <trkpt lat="43.98454" lon="7.17175">
        <ele>1122.4765625</ele>
        <time>2012-05-12T07:54:17Z</time>
      </trkpt>
      <trkpt lat="43.98469" lon="7.17203">
        <ele>1124.8798828</ele>
        <time>2012-05-12T07:54:36Z</time>
      </trkpt>
      <trkpt lat="43.98482" lon="7.17222">
        <ele>1128.2443848</ele>
        <time>2012-05-12T07:54:52Z</time>
      </trkpt>
      <trkpt lat="43.98488" lon="7.17231">
        <ele>1129.6862793</ele>
        <time>2012-05-12T07:55:07Z</time>
      </trkpt>
      <trkpt lat="43.98493" lon="7.17253">
        <ele>1133.0510254</ele>
        <time>2012-05-12T07:55:30Z</time>
      </trkpt>
      <trkpt lat="43.98498" lon="7.1727">
        <ele>1136.4157715</ele>
        <time>2012-05-12T07:55:55Z</time>
      </trkpt>
      <trkpt lat="43.98501" lon="7.17272">
        <ele>1136.8962402</ele>
        <time>2012-05-12T07:56:16Z</time>
      </trkpt>
      <trkpt lat="43.98507" lon="7.17271">
        <ele>1139.7802734</ele>
        <time>2012-05-12T07:56:42Z</time>
      </trkpt>
      <trkpt lat="43.9851" lon="7.17261">
        <ele>1142.6643066</ele>
        <time>2012-05-12T07:56:57Z</time>
      </trkpt>
      <trkpt lat="43.98516" lon="7.17265">
        <ele>1145.0673828</ele>
        <time>2012-05-12T07:57:15Z</time>
      </trkpt>
      <trkpt lat="43.98522" lon="7.17262">
        <ele>1148.9128418</ele>
        <time>2012-05-12T07:57:28Z</time>
      </trkpt>
      <trkpt lat="43.98522" lon="7.17261">
        <ele>1148.9128418</ele>
        <time>2012-05-12T07:57:29Z</time>
      </trkpt>
      <trkpt lat="43.98526" lon="7.17267">
        <ele>1150.3549805</ele>
        <time>2012-05-12T07:57:45Z</time>
      </trkpt>
      <trkpt lat="43.98524" lon="7.17277">
        <ele>1153.7194824</ele>
        <time>2012-05-12T07:58:04Z</time>
      </trkpt>
      <trkpt lat="43.98527" lon="7.17279">
        <ele>1155.161377</ele>
        <time>2012-05-12T07:58:18Z</time>
      </trkpt>
      <trkpt lat="43.98529" lon="7.17281">
        <ele>1156.6032715</ele>
        <time>2012-05-12T07:58:23Z</time>
      </trkpt>
      <trkpt lat="43.98525" lon="7.17296">
        <ele>1158.0454102</ele>
        <time>2012-05-12T07:58:41Z</time>
      </trkpt>
      <trkpt lat="43.98525" lon="7.17303">
        <ele>1159.4873047</ele>
        <time>2012-05-12T07:58:53Z</time>
      </trkpt>
      <trkpt lat="43.98523" lon="7.17308">
        <ele>1159.0065918</ele>
        <time>2012-05-12T07:58:57Z</time>
      </trkpt>
      <trkpt lat="43.98522" lon="7.17314">
        <ele>1159.4873047</ele>
        <time>2012-05-12T07:59:00Z</time>
      </trkpt>
      <trkpt lat="43.98521" lon="7.17322">
        <ele>1159.4873047</ele>
        <time>2012-05-12T07:59:05Z</time>
      </trkpt>
      <trkpt lat="43.98513" lon="7.17331">
        <ele>1159.4873047</ele>
        <time>2012-05-12T07:59:10Z</time>
      </trkpt>
      <trkpt lat="43.98509" lon="7.17344">
        <ele>1160.9291992</ele>
        <time>2012-05-12T07:59:18Z</time>
      </trkpt>
      <trkpt lat="43.98508" lon="7.17347">
        <ele>1160.4484863</ele>
        <time>2012-05-12T07:59:20Z</time>
      </trkpt>
      <trkpt lat="43.98507" lon="7.17351">
        <ele>1161.890625</ele>
        <time>2012-05-12T07:59:42Z</time>
      </trkpt>
      <trkpt lat="43.98505" lon="7.1737">
        <ele>1165.2553711</ele>
        <time>2012-05-12T08:00:16Z</time>
      </trkpt>
      <trkpt lat="43.98501" lon="7.17382">
        <ele>1168.1391602</ele>
        <time>2012-05-12T08:00:30Z</time>
      </trkpt>
      <trkpt lat="43.985" lon="7.17393">
        <ele>1171.5036621</ele>
        <time>2012-05-12T08:00:46Z</time>
      </trkpt>
      <trkpt lat="43.98499" lon="7.17409">
        <ele>1174.3876953</ele>
        <time>2012-05-12T08:01:05Z</time>
      </trkpt>
      <trkpt lat="43.98499" lon="7.17413">
        <ele>1175.8295898</ele>
        <time>2012-05-12T08:01:38Z</time>
      </trkpt>
      <trkpt lat="43.98499" lon="7.17428">
        <ele>1178.713623</ele>
        <time>2012-05-12T08:01:59Z</time>
      </trkpt>
      <trkpt lat="43.985" lon="7.1744">
        <ele>1182.0783691</ele>
        <time>2012-05-12T08:02:15Z</time>
      </trkpt>
      <trkpt lat="43.98501" lon="7.17455">
        <ele>1184.9624023</ele>
        <time>2012-05-12T08:02:35Z</time>
      </trkpt>
      <trkpt lat="43.98505" lon="7.17476">
        <ele>1188.3269043</ele>
        <time>2012-05-12T08:02:56Z</time>
      </trkpt>
      <trkpt lat="43.98504" lon="7.17492">
        <ele>1191.6914063</ele>
        <time>2012-05-12T08:03:12Z</time>
      </trkpt>
      <trkpt lat="43.98504" lon="7.17509">
        <ele>1194.0947266</ele>
        <time>2012-05-12T08:03:32Z</time>
      </trkpt>
      <trkpt lat="43.98499" lon="7.17529">
        <ele>1197.4594727</ele>
        <time>2012-05-12T08:03:50Z</time>
      </trkpt>
      <trkpt lat="43.98499" lon="7.1753">
        <ele>1197.4594727</ele>
        <time>2012-05-12T08:03:51Z</time>
      </trkpt>
      <trkpt lat="43.98495" lon="7.17564">
        <ele>1197.4594727</ele>
        <time>2012-05-12T08:04:13Z</time>
      </trkpt>
      <trkpt lat="43.98497" lon="7.17588">
        <ele>1200.8239746</ele>
        <time>2012-05-12T08:04:31Z</time>
      </trkpt>
      <trkpt lat="43.98497" lon="7.176">
        <ele>1202.746582</ele>
        <time>2012-05-12T08:04:42Z</time>
      </trkpt>
      <trkpt lat="43.98496" lon="7.17624">
        <ele>1206.111084</ele>
        <time>2012-05-12T08:05:03Z</time>
      </trkpt>
      <trkpt lat="43.98495" lon="7.1763">
        <ele>1207.0725098</ele>
        <time>2012-05-12T08:05:08Z</time>
      </trkpt>
      <trkpt lat="43.98489" lon="7.17634">
        <ele>1206.111084</ele>
        <time>2012-05-12T08:05:24Z</time>
      </trkpt>
      <trkpt lat="43.9849" lon="7.17634">
        <ele>1209.4758301</ele>
        <time>2012-05-12T08:08:46Z</time>
      </trkpt>
      <trkpt lat="43.98491" lon="7.17634">
        <ele>1208.5144043</ele>
        <time>2012-05-12T08:09:42Z</time>
      </trkpt>
      <trkpt lat="43.98491" lon="7.17635">
        <ele>1208.5144043</ele>
        <time>2012-05-12T08:11:20Z</time>
      </trkpt>
      <trkpt lat="43.98493" lon="7.17635">
        <ele>1209.9562988</ele>
        <time>2012-05-12T08:11:58Z</time>
      </trkpt>
      <trkpt lat="43.98492" lon="7.17636">
        <ele>1210.4370117</ele>
        <time>2012-05-12T08:12:52Z</time>
      </trkpt>
      <trkpt lat="43.98493" lon="7.17636">
        <ele>1210.4370117</ele>
        <time>2012-05-12T08:13:10Z</time>
      </trkpt>
      <trkpt lat="43.98496" lon="7.1764">
        <ele>1209.9562988</ele>
        <time>2012-05-12T08:13:15Z</time>
      </trkpt>
      <trkpt lat="43.98504" lon="7.17642">
        <ele>1210.4370117</ele>
        <time>2012-05-12T08:13:21Z</time>
      </trkpt>
      <trkpt lat="43.98517" lon="7.17655">
        <ele>1211.8791504</ele>
        <time>2012-05-12T08:13:43Z</time>
      </trkpt>
      <trkpt lat="43.98518" lon="7.17656">
        <ele>1212.8405762</ele>
        <time>2012-05-12T08:13:55Z</time>
      </trkpt>
      <trkpt lat="43.98537" lon="7.17684">
        <ele>1213.3212891</ele>
        <time>2012-05-12T08:14:13Z</time>
      </trkpt>
      <trkpt lat="43.98539" lon="7.17687">
        <ele>1213.3212891</ele>
        <time>2012-05-12T08:14:15Z</time>
      </trkpt>
      <trkpt lat="43.9856" lon="7.17722">
        <ele>1213.8017578</ele>
        <time>2012-05-12T08:14:29Z</time>
      </trkpt>
      <trkpt lat="43.9858" lon="7.17735">
        <ele>1214.7631836</ele>
        <time>2012-05-12T08:14:40Z</time>
      </trkpt>
      <trkpt lat="43.98595" lon="7.17743">
        <ele>1215.7246094</ele>
        <time>2012-05-12T08:14:47Z</time>
      </trkpt>
      <trkpt lat="43.98623" lon="7.17754">
        <ele>1215.7246094</ele>
        <time>2012-05-12T08:15:00Z</time>
      </trkpt>
      <trkpt lat="43.98628" lon="7.17758">
        <ele>1216.2050781</ele>
        <time>2012-05-12T08:15:02Z</time>
      </trkpt>
      <trkpt lat="43.98636" lon="7.17786">
        <ele>1215.2438965</ele>
        <time>2012-05-12T08:15:09Z</time>
      </trkpt>
      <trkpt lat="43.98662" lon="7.17813">
        <ele>1215.7246094</ele>
        <time>2012-05-12T08:15:19Z</time>
      </trkpt>
      <trkpt lat="43.98685" lon="7.17832">
        <ele>1219.5698242</ele>
        <time>2012-05-12T08:15:34Z</time>
      </trkpt>
      <trkpt lat="43.98701" lon="7.17842">
        <ele>1220.5310059</ele>
        <time>2012-05-12T08:15:45Z</time>
      </trkpt>
      <trkpt lat="43.98705" lon="7.17846">
        <ele>1221.4921875</ele>
        <time>2012-05-12T08:15:48Z</time>
      </trkpt>
      <trkpt lat="43.98733" lon="7.17868">
        <ele>1224.3762207</ele>
        <time>2012-05-12T08:16:06Z</time>
      </trkpt>
      <trkpt lat="43.98757" lon="7.17904">
        <ele>1225.8181152</ele>
        <time>2012-05-12T08:16:25Z</time>
      </trkpt>
      <trkpt lat="43.98772" lon="7.17935">
        <ele>1226.2988281</ele>
        <time>2012-05-12T08:16:37Z</time>
      </trkpt>
      <trkpt lat="43.98797" lon="7.17971">
        <ele>1227.7407227</ele>
        <time>2012-05-12T08:16:54Z</time>
      </trkpt>
      <trkpt lat="43.98802" lon="7.17975">
        <ele>1229.1828613</ele>
        <time>2012-05-12T08:16:57Z</time>
      </trkpt>
      <trkpt lat="43.98808" lon="7.17978">
        <ele>1229.6635742</ele>
        <time>2012-05-12T08:17:01Z</time>
      </trkpt>
      <trkpt lat="43.98832" lon="7.17992">
        <ele>1232.0668945</ele>
        <time>2012-05-12T08:17:17Z</time>
      </trkpt>
      <trkpt lat="43.98854" lon="7.18002">
        <ele>1234.9509277</ele>
        <time>2012-05-12T08:17:32Z</time>
      </trkpt>
      <trkpt lat="43.98881" lon="7.18029">
        <ele>1236.873291</ele>
        <time>2012-05-12T08:17:54Z</time>
      </trkpt>
      <trkpt lat="43.9889" lon="7.18066">
        <ele>1239.7573242</ele>
        <time>2012-05-12T08:18:13Z</time>
      </trkpt>
      <trkpt lat="43.98892" lon="7.1807">
        <ele>1239.7573242</ele>
        <time>2012-05-12T08:18:15Z</time>
      </trkpt>
      <trkpt lat="43.98904" lon="7.18103">
        <ele>1241.6799316</ele>
        <time>2012-05-12T08:18:35Z</time>
      </trkpt>
      <trkpt lat="43.98904" lon="7.1811">
        <ele>1242.1606445</ele>
        <time>2012-05-12T08:18:38Z</time>
      </trkpt>
      <trkpt lat="43.98909" lon="7.18132">
        <ele>1242.6413574</ele>
        <time>2012-05-12T08:18:47Z</time>
      </trkpt>
      <trkpt lat="43.9892" lon="7.18164">
        <ele>1244.5639648</ele>
        <time>2012-05-12T08:19:01Z</time>
      </trkpt>
      <trkpt lat="43.98925" lon="7.18171">
        <ele>1244.5639648</ele>
        <time>2012-05-12T08:19:04Z</time>
      </trkpt>
      <trkpt lat="43.98926" lon="7.18174">
        <ele>1245.0446777</ele>
        <time>2012-05-12T08:19:06Z</time>
      </trkpt>
      <trkpt lat="43.9893" lon="7.18181">
        <ele>1245.0446777</ele>
        <time>2012-05-12T08:19:09Z</time>
      </trkpt>
      <trkpt lat="43.98943" lon="7.18198">
        <ele>1246.4868164</ele>
        <time>2012-05-12T08:19:20Z</time>
      </trkpt>
      <trkpt lat="43.9895" lon="7.18204">
        <ele>1246.4868164</ele>
        <time>2012-05-12T08:19:24Z</time>
      </trkpt>
      <trkpt lat="43.9896" lon="7.18229">
        <ele>1248.4091797</ele>
        <time>2012-05-12T08:19:36Z</time>
      </trkpt>
      <trkpt lat="43.98951" lon="7.18271">
        <ele>1250.8125</ele>
        <time>2012-05-12T08:19:54Z</time>
      </trkpt>
      <trkpt lat="43.98922" lon="7.18313">
        <ele>1249.8513184</ele>
        <time>2012-05-12T08:20:12Z</time>
      </trkpt>
      <trkpt lat="43.98915" lon="7.18342">
        <ele>1252.2543945</ele>
        <time>2012-05-12T08:20:27Z</time>
      </trkpt>
      <trkpt lat="43.98917" lon="7.18346">
        <ele>1252.2543945</ele>
        <time>2012-05-12T08:20:29Z</time>
      </trkpt>
      <trkpt lat="43.98916" lon="7.18364">
        <ele>1253.6965332</ele>
        <time>2012-05-12T08:20:39Z</time>
      </trkpt>
      <trkpt lat="43.98916" lon="7.1837">
        <ele>1254.6577148</ele>
        <time>2012-05-12T08:20:43Z</time>
      </trkpt>
      <trkpt lat="43.9891" lon="7.18385">
        <ele>1256.5803223</ele>
        <time>2012-05-12T08:20:49Z</time>
      </trkpt>
      <trkpt lat="43.98898" lon="7.18416">
        <ele>1256.0996094</ele>
        <time>2012-05-12T08:21:02Z</time>
      </trkpt>
      <trkpt lat="43.98894" lon="7.18454">
        <ele>1256.0996094</ele>
        <time>2012-05-12T08:21:15Z</time>
      </trkpt>
      <trkpt lat="43.98894" lon="7.18462">
        <ele>1256.5803223</ele>
        <time>2012-05-12T08:21:18Z</time>
      </trkpt>
      <trkpt lat="43.98899" lon="7.18504">
        <ele>1256.0996094</ele>
        <time>2012-05-12T08:21:30Z</time>
      </trkpt>
      <trkpt lat="43.98908" lon="7.18518">
        <ele>1255.1384277</ele>
        <time>2012-05-12T08:21:33Z</time>
      </trkpt>
      <trkpt lat="43.9894" lon="7.18554">
        <ele>1255.6191406</ele>
        <time>2012-05-12T08:21:45Z</time>
      </trkpt>
      <trkpt lat="43.98952" lon="7.18569">
        <ele>1255.6191406</ele>
        <time>2012-05-12T08:21:50Z</time>
      </trkpt>
      <trkpt lat="43.98962" lon="7.18585">
        <ele>1255.1384277</ele>
        <time>2012-05-12T08:21:55Z</time>
      </trkpt>
      <trkpt lat="43.98983" lon="7.18615">
        <ele>1255.1384277</ele>
        <time>2012-05-12T08:22:06Z</time>
      </trkpt>
      <trkpt lat="43.98993" lon="7.18625">
        <ele>1256.0996094</ele>
        <time>2012-05-12T08:22:11Z</time>
      </trkpt>
      <trkpt lat="43.9901" lon="7.18669">
        <ele>1259.9448242</ele>
        <time>2012-05-12T08:22:32Z</time>
      </trkpt>
      <trkpt lat="43.98992" lon="7.18719">
        <ele>1263.3098145</ele>
        <time>2012-05-12T08:22:54Z</time>
      </trkpt>
      <trkpt lat="43.98991" lon="7.1872">
        <ele>1263.3098145</ele>
        <time>2012-05-12T08:22:55Z</time>
      </trkpt>
      <trkpt lat="43.98988" lon="7.18737">
        <ele>1264.2709961</ele>
        <time>2012-05-12T08:23:03Z</time>
      </trkpt>
      <trkpt lat="43.98988" lon="7.18752">
        <ele>1266.6743164</ele>
        <time>2012-05-12T08:23:12Z</time>
      </trkpt>
      <trkpt lat="43.98984" lon="7.18781">
        <ele>1269.0776367</ele>
        <time>2012-05-12T08:23:28Z</time>
      </trkpt>
      <trkpt lat="43.9898" lon="7.18805">
        <ele>1272.4421387</ele>
        <time>2012-05-12T08:23:40Z</time>
      </trkpt>
      <trkpt lat="43.98979" lon="7.18807">
        <ele>1272.4421387</ele>
        <time>2012-05-12T08:23:41Z</time>
      </trkpt>
      <trkpt lat="43.98977" lon="7.18831">
        <ele>1272.9228516</ele>
        <time>2012-05-12T08:23:54Z</time>
      </trkpt>
      <trkpt lat="43.98978" lon="7.18841">
        <ele>1273.8840332</ele>
        <time>2012-05-12T08:24:00Z</time>
      </trkpt>
      <trkpt lat="43.98978" lon="7.18843">
        <ele>1275.3259277</ele>
        <time>2012-05-12T08:24:05Z</time>
      </trkpt>
      <trkpt lat="43.98978" lon="7.18852">
        <ele>1275.8066406</ele>
        <time>2012-05-12T08:24:10Z</time>
      </trkpt>
      <trkpt lat="43.98994" lon="7.18879">
        <ele>1278.2102051</ele>
        <time>2012-05-12T08:24:27Z</time>
      </trkpt>
      <trkpt lat="43.99016" lon="7.18889">
        <ele>1281.574707</ele>
        <time>2012-05-12T08:24:44Z</time>
      </trkpt>
      <trkpt lat="43.99019" lon="7.1889">
        <ele>1283.9780273</ele>
        <time>2012-05-12T08:24:46Z</time>
      </trkpt>
      <trkpt lat="43.99021" lon="7.18892">
        <ele>1282.5361328</ele>
        <time>2012-05-12T08:24:48Z</time>
      </trkpt>
      <trkpt lat="43.99024" lon="7.18893">
        <ele>1283.4973145</ele>
        <time>2012-05-12T08:24:52Z</time>
      </trkpt>
      <trkpt lat="43.9904" lon="7.1891">
        <ele>1286.3813477</ele>
        <time>2012-05-12T08:25:06Z</time>
      </trkpt>
      <trkpt lat="43.9905" lon="7.18934">
        <ele>1288.784668</ele>
        <time>2012-05-12T08:25:22Z</time>
      </trkpt>
      <trkpt lat="43.9905" lon="7.18939">
        <ele>1288.784668</ele>
        <time>2012-05-12T08:25:25Z</time>
      </trkpt>
      <trkpt lat="43.99051" lon="7.18984">
        <ele>1291.1877441</ele>
        <time>2012-05-12T08:25:49Z</time>
      </trkpt>
      <trkpt lat="43.99052" lon="7.18989">
        <ele>1292.1494141</ele>
        <time>2012-05-12T08:25:54Z</time>
      </trkpt>
      <trkpt lat="43.99059" lon="7.19019">
        <ele>1295.0332031</ele>
        <time>2012-05-12T08:26:12Z</time>
      </trkpt>
      <trkpt lat="43.99062" lon="7.19026">
        <ele>1295.513916</ele>
        <time>2012-05-12T08:26:16Z</time>
      </trkpt>
      <trkpt lat="43.99065" lon="7.19034">
        <ele>1297.4365234</ele>
        <time>2012-05-12T08:26:24Z</time>
      </trkpt>
      <trkpt lat="43.99072" lon="7.19049">
        <ele>1298.3977051</ele>
        <time>2012-05-12T08:26:32Z</time>
      </trkpt>
      <trkpt lat="43.99075" lon="7.19055">
        <ele>1299.8398438</ele>
        <time>2012-05-12T08:26:36Z</time>
      </trkpt>
      <trkpt lat="43.99076" lon="7.19059">
        <ele>1299.8398438</ele>
        <time>2012-05-12T08:26:38Z</time>
      </trkpt>
      <trkpt lat="43.99077" lon="7.19063">
        <ele>1300.3205566</ele>
        <time>2012-05-12T08:26:41Z</time>
      </trkpt>
      <trkpt lat="43.99077" lon="7.19065">
        <ele>1301.2817383</ele>
        <time>2012-05-12T08:26:44Z</time>
      </trkpt>
      <trkpt lat="43.99081" lon="7.19092">
        <ele>1303.6850586</ele>
        <time>2012-05-12T08:27:02Z</time>
      </trkpt>
      <trkpt lat="43.99081" lon="7.19095">
        <ele>1304.1657715</ele>
        <time>2012-05-12T08:27:05Z</time>
      </trkpt>
      <trkpt lat="43.99084" lon="7.19117">
        <ele>1305.607666</ele>
        <time>2012-05-12T08:27:18Z</time>
      </trkpt>
      <trkpt lat="43.99088" lon="7.1913">
        <ele>1306.5688477</ele>
        <time>2012-05-12T08:27:24Z</time>
      </trkpt>
      <trkpt lat="43.99088" lon="7.1913">
        <ele>1308.0112305</ele>
        <time>2012-05-12T08:27:29Z</time>
      </trkpt>
      <trkpt lat="43.99099" lon="7.19152">
        <ele>1310.4143066</ele>
        <time>2012-05-12T08:27:45Z</time>
      </trkpt>
      <trkpt lat="43.99107" lon="7.19157">
        <ele>1311.3757324</ele>
        <time>2012-05-12T08:27:54Z</time>
      </trkpt>
      <trkpt lat="43.99118" lon="7.19164">
        <ele>1313.2983398</ele>
        <time>2012-05-12T08:28:03Z</time>
      </trkpt>
      <trkpt lat="43.99118" lon="7.19164">
        <ele>1312.817627</ele>
        <time>2012-05-12T08:28:05Z</time>
      </trkpt>
      <trkpt lat="43.99129" lon="7.19171">
        <ele>1313.7788086</ele>
        <time>2012-05-12T08:28:10Z</time>
      </trkpt>
      <trkpt lat="43.99146" lon="7.19176">
        <ele>1316.1821289</ele>
        <time>2012-05-12T08:28:26Z</time>
      </trkpt>
      <trkpt lat="43.99149" lon="7.19176">
        <ele>1317.1435547</ele>
        <time>2012-05-12T08:28:30Z</time>
      </trkpt>
      <trkpt lat="43.99181" lon="7.19185">
        <ele>1319.546875</ele>
        <time>2012-05-12T08:28:49Z</time>
      </trkpt>
      <trkpt lat="43.99183" lon="7.19186">
        <ele>1319.0661621</ele>
        <time>2012-05-12T08:28:51Z</time>
      </trkpt>
      <trkpt lat="43.99199" lon="7.1919">
        <ele>1320.9887695</ele>
        <time>2012-05-12T08:29:01Z</time>
      </trkpt>
      <trkpt lat="43.99222" lon="7.19196">
        <ele>1322.911377</ele>
        <time>2012-05-12T08:29:23Z</time>
      </trkpt>
      <trkpt lat="43.99229" lon="7.19202">
        <ele>1323.3920898</ele>
        <time>2012-05-12T08:30:40Z</time>
      </trkpt>
      <trkpt lat="43.99232" lon="7.1921">
        <ele>1323.3920898</ele>
        <time>2012-05-12T08:30:44Z</time>
      </trkpt>
      <trkpt lat="43.99234" lon="7.19215">
        <ele>1324.3535156</ele>
        <time>2012-05-12T08:30:47Z</time>
      </trkpt>
      <trkpt lat="43.9924" lon="7.19228">
        <ele>1323.8725586</ele>
        <time>2012-05-12T08:30:53Z</time>
      </trkpt>
      <trkpt lat="43.99266" lon="7.19255">
        <ele>1324.8342285</ele>
        <time>2012-05-12T08:31:08Z</time>
      </trkpt>
      <trkpt lat="43.99294" lon="7.19259">
        <ele>1325.7954102</ele>
        <time>2012-05-12T08:31:20Z</time>
      </trkpt>
      <trkpt lat="43.99325" lon="7.1927">
        <ele>1325.7954102</ele>
        <time>2012-05-12T08:31:33Z</time>
      </trkpt>
      <trkpt lat="43.99348" lon="7.19272">
        <ele>1327.7180176</ele>
        <time>2012-05-12T08:31:45Z</time>
      </trkpt>
      <trkpt lat="43.99351" lon="7.19272">
        <ele>1327.7180176</ele>
        <time>2012-05-12T08:31:47Z</time>
      </trkpt>
      <trkpt lat="43.9938" lon="7.19268">
        <ele>1329.1599121</ele>
        <time>2012-05-12T08:32:03Z</time>
      </trkpt>
      <trkpt lat="43.99417" lon="7.19281">
        <ele>1332.5246582</ele>
        <time>2012-05-12T08:32:21Z</time>
      </trkpt>
      <trkpt lat="43.99451" lon="7.19278">
        <ele>1331.0827637</ele>
        <time>2012-05-12T08:32:35Z</time>
      </trkpt>
      <trkpt lat="43.99502" lon="7.1927">
        <ele>1330.6020508</ele>
        <time>2012-05-12T08:32:50Z</time>
      </trkpt>
      <trkpt lat="43.99536" lon="7.19272">
        <ele>1331.0827637</ele>
        <time>2012-05-12T08:33:02Z</time>
      </trkpt>
      <trkpt lat="43.99571" lon="7.19265">
        <ele>1333.005127</ele>
        <time>2012-05-12T08:33:16Z</time>
      </trkpt>
      <trkpt lat="43.99604" lon="7.19294">
        <ele>1334.9279785</ele>
        <time>2012-05-12T08:33:32Z</time>
      </trkpt>
      <trkpt lat="43.99609" lon="7.19301">
        <ele>1334.9279785</ele>
        <time>2012-05-12T08:33:35Z</time>
      </trkpt>
      <trkpt lat="43.9964" lon="7.19335">
        <ele>1335.4084473</ele>
        <time>2012-05-12T08:33:51Z</time>
      </trkpt>
      <trkpt lat="43.99686" lon="7.1937">
        <ele>1335.4084473</ele>
        <time>2012-05-12T08:34:07Z</time>
      </trkpt>
      <trkpt lat="43.99722" lon="7.19395">
        <ele>1334.4472656</ele>
        <time>2012-05-12T08:34:18Z</time>
      </trkpt>
      <trkpt lat="43.99745" lon="7.19428">
        <ele>1333.4858398</ele>
        <time>2012-05-12T08:34:27Z</time>
      </trkpt>
      <trkpt lat="43.99754" lon="7.19451">
        <ele>1333.005127</ele>
        <time>2012-05-12T08:34:31Z</time>
      </trkpt>
      <trkpt lat="43.99756" lon="7.1947">
        <ele>1332.0439453</ele>
        <time>2012-05-12T08:34:34Z</time>
      </trkpt>
      <trkpt lat="43.99788" lon="7.19541">
        <ele>1333.005127</ele>
        <time>2012-05-12T08:34:51Z</time>
      </trkpt>
      <trkpt lat="43.99827" lon="7.19583">
        <ele>1334.9279785</ele>
        <time>2012-05-12T08:35:07Z</time>
      </trkpt>
      <trkpt lat="43.99871" lon="7.19588">
        <ele>1337.3310547</ele>
        <time>2012-05-12T08:35:21Z</time>
      </trkpt>
      <trkpt lat="43.99909" lon="7.19624">
        <ele>1340.215332</ele>
        <time>2012-05-12T08:35:41Z</time>
      </trkpt>
      <trkpt lat="43.99932" lon="7.19646">
        <ele>1341.1765137</ele>
        <time>2012-05-12T08:35:53Z</time>
      </trkpt>
      <trkpt lat="43.99977" lon="7.19643">
        <ele>1339.2536621</ele>
        <time>2012-05-12T08:36:07Z</time>
      </trkpt>
      <trkpt lat="43.99992" lon="7.19641">
        <ele>1338.2924805</ele>
        <time>2012-05-12T08:36:10Z</time>
      </trkpt>
      <trkpt lat="44.00007" lon="7.19643">
        <ele>1338.2924805</ele>
        <time>2012-05-12T08:36:13Z</time>
      </trkpt>
      <trkpt lat="44.0005" lon="7.19649">
        <ele>1337.8117676</ele>
        <time>2012-05-12T08:36:23Z</time>
      </trkpt>
      <trkpt lat="44.0007" lon="7.1966">
        <ele>1338.2924805</ele>
        <time>2012-05-12T08:36:28Z</time>
      </trkpt>
      <trkpt lat="44.00089" lon="7.19684">
        <ele>1338.7731934</ele>
        <time>2012-05-12T08:36:35Z</time>
      </trkpt>
      <trkpt lat="44.00102" lon="7.19736">
        <ele>1340.215332</ele>
        <time>2012-05-12T08:36:48Z</time>
      </trkpt>
      <trkpt lat="44.00122" lon="7.19786">
        <ele>1340.6958008</ele>
        <time>2012-05-12T08:37:00Z</time>
      </trkpt>
      <trkpt lat="44.00163" lon="7.19816">
        <ele>1343.0991211</ele>
        <time>2012-05-12T08:37:16Z</time>
      </trkpt>
      <trkpt lat="44.00187" lon="7.19821">
        <ele>1344.0605469</ele>
        <time>2012-05-12T08:37:24Z</time>
      </trkpt>
      <trkpt lat="44.00224" lon="7.19817">
        <ele>1345.0217285</ele>
        <time>2012-05-12T08:37:38Z</time>
      </trkpt>
      <trkpt lat="44.00275" lon="7.198">
        <ele>1345.9831543</ele>
        <time>2012-05-12T08:37:55Z</time>
      </trkpt>
      <trkpt lat="44.0029" lon="7.19795">
        <ele>1345.9831543</ele>
        <time>2012-05-12T08:38:00Z</time>
      </trkpt>
      <trkpt lat="44.00295" lon="7.19794">
        <ele>1345.9831543</ele>
        <time>2012-05-12T08:38:02Z</time>
      </trkpt>
      <trkpt lat="44.00303" lon="7.19793">
        <ele>1345.9831543</ele>
        <time>2012-05-12T08:38:05Z</time>
      </trkpt>
      <trkpt lat="44.00347" lon="7.19808">
        <ele>1345.9831543</ele>
        <time>2012-05-12T08:38:18Z</time>
      </trkpt>
      <trkpt lat="44.00356" lon="7.19816">
        <ele>1345.9831543</ele>
        <time>2012-05-12T08:38:22Z</time>
      </trkpt>
      <trkpt lat="44.0038" lon="7.19851">
        <ele>1346.9443359</ele>
        <time>2012-05-12T08:38:37Z</time>
      </trkpt>
      <trkpt lat="44.00401" lon="7.19878">
        <ele>1348.3862305</ele>
        <time>2012-05-12T08:38:51Z</time>
      </trkpt>
      <trkpt lat="44.00404" lon="7.19881">
        <ele>1346.9443359</ele>
        <time>2012-05-12T08:38:53Z</time>
      </trkpt>
      <trkpt lat="44.00413" lon="7.19891">
        <ele>1346.9443359</ele>
        <time>2012-05-12T08:39:09Z</time>
      </trkpt>
      <trkpt lat="44.00413" lon="7.19891">
        <ele>1346.9443359</ele>
        <time>2012-05-12T08:39:43Z</time>
      </trkpt>
      <trkpt lat="44.00413" lon="7.19891">
        <ele>1348.3862305</ele>
        <time>2012-05-12T08:45:44Z</time>
      </trkpt>
      <trkpt lat="44.00385" lon="7.19858">
        <ele>1347.9057617</ele>
        <time>2012-05-12T08:46:00Z</time>
      </trkpt>
      <trkpt lat="44.00364" lon="7.19828">
        <ele>1347.9057617</ele>
        <time>2012-05-12T08:46:15Z</time>
      </trkpt>
      <trkpt lat="44.00346" lon="7.19808">
        <ele>1347.4250488</ele>
        <time>2012-05-12T08:46:25Z</time>
      </trkpt>
      <trkpt lat="44.00302" lon="7.19793">
        <ele>1347.9057617</ele>
        <time>2012-05-12T08:46:42Z</time>
      </trkpt>
      <trkpt lat="44.00292" lon="7.19794">
        <ele>1346.4638672</ele>
        <time>2012-05-12T08:46:46Z</time>
      </trkpt>
      <trkpt lat="44.00286" lon="7.19796">
        <ele>1345.0217285</ele>
        <time>2012-05-12T08:46:48Z</time>
      </trkpt>
      <trkpt lat="44.00276" lon="7.19799">
        <ele>1343.579834</ele>
        <time>2012-05-12T08:46:50Z</time>
      </trkpt>
      <trkpt lat="44.00272" lon="7.19801">
        <ele>1341.6572266</ele>
        <time>2012-05-12T08:46:52Z</time>
      </trkpt>
      <trkpt lat="44.00265" lon="7.19804">
        <ele>1338.2924805</ele>
        <time>2012-05-12T08:46:57Z</time>
      </trkpt>
      <trkpt lat="44.00248" lon="7.19812">
        <ele>1335.8891602</ele>
        <time>2012-05-12T08:46:59Z</time>
      </trkpt>
      <trkpt lat="44.00245" lon="7.19813">
        <ele>1334.4472656</ele>
        <time>2012-05-12T08:47:00Z</time>
      </trkpt>
      <trkpt lat="44.00216" lon="7.19736">
        <ele>1333.9665527</ele>
        <time>2012-05-12T08:47:04Z</time>
      </trkpt>
      <trkpt lat="44.0021" lon="7.19728">
        <ele>1332.0439453</ele>
        <time>2012-05-12T08:47:06Z</time>
      </trkpt>
      <trkpt lat="44.00198" lon="7.19718">
        <ele>1328.6794434</ele>
        <time>2012-05-12T08:47:08Z</time>
      </trkpt>
      <trkpt lat="44.00195" lon="7.19714">
        <ele>1328.6794434</ele>
        <time>2012-05-12T08:47:09Z</time>
      </trkpt>
      <trkpt lat="44.00192" lon="7.19711">
        <ele>1326.7568359</ele>
        <time>2012-05-12T08:47:10Z</time>
      </trkpt>
      <trkpt lat="44.00188" lon="7.19698">
        <ele>1324.8342285</ele>
        <time>2012-05-12T08:47:13Z</time>
      </trkpt>
      <trkpt lat="44.00188" lon="7.19693">
        <ele>1322.911377</ele>
        <time>2012-05-12T08:47:14Z</time>
      </trkpt>
      <trkpt lat="44.00184" lon="7.19686">
        <ele>1320.5080566</ele>
        <time>2012-05-12T08:47:16Z</time>
      </trkpt>
      <trkpt lat="44.00178" lon="7.1968">
        <ele>1319.0661621</ele>
        <time>2012-05-12T08:47:18Z</time>
      </trkpt>
      <trkpt lat="44.00174" lon="7.19672">
        <ele>1317.6240234</ele>
        <time>2012-05-12T08:47:20Z</time>
      </trkpt>
      <trkpt lat="44.00168" lon="7.19656">
        <ele>1314.7402344</ele>
        <time>2012-05-12T08:47:23Z</time>
      </trkpt>
      <trkpt lat="44.00163" lon="7.19617">
        <ele>1310.4143066</ele>
        <time>2012-05-12T08:47:28Z</time>
      </trkpt>
      <trkpt lat="44.00162" lon="7.19613">
        <ele>1308.4916992</ele>
        <time>2012-05-12T08:47:29Z</time>
      </trkpt>
      <trkpt lat="44.00168" lon="7.19612">
        <ele>1306.5688477</ele>
        <time>2012-05-12T08:47:34Z</time>
      </trkpt>
      <trkpt lat="44.0017" lon="7.19599">
        <ele>1303.6850586</ele>
        <time>2012-05-12T08:47:39Z</time>
      </trkpt>
      <trkpt lat="44.00168" lon="7.19598">
        <ele>1302.2429199</ele>
        <time>2012-05-12T08:47:41Z</time>
      </trkpt>
      <trkpt lat="44.00177" lon="7.19603">
        <ele>1298.878418</ele>
        <time>2012-05-12T08:47:46Z</time>
      </trkpt>
      <trkpt lat="44.00184" lon="7.19607">
        <ele>1296.9558105</ele>
        <time>2012-05-12T08:47:48Z</time>
      </trkpt>
      <trkpt lat="44.00187" lon="7.19612">
        <ele>1295.0332031</ele>
        <time>2012-05-12T08:47:50Z</time>
      </trkpt>
      <trkpt lat="44.00189" lon="7.19608">
        <ele>1293.5913086</ele>
        <time>2012-05-12T08:47:53Z</time>
      </trkpt>
      <trkpt lat="44.00188" lon="7.19603">
        <ele>1291.668457</ele>
        <time>2012-05-12T08:47:55Z</time>
      </trkpt>
      <trkpt lat="44.00188" lon="7.19587">
        <ele>1287.8232422</ele>
        <time>2012-05-12T08:47:59Z</time>
      </trkpt>
      <trkpt lat="44.00189" lon="7.19584">
        <ele>1287.8232422</ele>
        <time>2012-05-12T08:48:00Z</time>
      </trkpt>
      <trkpt lat="44.00192" lon="7.19577">
        <ele>1286.3813477</ele>
        <time>2012-05-12T08:48:02Z</time>
      </trkpt>
      <trkpt lat="44.00194" lon="7.19574">
        <ele>1283.9780273</ele>
        <time>2012-05-12T08:48:03Z</time>
      </trkpt>
      <trkpt lat="44.00201" lon="7.19573">
        <ele>1281.574707</ele>
        <time>2012-05-12T08:48:06Z</time>
      </trkpt>
      <trkpt lat="44.00205" lon="7.19566">
        <ele>1280.6135254</ele>
        <time>2012-05-12T08:48:08Z</time>
      </trkpt>
      <trkpt lat="44.00202" lon="7.19553">
        <ele>1278.690918</ele>
        <time>2012-05-12T08:48:11Z</time>
      </trkpt>
      <trkpt lat="44.002" lon="7.19549">
        <ele>1277.2490234</ele>
        <time>2012-05-12T08:48:12Z</time>
      </trkpt>
      <trkpt lat="44.002" lon="7.19543">
        <ele>1276.2875977</ele>
        <time>2012-05-12T08:48:14Z</time>
      </trkpt>
      <trkpt lat="44.00202" lon="7.19541">
        <ele>1274.845459</ele>
        <time>2012-05-12T08:48:15Z</time>
      </trkpt>
      <trkpt lat="44.00203" lon="7.19538">
        <ele>1273.8840332</ele>
        <time>2012-05-12T08:48:17Z</time>
      </trkpt>
      <trkpt lat="44.00206" lon="7.19539">
        <ele>1271.9614258</ele>
        <time>2012-05-12T08:48:19Z</time>
      </trkpt>
      <trkpt lat="44.00209" lon="7.19527">
        <ele>1269.0776367</ele>
        <time>2012-05-12T08:48:23Z</time>
      </trkpt>
      <trkpt lat="44.00209" lon="7.19524">
        <ele>1268.5969238</ele>
        <time>2012-05-12T08:48:24Z</time>
      </trkpt>
      <trkpt lat="44.0023" lon="7.19465">
        <ele>1266.1936035</ele>
        <time>2012-05-12T08:48:28Z</time>
      </trkpt>
      <trkpt lat="44.00223" lon="7.19455">
        <ele>1264.2709961</ele>
        <time>2012-05-12T08:48:30Z</time>
      </trkpt>
      <trkpt lat="44.0022" lon="7.19452">
        <ele>1261.8679199</ele>
        <time>2012-05-12T08:48:32Z</time>
      </trkpt>
      <trkpt lat="44.0022" lon="7.19452">
        <ele>1259.4643555</ele>
        <time>2012-05-12T08:48:33Z</time>
      </trkpt>
      <trkpt lat="44.00204" lon="7.19434">
        <ele>1257.0610352</ele>
        <time>2012-05-12T08:48:39Z</time>
      </trkpt>
      <trkpt lat="44.00189" lon="7.19421">
        <ele>1252.7351074</ele>
        <time>2012-05-12T08:48:43Z</time>
      </trkpt>
      <trkpt lat="44.00186" lon="7.1942">
        <ele>1252.7351074</ele>
        <time>2012-05-12T08:48:44Z</time>
      </trkpt>
      <trkpt lat="44.00177" lon="7.19402">
        <ele>1251.2932129</ele>
        <time>2012-05-12T08:48:46Z</time>
      </trkpt>
      <trkpt lat="44.00168" lon="7.19413">
        <ele>1249.8513184</ele>
        <time>2012-05-12T08:48:48Z</time>
      </trkpt>
      <trkpt lat="44.00163" lon="7.19405">
        <ele>1246.4868164</ele>
        <time>2012-05-12T08:48:50Z</time>
      </trkpt>
      <trkpt lat="44.00162" lon="7.194">
        <ele>1246.4868164</ele>
        <time>2012-05-12T08:48:51Z</time>
      </trkpt>
      <trkpt lat="44.00162" lon="7.19395">
        <ele>1245.5253906</ele>
        <time>2012-05-12T08:48:52Z</time>
      </trkpt>
      <trkpt lat="44.00164" lon="7.19384">
        <ele>1243.6025391</ele>
        <time>2012-05-12T08:48:55Z</time>
      </trkpt>
      <trkpt lat="44.00165" lon="7.19381">
        <ele>1242.1606445</ele>
        <time>2012-05-12T08:48:56Z</time>
      </trkpt>
      <trkpt lat="44.00159" lon="7.19371">
        <ele>1239.2766113</ele>
        <time>2012-05-12T08:48:59Z</time>
      </trkpt>
      <trkpt lat="44.00151" lon="7.19366">
        <ele>1237.8347168</ele>
        <time>2012-05-12T08:49:02Z</time>
      </trkpt>
      <trkpt lat="44.0015" lon="7.19362">
        <ele>1235.9121094</ele>
        <time>2012-05-12T08:49:03Z</time>
      </trkpt>
      <trkpt lat="44.00154" lon="7.19349">
        <ele>1233.5087891</ele>
        <time>2012-05-12T08:49:07Z</time>
      </trkpt>
      <trkpt lat="44.00158" lon="7.19349">
        <ele>1232.0668945</ele>
        <time>2012-05-12T08:49:10Z</time>
      </trkpt>
      <trkpt lat="44.00165" lon="7.19346">
        <ele>1229.1828613</ele>
        <time>2012-05-12T08:49:13Z</time>
      </trkpt>
      <trkpt lat="44.00165" lon="7.19331">
        <ele>1225.8181152</ele>
        <time>2012-05-12T08:49:19Z</time>
      </trkpt>
      <trkpt lat="44.00162" lon="7.19322">
        <ele>1224.3762207</ele>
        <time>2012-05-12T08:49:21Z</time>
      </trkpt>
      <trkpt lat="44.00161" lon="7.19312">
        <ele>1222.4536133</ele>
        <time>2012-05-12T08:49:23Z</time>
      </trkpt>
      <trkpt lat="44.00156" lon="7.19304">
        <ele>1220.5310059</ele>
        <time>2012-05-12T08:49:25Z</time>
      </trkpt>
      <trkpt lat="44.00147" lon="7.19295">
        <ele>1218.1276855</ele>
        <time>2012-05-12T08:49:28Z</time>
      </trkpt>
      <trkpt lat="44.00143" lon="7.19292">
        <ele>1216.685791</ele>
        <time>2012-05-12T08:49:30Z</time>
      </trkpt>
      <trkpt lat="44.00143" lon="7.1929">
        <ele>1216.2050781</ele>
        <time>2012-05-12T08:49:31Z</time>
      </trkpt>
      <trkpt lat="44.00144" lon="7.19286">
        <ele>1214.7631836</ele>
        <time>2012-05-12T08:49:33Z</time>
      </trkpt>
      <trkpt lat="44.00145" lon="7.19279">
        <ele>1213.3212891</ele>
        <time>2012-05-12T08:49:35Z</time>
      </trkpt>
      <trkpt lat="44.00151" lon="7.19279">
        <ele>1211.8791504</ele>
        <time>2012-05-12T08:49:37Z</time>
      </trkpt>
      <trkpt lat="44.0016" lon="7.19278">
        <ele>1208.5144043</ele>
        <time>2012-05-12T08:49:41Z</time>
      </trkpt>
      <trkpt lat="44.00174" lon="7.19286">
        <ele>1206.111084</ele>
        <time>2012-05-12T08:49:44Z</time>
      </trkpt>
      <trkpt lat="44.00178" lon="7.19282">
        <ele>1204.6691895</ele>
        <time>2012-05-12T08:49:46Z</time>
      </trkpt>
      <trkpt lat="44.0018" lon="7.19281">
        <ele>1204.1887207</ele>
        <time>2012-05-12T08:49:57Z</time>
      </trkpt>
      <trkpt lat="44.0018" lon="7.19281">
        <ele>1203.7080078</ele>
        <time>2012-05-12T08:50:57Z</time>
      </trkpt>
      <trkpt lat="44.00188" lon="7.19262">
        <ele>1200.8239746</ele>
        <time>2012-05-12T08:51:02Z</time>
      </trkpt>
      <trkpt lat="44.00194" lon="7.19245">
        <ele>1198.9013672</ele>
        <time>2012-05-12T08:51:05Z</time>
      </trkpt>
      <trkpt lat="44.00198" lon="7.19234">
        <ele>1196.0175781</ele>
        <time>2012-05-12T08:51:07Z</time>
      </trkpt>
      <trkpt lat="44.00198" lon="7.19224">
        <ele>1193.1333008</ele>
        <time>2012-05-12T08:51:09Z</time>
      </trkpt>
      <trkpt lat="44.00199" lon="7.19217">
        <ele>1193.1333008</ele>
        <time>2012-05-12T08:51:10Z</time>
      </trkpt>
      <trkpt lat="44.00204" lon="7.1921">
        <ele>1190.7299805</ele>
        <time>2012-05-12T08:51:14Z</time>
      </trkpt>
      <trkpt lat="44.00215" lon="7.19195">
        <ele>1189.7687988</ele>
        <time>2012-05-12T08:51:16Z</time>
      </trkpt>
      <trkpt lat="44.00218" lon="7.19185">
        <ele>1186.8847656</ele>
        <time>2012-05-12T08:51:19Z</time>
      </trkpt>
      <trkpt lat="44.00218" lon="7.19174">
        <ele>1184.4816895</ele>
        <time>2012-05-12T08:51:21Z</time>
      </trkpt>
      <trkpt lat="44.00218" lon="7.19163">
        <ele>1182.559082</ele>
        <time>2012-05-12T08:51:23Z</time>
      </trkpt>
      <trkpt lat="44.00218" lon="7.19149">
        <ele>1180.1557617</ele>
        <time>2012-05-12T08:51:26Z</time>
      </trkpt>
      <trkpt lat="44.0022" lon="7.19149">
        <ele>1177.7521973</ele>
        <time>2012-05-12T08:51:30Z</time>
      </trkpt>
      <trkpt lat="44.0022" lon="7.19151">
        <ele>1176.7910156</ele>
        <time>2012-05-12T08:51:31Z</time>
      </trkpt>
      <trkpt lat="44.00222" lon="7.1915">
        <ele>1175.8295898</ele>
        <time>2012-05-12T08:51:33Z</time>
      </trkpt>
      <trkpt lat="44.00223" lon="7.19133">
        <ele>1173.4265137</ele>
        <time>2012-05-12T08:51:37Z</time>
      </trkpt>
      <trkpt lat="44.00223" lon="7.19128">
        <ele>1172.9458008</ele>
        <time>2012-05-12T08:51:38Z</time>
      </trkpt>
      <trkpt lat="44.00226" lon="7.19101">
        <ele>1171.5036621</ele>
        <time>2012-05-12T08:51:44Z</time>
      </trkpt>
      <trkpt lat="44.00224" lon="7.19091">
        <ele>1169.1005859</ele>
        <time>2012-05-12T08:51:47Z</time>
      </trkpt>
      <trkpt lat="44.00223" lon="7.19087">
        <ele>1167.6584473</ele>
        <time>2012-05-12T08:51:48Z</time>
      </trkpt>
      <trkpt lat="44.00215" lon="7.19078">
        <ele>1166.2165527</ele>
        <time>2012-05-12T08:51:51Z</time>
      </trkpt>
      <trkpt lat="44.00212" lon="7.19079">
        <ele>1164.7746582</ele>
        <time>2012-05-12T08:51:53Z</time>
      </trkpt>
      <trkpt lat="44.00214" lon="7.19069">
        <ele>1163.3325195</ele>
        <time>2012-05-12T08:52:01Z</time>
      </trkpt>
      <trkpt lat="44.00218" lon="7.19065">
        <ele>1163.3325195</ele>
        <time>2012-05-12T08:52:03Z</time>
      </trkpt>
      <trkpt lat="44.00216" lon="7.19058">
        <ele>1161.4099121</ele>
        <time>2012-05-12T08:52:07Z</time>
      </trkpt>
      <trkpt lat="44.00211" lon="7.19059">
        <ele>1159.0065918</ele>
        <time>2012-05-12T08:52:10Z</time>
      </trkpt>
      <trkpt lat="44.00209" lon="7.19056">
        <ele>1157.5646973</ele>
        <time>2012-05-12T08:52:12Z</time>
      </trkpt>
      <trkpt lat="44.00207" lon="7.19056">
        <ele>1156.6032715</ele>
        <time>2012-05-12T08:52:13Z</time>
      </trkpt>
      <trkpt lat="44.00203" lon="7.19058">
        <ele>1155.6420898</ele>
        <time>2012-05-12T08:52:15Z</time>
      </trkpt>
      <trkpt lat="44.00201" lon="7.19055">
        <ele>1154.2001953</ele>
        <time>2012-05-12T08:52:17Z</time>
      </trkpt>
      <trkpt lat="44.00202" lon="7.19053">
        <ele>1153.2387695</ele>
        <time>2012-05-12T08:52:19Z</time>
      </trkpt>
      <trkpt lat="44.00205" lon="7.19047">
        <ele>1152.7580566</ele>
        <time>2012-05-12T08:52:21Z</time>
      </trkpt>
      <trkpt lat="44.00212" lon="7.19042">
        <ele>1149.8742676</ele>
        <time>2012-05-12T08:52:24Z</time>
      </trkpt>
      <trkpt lat="44.00219" lon="7.19033">
        <ele>1146.9899902</ele>
        <time>2012-05-12T08:52:30Z</time>
      </trkpt>
      <trkpt lat="44.00208" lon="7.19032">
        <ele>1143.1447754</ele>
        <time>2012-05-12T08:52:34Z</time>
      </trkpt>
      <trkpt lat="44.00205" lon="7.19031">
        <ele>1143.1447754</ele>
        <time>2012-05-12T08:52:35Z</time>
      </trkpt>
      <trkpt lat="44.00204" lon="7.19029">
        <ele>1142.6643066</ele>
        <time>2012-05-12T08:52:37Z</time>
      </trkpt>
      <trkpt lat="44.00207" lon="7.19026">
        <ele>1140.7414551</ele>
        <time>2012-05-12T08:52:39Z</time>
      </trkpt>
      <trkpt lat="44.00209" lon="7.19019">
        <ele>1139.7802734</ele>
        <time>2012-05-12T08:52:42Z</time>
      </trkpt>
      <trkpt lat="44.00208" lon="7.19004">
        <ele>1135.4543457</ele>
        <time>2012-05-12T08:52:46Z</time>
      </trkpt>
      <trkpt lat="44.00209" lon="7.19003">
        <ele>1135.4543457</ele>
        <time>2012-05-12T08:52:47Z</time>
      </trkpt>
      <trkpt lat="44.00212" lon="7.19003">
        <ele>1134.4931641</ele>
        <time>2012-05-12T08:52:49Z</time>
      </trkpt>
      <trkpt lat="44.00225" lon="7.1899">
        <ele>1130.6477051</ele>
        <time>2012-05-12T08:52:53Z</time>
      </trkpt>
      <trkpt lat="44.00229" lon="7.18988">
        <ele>1130.6477051</ele>
        <time>2012-05-12T08:52:54Z</time>
      </trkpt>
      <trkpt lat="44.00236" lon="7.18985">
        <ele>1128.7250977</ele>
        <time>2012-05-12T08:52:56Z</time>
      </trkpt>
      <trkpt lat="44.00241" lon="7.18981">
        <ele>1125.3603516</ele>
        <time>2012-05-12T08:53:00Z</time>
      </trkpt>
      <trkpt lat="44.00241" lon="7.18977">
        <ele>1125.3603516</ele>
        <time>2012-05-12T08:53:01Z</time>
      </trkpt>
      <trkpt lat="44.00239" lon="7.18971">
        <ele>1123.4379883</ele>
        <time>2012-05-12T08:53:03Z</time>
      </trkpt>
      <trkpt lat="44.00239" lon="7.1897">
        <ele>1121.034668</ele>
        <time>2012-05-12T08:53:06Z</time>
      </trkpt>
      <trkpt lat="44.00246" lon="7.18975">
        <ele>1119.1120605</ele>
        <time>2012-05-12T08:53:10Z</time>
      </trkpt>
      <trkpt lat="44.00247" lon="7.18959">
        <ele>1116.7087402</ele>
        <time>2012-05-12T08:53:15Z</time>
      </trkpt>
      <trkpt lat="44.00246" lon="7.18954">
        <ele>1114.3051758</ele>
        <time>2012-05-12T08:53:16Z</time>
      </trkpt>
      <trkpt lat="44.00236" lon="7.18945">
        <ele>1111.4213867</ele>
        <time>2012-05-12T08:53:19Z</time>
      </trkpt>
      <trkpt lat="44.00232" lon="7.18941">
        <ele>1109.4987793</ele>
        <time>2012-05-12T08:53:21Z</time>
      </trkpt>
      <trkpt lat="44.0023" lon="7.18938">
        <ele>1108.0568848</ele>
        <time>2012-05-12T08:53:22Z</time>
      </trkpt>
      <trkpt lat="44.00226" lon="7.18937">
        <ele>1106.6147461</ele>
        <time>2012-05-12T08:53:24Z</time>
      </trkpt>
      <trkpt lat="44.00208" lon="7.18926">
        <ele>1103.730957</ele>
        <time>2012-05-12T08:53:29Z</time>
      </trkpt>
      <trkpt lat="44.00207" lon="7.18926">
        <ele>1102.7695313</ele>
        <time>2012-05-12T08:53:33Z</time>
      </trkpt>
      <trkpt lat="44.00211" lon="7.18926">
        <ele>1101.3276367</ele>
        <time>2012-05-12T08:53:36Z</time>
      </trkpt>
      <trkpt lat="44.00219" lon="7.18928">
        <ele>1099.885498</ele>
        <time>2012-05-12T08:53:38Z</time>
      </trkpt>
      <trkpt lat="44.00227" lon="7.18932">
        <ele>1098.9240723</ele>
        <time>2012-05-12T08:53:40Z</time>
      </trkpt>
      <trkpt lat="44.00249" lon="7.18901">
        <ele>1096.5209961</ele>
        <time>2012-05-12T08:53:44Z</time>
      </trkpt>
      <trkpt lat="44.00259" lon="7.18899">
        <ele>1094.1176758</ele>
        <time>2012-05-12T08:53:48Z</time>
      </trkpt>
      <trkpt lat="44.0026" lon="7.18901">
        <ele>1093.15625</ele>
        <time>2012-05-12T08:53:52Z</time>
      </trkpt>
      <trkpt lat="44.00255" lon="7.18901">
        <ele>1091.7143555</ele>
        <time>2012-05-12T08:53:55Z</time>
      </trkpt>
      <trkpt lat="44.00252" lon="7.18897">
        <ele>1090.7529297</ele>
        <time>2012-05-12T08:53:57Z</time>
      </trkpt>
      <trkpt lat="44.00248" lon="7.18896">
        <ele>1089.3110352</ele>
        <time>2012-05-12T08:53:59Z</time>
      </trkpt>
      <trkpt lat="44.00248" lon="7.18895">
        <ele>1088.8305664</ele>
        <time>2012-05-12T08:54:06Z</time>
      </trkpt>
      <trkpt lat="44.00259" lon="7.18891">
        <ele>1086.4272461</ele>
        <time>2012-05-12T08:54:18Z</time>
      </trkpt>
      <trkpt lat="44.00278" lon="7.18889">
        <ele>1084.5046387</ele>
        <time>2012-05-12T08:54:22Z</time>
      </trkpt>
      <trkpt lat="44.00281" lon="7.1889">
        <ele>1083.5429688</ele>
        <time>2012-05-12T08:54:23Z</time>
      </trkpt>
      <trkpt lat="44.0028" lon="7.18884">
        <ele>1081.6203613</ele>
        <time>2012-05-12T08:54:28Z</time>
      </trkpt>
      <trkpt lat="44.00271" lon="7.18881">
        <ele>1080.1784668</ele>
        <time>2012-05-12T08:54:31Z</time>
      </trkpt>
      <trkpt lat="44.00265" lon="7.18879">
        <ele>1078.7365723</ele>
        <time>2012-05-12T08:54:33Z</time>
      </trkpt>
      <trkpt lat="44.0026" lon="7.18877">
        <ele>1076.333252</ele>
        <time>2012-05-12T08:54:35Z</time>
      </trkpt>
      <trkpt lat="44.00261" lon="7.18874">
        <ele>1074.8913574</ele>
        <time>2012-05-12T08:54:39Z</time>
      </trkpt>
      <trkpt lat="44.00266" lon="7.1887">
        <ele>1073.4494629</ele>
        <time>2012-05-12T08:54:42Z</time>
      </trkpt>
      <trkpt lat="44.00264" lon="7.18867">
        <ele>1071.5266113</ele>
        <time>2012-05-12T08:54:45Z</time>
      </trkpt>
      <trkpt lat="44.0026" lon="7.18867">
        <ele>1070.5654297</ele>
        <time>2012-05-12T08:54:46Z</time>
      </trkpt>
      <trkpt lat="44.00255" lon="7.18863">
        <ele>1068.6428223</ele>
        <time>2012-05-12T08:55:00Z</time>
      </trkpt>
      <trkpt lat="44.00254" lon="7.18862">
        <ele>1068.6428223</ele>
        <time>2012-05-12T08:56:25Z</time>
      </trkpt>
      <trkpt lat="44.00254" lon="7.18862">
        <ele>1068.6428223</ele>
        <time>2012-05-12T08:56:33Z</time>
      </trkpt>
      <trkpt lat="44.00245" lon="7.18863">
        <ele>1067.6811523</ele>
        <time>2012-05-12T08:56:38Z</time>
      </trkpt>
      <trkpt lat="44.00235" lon="7.1886">
        <ele>1065.2780762</ele>
        <time>2012-05-12T08:56:41Z</time>
      </trkpt>
      <trkpt lat="44.00233" lon="7.18859">
        <ele>1064.7973633</ele>
        <time>2012-05-12T08:56:42Z</time>
      </trkpt>
      <trkpt lat="44.00229" lon="7.18857">
        <ele>1063.3554688</ele>
        <time>2012-05-12T08:56:46Z</time>
      </trkpt>
      <trkpt lat="44.00233" lon="7.18855">
        <ele>1062.394043</ele>
        <time>2012-05-12T08:56:48Z</time>
      </trkpt>
      <trkpt lat="44.00247" lon="7.18849">
        <ele>1060.4714355</ele>
        <time>2012-05-12T08:56:51Z</time>
      </trkpt>
      <trkpt lat="44.00265" lon="7.18826">
        <ele>1056.6262207</ele>
        <time>2012-05-12T08:56:58Z</time>
      </trkpt>
      <trkpt lat="44.00265" lon="7.18826">
        <ele>1056.6262207</ele>
        <time>2012-05-12T08:56:59Z</time>
      </trkpt>
      <trkpt lat="44.00259" lon="7.18826">
        <ele>1053.7424316</ele>
        <time>2012-05-12T08:57:04Z</time>
      </trkpt>
      <trkpt lat="44.00254" lon="7.18826">
        <ele>1052.300293</ele>
        <time>2012-05-12T08:57:06Z</time>
      </trkpt>
      <trkpt lat="44.00252" lon="7.18826">
        <ele>1049.4162598</ele>
        <time>2012-05-12T08:57:11Z</time>
      </trkpt>
      <trkpt lat="44.00291" lon="7.18799">
        <ele>1045.090332</ele>
        <time>2012-05-12T08:57:23Z</time>
      </trkpt>
      <trkpt lat="44.00305" lon="7.18821">
        <ele>1043.6484375</ele>
        <time>2012-05-12T08:57:25Z</time>
      </trkpt>
      <trkpt lat="44.00309" lon="7.18824">
        <ele>1042.6872559</ele>
        <time>2012-05-12T08:57:27Z</time>
      </trkpt>
      <trkpt lat="44.00313" lon="7.18809">
        <ele>1039.3225098</ele>
        <time>2012-05-12T08:57:32Z</time>
      </trkpt>
      <trkpt lat="44.00311" lon="7.18806">
        <ele>1037.3999023</ele>
        <time>2012-05-12T08:57:33Z</time>
      </trkpt>
      <trkpt lat="44.00308" lon="7.18799">
        <ele>1035.9577637</ele>
        <time>2012-05-12T08:57:36Z</time>
      </trkpt>
      <trkpt lat="44.00304" lon="7.18793">
        <ele>1033.0737305</ele>
        <time>2012-05-12T08:57:39Z</time>
      </trkpt>
      <trkpt lat="44.00293" lon="7.18793">
        <ele>1032.1125488</ele>
        <time>2012-05-12T08:57:40Z</time>
      </trkpt>
      <trkpt lat="44.00293" lon="7.18793">
        <ele>1029.2285156</ele>
        <time>2012-05-12T08:57:47Z</time>
      </trkpt>
      <trkpt lat="44.00297" lon="7.18774">
        <ele>1029.2285156</ele>
        <time>2012-05-12T08:57:50Z</time>
      </trkpt>
      <trkpt lat="44.00302" lon="7.18771">
        <ele>1027.7866211</ele>
        <time>2012-05-12T08:57:52Z</time>
      </trkpt>
      <trkpt lat="44.00307" lon="7.18771">
        <ele>1025.3833008</ele>
        <time>2012-05-12T08:57:55Z</time>
      </trkpt>
      <trkpt lat="44.00293" lon="7.18776">
        <ele>1021.5380859</ele>
        <time>2012-05-12T08:58:00Z</time>
      </trkpt>
      <trkpt lat="44.00285" lon="7.1878">
        <ele>1020.0961914</ele>
        <time>2012-05-12T08:58:02Z</time>
      </trkpt>
      <trkpt lat="44.0028" lon="7.18781">
        <ele>1018.1733398</ele>
        <time>2012-05-12T08:58:03Z</time>
      </trkpt>
      <trkpt lat="44.00252" lon="7.1873">
        <ele>1014.8088379</ele>
        <time>2012-05-12T08:58:08Z</time>
      </trkpt>
      <trkpt lat="44.0025" lon="7.18731">
        <ele>1013.3669434</ele>
        <time>2012-05-12T08:58:30Z</time>
      </trkpt>
      <trkpt lat="44.0025" lon="7.18731">
        <ele>1013.8474121</ele>
        <time>2012-05-12T08:59:58Z</time>
      </trkpt>
      <trkpt lat="44.00266" lon="7.18731">
        <ele>1011.4443359</ele>
        <time>2012-05-12T09:00:04Z</time>
      </trkpt>
      <trkpt lat="44.00271" lon="7.18731">
        <ele>1008.079834</ele>
        <time>2012-05-12T09:00:06Z</time>
      </trkpt>
      <trkpt lat="44.00276" lon="7.18722">
        <ele>1006.6376953</ele>
        <time>2012-05-12T09:00:09Z</time>
      </trkpt>
      <trkpt lat="44.00278" lon="7.18717">
        <ele>1004.7150879</ele>
        <time>2012-05-12T09:00:11Z</time>
      </trkpt>
      <trkpt lat="44.00276" lon="7.18715">
        <ele>1003.2729492</ele>
        <time>2012-05-12T09:00:14Z</time>
      </trkpt>
      <trkpt lat="44.00274" lon="7.1871">
        <ele>1001.8310547</ele>
        <time>2012-05-12T09:00:16Z</time>
      </trkpt>
      <trkpt lat="44.00272" lon="7.18706">
        <ele>999.9084473</ele>
        <time>2012-05-12T09:00:18Z</time>
      </trkpt>
      <trkpt lat="44.00274" lon="7.18701">
        <ele>997.9858398</ele>
        <time>2012-05-12T09:00:21Z</time>
      </trkpt>
      <trkpt lat="44.00274" lon="7.18696">
        <ele>996.0632324</ele>
        <time>2012-05-12T09:00:25Z</time>
      </trkpt>
      <trkpt lat="44.00259" lon="7.18686">
        <ele>992.6987305</ele>
        <time>2012-05-12T09:00:29Z</time>
      </trkpt>
      <trkpt lat="44.00263" lon="7.18685">
        <ele>990.2954102</ele>
        <time>2012-05-12T09:00:33Z</time>
      </trkpt>
      <trkpt lat="44.00273" lon="7.18675">
        <ele>987.4111328</ele>
        <time>2012-05-12T09:00:36Z</time>
      </trkpt>
      <trkpt lat="44.00273" lon="7.18675">
        <ele>986.9304199</ele>
        <time>2012-05-12T09:00:38Z</time>
      </trkpt>
      <trkpt lat="44.00288" lon="7.18676">
        <ele>985.4885254</ele>
        <time>2012-05-12T09:00:41Z</time>
      </trkpt>
      <trkpt lat="44.0027" lon="7.18664">
        <ele>983.0852051</ele>
        <time>2012-05-12T09:00:46Z</time>
      </trkpt>
      <trkpt lat="44.00282" lon="7.18661">
        <ele>979.7207031</ele>
        <time>2012-05-12T09:00:51Z</time>
      </trkpt>
      <trkpt lat="44.00283" lon="7.18659">
        <ele>978.7595215</ele>
        <time>2012-05-12T09:00:53Z</time>
      </trkpt>
      <trkpt lat="44.0029" lon="7.18632">
        <ele>974.4335938</ele>
        <time>2012-05-12T09:00:57Z</time>
      </trkpt>
      <trkpt lat="44.00295" lon="7.18632">
        <ele>974.4335938</ele>
        <time>2012-05-12T09:00:58Z</time>
      </trkpt>
      <trkpt lat="44.00303" lon="7.18632">
        <ele>972.9916992</ele>
        <time>2012-05-12T09:01:00Z</time>
      </trkpt>
      <trkpt lat="44.00306" lon="7.18632">
        <ele>971.0688477</ele>
        <time>2012-05-12T09:01:05Z</time>
      </trkpt>
      <trkpt lat="44.00306" lon="7.18632">
        <ele>969.6269531</ele>
        <time>2012-05-12T09:01:07Z</time>
      </trkpt>
      <trkpt lat="44.0032" lon="7.18649">
        <ele>967.7041016</ele>
        <time>2012-05-12T09:01:13Z</time>
      </trkpt>
      <trkpt lat="44.00314" lon="7.1864">
        <ele>966.262207</ele>
        <time>2012-05-12T09:01:17Z</time>
      </trkpt>
      <trkpt lat="44.00318" lon="7.18639">
        <ele>964.3395996</ele>
        <time>2012-05-12T09:01:21Z</time>
      </trkpt>
      <trkpt lat="44.00329" lon="7.18636">
        <ele>960.9750977</ele>
        <time>2012-05-12T09:01:25Z</time>
      </trkpt>
      <trkpt lat="44.00339" lon="7.1864">
        <ele>958.5717773</ele>
        <time>2012-05-12T09:01:28Z</time>
      </trkpt>
      <trkpt lat="44.00346" lon="7.18642">
        <ele>956.6491699</ele>
        <time>2012-05-12T09:01:30Z</time>
      </trkpt>
      <trkpt lat="44.0035" lon="7.18644">
        <ele>954.7263184</ele>
        <time>2012-05-12T09:01:31Z</time>
      </trkpt>
      <trkpt lat="44.00369" lon="7.18638">
        <ele>951.3618164</ele>
        <time>2012-05-12T09:01:34Z</time>
      </trkpt>
      <trkpt lat="44.00375" lon="7.18645">
        <ele>951.3618164</ele>
        <time>2012-05-12T09:01:35Z</time>
      </trkpt>
      <trkpt lat="44.00381" lon="7.18654">
        <ele>949.439209</ele>
        <time>2012-05-12T09:01:37Z</time>
      </trkpt>
      <trkpt lat="44.00388" lon="7.18662">
        <ele>948.4777832</ele>
        <time>2012-05-12T09:01:39Z</time>
      </trkpt>
      <trkpt lat="44.00392" lon="7.18669">
        <ele>945.5939941</ele>
        <time>2012-05-12T09:01:42Z</time>
      </trkpt>
      <trkpt lat="44.00392" lon="7.18669">
        <ele>945.1132813</ele>
        <time>2012-05-12T09:01:47Z</time>
      </trkpt>
      <trkpt lat="44.00407" lon="7.18672">
        <ele>943.1906738</ele>
        <time>2012-05-12T09:01:51Z</time>
      </trkpt>
      <trkpt lat="44.00407" lon="7.18676">
        <ele>942.2294922</ele>
        <time>2012-05-12T09:02:10Z</time>
      </trkpt>
      <trkpt lat="44.00407" lon="7.18677">
        <ele>942.2294922</ele>
        <time>2012-05-12T09:03:19Z</time>
      </trkpt>
      <trkpt lat="44.00406" lon="7.18677">
        <ele>942.2294922</ele>
        <time>2012-05-12T09:03:42Z</time>
      </trkpt>
      <trkpt lat="44.00408" lon="7.18684">
        <ele>942.7102051</ele>
        <time>2012-05-12T09:03:46Z</time>
      </trkpt>
      <trkpt lat="44.00402" lon="7.18728">
        <ele>945.1132813</ele>
        <time>2012-05-12T09:04:01Z</time>
      </trkpt>
      <trkpt lat="44.00412" lon="7.18762">
        <ele>946.074707</ele>
        <time>2012-05-12T09:04:15Z</time>
      </trkpt>
      <trkpt lat="44.00413" lon="7.18771">
        <ele>946.5554199</ele>
        <time>2012-05-12T09:04:19Z</time>
      </trkpt>
      <trkpt lat="44.00413" lon="7.18779">
        <ele>947.0358887</ele>
        <time>2012-05-12T09:04:22Z</time>
      </trkpt>
      <trkpt lat="44.00423" lon="7.18847">
        <ele>950.4006348</ele>
        <time>2012-05-12T09:04:49Z</time>
      </trkpt>
      <trkpt lat="44.00415" lon="7.18888">
        <ele>950.4006348</ele>
        <time>2012-05-12T09:05:02Z</time>
      </trkpt>
      <trkpt lat="44.00421" lon="7.18956">
        <ele>950.8811035</ele>
        <time>2012-05-12T09:05:20Z</time>
      </trkpt>
      <trkpt lat="44.00434" lon="7.18966">
        <ele>951.3618164</ele>
        <time>2012-05-12T09:05:25Z</time>
      </trkpt>
      <trkpt lat="44.00472" lon="7.18952">
        <ele>951.3618164</ele>
        <time>2012-05-12T09:05:38Z</time>
      </trkpt>
      <trkpt lat="44.00494" lon="7.18952">
        <ele>951.8425293</ele>
        <time>2012-05-12T09:05:44Z</time>
      </trkpt>
      <trkpt lat="44.00507" lon="7.18974">
        <ele>952.8037109</ele>
        <time>2012-05-12T09:05:52Z</time>
      </trkpt>
      <trkpt lat="44.00508" lon="7.18978">
        <ele>952.8037109</ele>
        <time>2012-05-12T09:05:53Z</time>
      </trkpt>
      <trkpt lat="44.00511" lon="7.18994">
        <ele>954.2458496</ele>
        <time>2012-05-12T09:05:59Z</time>
      </trkpt>
      <trkpt lat="44.00531" lon="7.19042">
        <ele>958.5717773</ele>
        <time>2012-05-12T09:06:20Z</time>
      </trkpt>
      <trkpt lat="44.00562" lon="7.19044">
        <ele>960.9750977</ele>
        <time>2012-05-12T09:06:36Z</time>
      </trkpt>
      <trkpt lat="44.00593" lon="7.1906">
        <ele>964.3395996</ele>
        <time>2012-05-12T09:06:55Z</time>
      </trkpt>
      <trkpt lat="44.00595" lon="7.19072">
        <ele>964.3395996</ele>
        <time>2012-05-12T09:06:59Z</time>
      </trkpt>
      <trkpt lat="44.00609" lon="7.19085">
        <ele>965.7817383</ele>
        <time>2012-05-12T09:07:07Z</time>
      </trkpt>
      <trkpt lat="44.00615" lon="7.19083">
        <ele>966.262207</ele>
        <time>2012-05-12T09:07:11Z</time>
      </trkpt>
      <trkpt lat="44.00623" lon="7.19085">
        <ele>967.2236328</ele>
        <time>2012-05-12T09:07:15Z</time>
      </trkpt>
      <trkpt lat="44.00628" lon="7.19093">
        <ele>967.7041016</ele>
        <time>2012-05-12T09:07:19Z</time>
      </trkpt>
      <trkpt lat="44.00638" lon="7.19136">
        <ele>969.6269531</ele>
        <time>2012-05-12T09:07:36Z</time>
      </trkpt>
      <trkpt lat="44.00639" lon="7.19146">
        <ele>970.5881348</ele>
        <time>2012-05-12T09:07:40Z</time>
      </trkpt>
      <trkpt lat="44.00643" lon="7.19159">
        <ele>971.0688477</ele>
        <time>2012-05-12T09:07:46Z</time>
      </trkpt>
      <trkpt lat="44.00656" lon="7.1917">
        <ele>972.9916992</ele>
        <time>2012-05-12T09:07:58Z</time>
      </trkpt>
      <trkpt lat="44.00688" lon="7.19181">
        <ele>974.9143066</ele>
        <time>2012-05-12T09:08:14Z</time>
      </trkpt>
      <trkpt lat="44.00694" lon="7.19182">
        <ele>975.3947754</ele>
        <time>2012-05-12T09:08:17Z</time>
      </trkpt>
      <trkpt lat="44.00712" lon="7.19191">
        <ele>976.3562012</ele>
        <time>2012-05-12T09:08:28Z</time>
      </trkpt>
      <trkpt lat="44.00717" lon="7.19227">
        <ele>978.2788086</ele>
        <time>2012-05-12T09:08:45Z</time>
      </trkpt>
      <trkpt lat="44.00715" lon="7.19239">
        <ele>979.7207031</ele>
        <time>2012-05-12T09:08:50Z</time>
      </trkpt>
      <trkpt lat="44.00719" lon="7.19254">
        <ele>979.7207031</ele>
        <time>2012-05-12T09:08:57Z</time>
      </trkpt>
      <trkpt lat="44.00728" lon="7.19261">
        <ele>980.201416</ele>
        <time>2012-05-12T09:09:02Z</time>
      </trkpt>
      <trkpt lat="44.00766" lon="7.19245">
        <ele>982.6047363</ele>
        <time>2012-05-12T09:09:22Z</time>
      </trkpt>
      <trkpt lat="44.00809" lon="7.19238">
        <ele>984.5273438</ele>
        <time>2012-05-12T09:09:44Z</time>
      </trkpt>
      <trkpt lat="44.00848" lon="7.19254">
        <ele>985.9692383</ele>
        <time>2012-05-12T09:10:05Z</time>
      </trkpt>
      <trkpt lat="44.00888" lon="7.19302">
        <ele>988.3728027</ele>
        <time>2012-05-12T09:10:28Z</time>
      </trkpt>
      <trkpt lat="44.00913" lon="7.19354">
        <ele>989.8146973</ele>
        <time>2012-05-12T09:10:48Z</time>
      </trkpt>
      <trkpt lat="44.0094" lon="7.19402">
        <ele>991.7373047</ele>
        <time>2012-05-12T09:11:06Z</time>
      </trkpt>
      <trkpt lat="44.00954" lon="7.1942">
        <ele>992.2180176</ele>
        <time>2012-05-12T09:11:13Z</time>
      </trkpt>
      <trkpt lat="44.00983" lon="7.19445">
        <ele>994.140625</ele>
        <time>2012-05-12T09:11:26Z</time>
      </trkpt>
      <trkpt lat="44.01007" lon="7.19493">
        <ele>995.5825195</ele>
        <time>2012-05-12T09:11:44Z</time>
      </trkpt>
      <trkpt lat="44.01035" lon="7.19528">
        <ele>997.0244141</ele>
        <time>2012-05-12T09:11:59Z</time>
      </trkpt>
      <trkpt lat="44.01037" lon="7.19529">
        <ele>997.0244141</ele>
        <time>2012-05-12T09:12:01Z</time>
      </trkpt>
      <trkpt lat="44.01035" lon="7.19555">
        <ele>997.505127</ele>
        <time>2012-05-12T09:12:09Z</time>
      </trkpt>
      <trkpt lat="44.01049" lon="7.19579">
        <ele>998.4663086</ele>
        <time>2012-05-12T09:12:19Z</time>
      </trkpt>
      <trkpt lat="44.01071" lon="7.19611">
        <ele>999.4277344</ele>
        <time>2012-05-12T09:12:33Z</time>
      </trkpt>
      <trkpt lat="44.01073" lon="7.19613">
        <ele>999.9084473</ele>
        <time>2012-05-12T09:12:34Z</time>
      </trkpt>
      <trkpt lat="44.01074" lon="7.19651">
        <ele>1000.8696289</ele>
        <time>2012-05-12T09:12:45Z</time>
      </trkpt>
      <trkpt lat="44.01074" lon="7.19656">
        <ele>1001.3503418</ele>
        <time>2012-05-12T09:12:47Z</time>
      </trkpt>
      <trkpt lat="44.01075" lon="7.19663">
        <ele>1001.3503418</ele>
        <time>2012-05-12T09:12:51Z</time>
      </trkpt>
      <trkpt lat="44.01084" lon="7.19672">
        <ele>1001.8310547</ele>
        <time>2012-05-12T09:12:56Z</time>
      </trkpt>
      <trkpt lat="44.011" lon="7.19713">
        <ele>1003.7536621</ele>
        <time>2012-05-12T09:13:12Z</time>
      </trkpt>
      <trkpt lat="44.01106" lon="7.19724">
        <ele>1004.2346191</ele>
        <time>2012-05-12T09:13:17Z</time>
      </trkpt>
      <trkpt lat="44.01104" lon="7.19734">
        <ele>1004.7150879</ele>
        <time>2012-05-12T09:13:21Z</time>
      </trkpt>
      <trkpt lat="44.01101" lon="7.19746">
        <ele>1005.6765137</ele>
        <time>2012-05-12T09:13:25Z</time>
      </trkpt>
      <trkpt lat="44.01097" lon="7.19767">
        <ele>1007.1184082</ele>
        <time>2012-05-12T09:13:34Z</time>
      </trkpt>
      <trkpt lat="44.01095" lon="7.19779">
        <ele>1007.5991211</ele>
        <time>2012-05-12T09:13:40Z</time>
      </trkpt>
      <trkpt lat="44.01082" lon="7.198">
        <ele>1009.5217285</ele>
        <time>2012-05-12T09:13:50Z</time>
      </trkpt>
      <trkpt lat="44.01079" lon="7.19807">
        <ele>1010.0021973</ele>
        <time>2012-05-12T09:13:54Z</time>
      </trkpt>
      <trkpt lat="44.01076" lon="7.19823">
        <ele>1010.963623</ele>
        <time>2012-05-12T09:14:02Z</time>
      </trkpt>
      <trkpt lat="44.01075" lon="7.19828">
        <ele>1010.963623</ele>
        <time>2012-05-12T09:14:04Z</time>
      </trkpt>
      <trkpt lat="44.01074" lon="7.19837">
        <ele>1011.4443359</ele>
        <time>2012-05-12T09:14:08Z</time>
      </trkpt>
      <trkpt lat="44.01057" lon="7.19886">
        <ele>1013.3669434</ele>
        <time>2012-05-12T09:14:27Z</time>
      </trkpt>
      <trkpt lat="44.01053" lon="7.19893">
        <ele>1013.8474121</ele>
        <time>2012-05-12T09:14:30Z</time>
      </trkpt>
      <trkpt lat="44.01045" lon="7.19905">
        <ele>1015.7702637</ele>
        <time>2012-05-12T09:14:39Z</time>
      </trkpt>
      <trkpt lat="44.0104" lon="7.19911">
        <ele>1016.2507324</ele>
        <time>2012-05-12T09:14:43Z</time>
      </trkpt>
      <trkpt lat="44.01036" lon="7.19918">
        <ele>1016.2507324</ele>
        <time>2012-05-12T09:14:47Z</time>
      </trkpt>
      <trkpt lat="44.01027" lon="7.1994">
        <ele>1017.692627</ele>
        <time>2012-05-12T09:14:56Z</time>
      </trkpt>
      <trkpt lat="44.01023" lon="7.19954">
        <ele>1018.1733398</ele>
        <time>2012-05-12T09:15:00Z</time>
      </trkpt>
      <trkpt lat="44.01019" lon="7.19965">
        <ele>1018.1733398</ele>
        <time>2012-05-12T09:15:05Z</time>
      </trkpt>
      <trkpt lat="44.01009" lon="7.19987">
        <ele>1019.1347656</ele>
        <time>2012-05-12T09:15:13Z</time>
      </trkpt>
      <trkpt lat="44.01025" lon="7.19988">
        <ele>1020.0961914</ele>
        <time>2012-05-12T09:15:25Z</time>
      </trkpt>
      <trkpt lat="44.01049" lon="7.19974">
        <ele>1021.0576172</ele>
        <time>2012-05-12T09:15:39Z</time>
      </trkpt>
      <trkpt lat="44.01077" lon="7.19945">
        <ele>1023.9414063</ele>
        <time>2012-05-12T09:15:57Z</time>
      </trkpt>
      <trkpt lat="44.01086" lon="7.19937">
        <ele>1024.4221191</ele>
        <time>2012-05-12T09:16:02Z</time>
      </trkpt>
      <trkpt lat="44.01114" lon="7.19912">
        <ele>1026.3447266</ele>
        <time>2012-05-12T09:16:19Z</time>
      </trkpt>
      <trkpt lat="44.01131" lon="7.19891">
        <ele>1027.7866211</ele>
        <time>2012-05-12T09:16:31Z</time>
      </trkpt>
      <trkpt lat="44.01157" lon="7.19852">
        <ele>1029.7092285</ele>
        <time>2012-05-12T09:16:53Z</time>
      </trkpt>
      <trkpt lat="44.01164" lon="7.19843">
        <ele>1030.1899414</ele>
        <time>2012-05-12T09:16:58Z</time>
      </trkpt>
      <trkpt lat="44.01182" lon="7.19823">
        <ele>1032.1125488</ele>
        <time>2012-05-12T09:17:14Z</time>
      </trkpt>
      <trkpt lat="44.01184" lon="7.19823">
        <ele>1031.6318359</ele>
        <time>2012-05-12T09:17:16Z</time>
      </trkpt>
      <trkpt lat="44.01204" lon="7.19821">
        <ele>1033.5544434</ele>
        <time>2012-05-12T09:17:27Z</time>
      </trkpt>
      <trkpt lat="44.01234" lon="7.19827">
        <ele>1034.996582</ele>
        <time>2012-05-12T09:17:44Z</time>
      </trkpt>
      <trkpt lat="44.01246" lon="7.1983">
        <ele>1035.9577637</ele>
        <time>2012-05-12T09:17:51Z</time>
      </trkpt>
      <trkpt lat="44.01252" lon="7.1983">
        <ele>1035.9577637</ele>
        <time>2012-05-12T09:17:56Z</time>
      </trkpt>
      <trkpt lat="44.01278" lon="7.1983">
        <ele>1038.3613281</ele>
        <time>2012-05-12T09:18:13Z</time>
      </trkpt>
      <trkpt lat="44.01287" lon="7.19831">
        <ele>1038.842041</ele>
        <time>2012-05-12T09:18:18Z</time>
      </trkpt>
      <trkpt lat="44.01311" lon="7.19847">
        <ele>1041.2451172</ele>
        <time>2012-05-12T09:18:34Z</time>
      </trkpt>
      <trkpt lat="44.01332" lon="7.19885">
        <ele>1042.206543</ele>
        <time>2012-05-12T09:18:55Z</time>
      </trkpt>
      <trkpt lat="44.01352" lon="7.199">
        <ele>1044.1291504</ele>
        <time>2012-05-12T09:19:10Z</time>
      </trkpt>
      <trkpt lat="44.01353" lon="7.19901">
        <ele>1044.1291504</ele>
        <time>2012-05-12T09:19:11Z</time>
      </trkpt>
      <trkpt lat="44.01364" lon="7.19915">
        <ele>1045.090332</ele>
        <time>2012-05-12T09:19:22Z</time>
      </trkpt>
      <trkpt lat="44.01376" lon="7.19945">
        <ele>1047.0129395</ele>
        <time>2012-05-12T09:19:39Z</time>
      </trkpt>
      <trkpt lat="44.01386" lon="7.19978">
        <ele>1048.454834</ele>
        <time>2012-05-12T09:19:57Z</time>
      </trkpt>
      <trkpt lat="44.01395" lon="7.19997">
        <ele>1049.8969727</ele>
        <time>2012-05-12T09:20:08Z</time>
      </trkpt>
      <trkpt lat="44.01397" lon="7.20002">
        <ele>1050.3776855</ele>
        <time>2012-05-12T09:20:11Z</time>
      </trkpt>
      <trkpt lat="44.01412" lon="7.20044">
        <ele>1052.7810059</ele>
        <time>2012-05-12T09:20:33Z</time>
      </trkpt>
      <trkpt lat="44.01416" lon="7.20051">
        <ele>1053.2617188</ele>
        <time>2012-05-12T09:20:37Z</time>
      </trkpt>
      <trkpt lat="44.01441" lon="7.20065">
        <ele>1055.1843262</ele>
        <time>2012-05-12T09:20:56Z</time>
      </trkpt>
      <trkpt lat="44.01461" lon="7.20062">
        <ele>1057.1069336</ele>
        <time>2012-05-12T09:21:09Z</time>
      </trkpt>
      <trkpt lat="44.01491" lon="7.20079">
        <ele>1059.9907227</ele>
        <time>2012-05-12T09:21:30Z</time>
      </trkpt>
      <trkpt lat="44.01512" lon="7.20093">
        <ele>1061.9135742</ele>
        <time>2012-05-12T09:21:46Z</time>
      </trkpt>
      <trkpt lat="44.01517" lon="7.20097">
        <ele>1062.394043</ele>
        <time>2012-05-12T09:21:50Z</time>
      </trkpt>
      <trkpt lat="44.01528" lon="7.20119">
        <ele>1065.2780762</ele>
        <time>2012-05-12T09:22:05Z</time>
      </trkpt>
      <trkpt lat="44.01529" lon="7.20135">
        <ele>1066.7199707</ele>
        <time>2012-05-12T09:22:14Z</time>
      </trkpt>
      <trkpt lat="44.0153" lon="7.20141">
        <ele>1066.7199707</ele>
        <time>2012-05-12T09:22:18Z</time>
      </trkpt>
      <trkpt lat="44.01539" lon="7.2017">
        <ele>1069.604248</ele>
        <time>2012-05-12T09:22:36Z</time>
      </trkpt>
      <trkpt lat="44.01543" lon="7.20176">
        <ele>1069.604248</ele>
        <time>2012-05-12T09:22:39Z</time>
      </trkpt>
      <trkpt lat="44.01552" lon="7.20203">
        <ele>1071.5266113</ele>
        <time>2012-05-12T09:22:56Z</time>
      </trkpt>
      <trkpt lat="44.01554" lon="7.2021">
        <ele>1072.0073242</ele>
        <time>2012-05-12T09:23:00Z</time>
      </trkpt>
      <trkpt lat="44.0156" lon="7.20244">
        <ele>1074.4106445</ele>
        <time>2012-05-12T09:23:19Z</time>
      </trkpt>
      <trkpt lat="44.01565" lon="7.20289">
        <ele>1077.2946777</ele>
        <time>2012-05-12T09:23:42Z</time>
      </trkpt>
      <trkpt lat="44.01564" lon="7.20299">
        <ele>1077.7751465</ele>
        <time>2012-05-12T09:23:48Z</time>
      </trkpt>
      <trkpt lat="44.01556" lon="7.20298">
        <ele>1078.7365723</ele>
        <time>2012-05-12T09:23:56Z</time>
      </trkpt>
      <trkpt lat="44.01553" lon="7.20278">
        <ele>1079.6977539</ele>
        <time>2012-05-12T09:24:07Z</time>
      </trkpt>
      <trkpt lat="44.01546" lon="7.20236">
        <ele>1083.0622559</ele>
        <time>2012-05-12T09:24:30Z</time>
      </trkpt>
      <trkpt lat="44.01532" lon="7.20208">
        <ele>1085.9465332</ele>
        <time>2012-05-12T09:24:49Z</time>
      </trkpt>
      <trkpt lat="44.01524" lon="7.20196">
        <ele>1087.8691406</ele>
        <time>2012-05-12T09:24:59Z</time>
      </trkpt>
      <trkpt lat="44.01504" lon="7.20176">
        <ele>1089.3110352</ele>
        <time>2012-05-12T09:25:17Z</time>
      </trkpt>
      <trkpt lat="44.01499" lon="7.20171">
        <ele>1089.791748</ele>
        <time>2012-05-12T09:25:22Z</time>
      </trkpt>
      <trkpt lat="44.01491" lon="7.20161">
        <ele>1091.2336426</ele>
        <time>2012-05-12T09:25:30Z</time>
      </trkpt>
      <trkpt lat="44.01468" lon="7.20149">
        <ele>1094.1176758</ele>
        <time>2012-05-12T09:25:50Z</time>
      </trkpt>
      <trkpt lat="44.01459" lon="7.20148">
        <ele>1094.5981445</ele>
        <time>2012-05-12T09:25:57Z</time>
      </trkpt>
      <trkpt lat="44.01454" lon="7.20153">
        <ele>1095.5595703</ele>
        <time>2012-05-12T09:26:02Z</time>
      </trkpt>
      <trkpt lat="44.01454" lon="7.20156">
        <ele>1096.0402832</ele>
        <time>2012-05-12T09:26:21Z</time>
      </trkpt>
      <trkpt lat="44.01454" lon="7.20156">
        <ele>1096.5209961</ele>
        <time>2012-05-12T09:28:55Z</time>
      </trkpt>
      <trkpt lat="44.01461" lon="7.20164">
        <ele>1096.5209961</ele>
        <time>2012-05-12T09:29:03Z</time>
      </trkpt>
      <trkpt lat="44.01464" lon="7.20165">
        <ele>1096.5209961</ele>
        <time>2012-05-12T09:29:05Z</time>
      </trkpt>
      <trkpt lat="44.01467" lon="7.20166">
        <ele>1097.4821777</ele>
        <time>2012-05-12T09:29:24Z</time>
      </trkpt>
      <trkpt lat="44.01467" lon="7.20166">
        <ele>1097.0014648</ele>
        <time>2012-05-12T09:30:17Z</time>
      </trkpt>
      <trkpt lat="44.01488" lon="7.20183">
        <ele>1098.9240723</ele>
        <time>2012-05-12T09:30:36Z</time>
      </trkpt>
      <trkpt lat="44.01501" lon="7.20215">
        <ele>1101.8083496</ele>
        <time>2012-05-12T09:30:56Z</time>
      </trkpt>
      <trkpt lat="44.01501" lon="7.20215">
        <ele>1101.8083496</ele>
        <time>2012-05-12T09:30:57Z</time>
      </trkpt>
      <trkpt lat="44.01503" lon="7.20222">
        <ele>1102.2888184</ele>
        <time>2012-05-12T09:31:01Z</time>
      </trkpt>
      <trkpt lat="44.0151" lon="7.20263">
        <ele>1105.6535645</ele>
        <time>2012-05-12T09:31:24Z</time>
      </trkpt>
      <trkpt lat="44.01514" lon="7.20281">
        <ele>1106.6147461</ele>
        <time>2012-05-12T09:31:34Z</time>
      </trkpt>
      <trkpt lat="44.01518" lon="7.20303">
        <ele>1108.5373535</ele>
        <time>2012-05-12T09:31:46Z</time>
      </trkpt>
      <trkpt lat="44.01522" lon="7.20328">
        <ele>1110.9406738</ele>
        <time>2012-05-12T09:32:02Z</time>
      </trkpt>
      <trkpt lat="44.01522" lon="7.20362">
        <ele>1113.3439941</ele>
        <time>2012-05-12T09:32:21Z</time>
      </trkpt>
      <trkpt lat="44.01519" lon="7.20393">
        <ele>1115.7473145</ele>
        <time>2012-05-12T09:32:38Z</time>
      </trkpt>
      <trkpt lat="44.01519" lon="7.20399">
        <ele>1116.2280273</ele>
        <time>2012-05-12T09:32:41Z</time>
      </trkpt>
      <trkpt lat="44.01518" lon="7.20405">
        <ele>1116.7087402</ele>
        <time>2012-05-12T09:32:45Z</time>
      </trkpt>
      <trkpt lat="44.01511" lon="7.20449">
        <ele>1119.5927734</ele>
        <time>2012-05-12T09:33:09Z</time>
      </trkpt>
      <trkpt lat="44.01509" lon="7.20475">
        <ele>1121.034668</ele>
        <time>2012-05-12T09:33:22Z</time>
      </trkpt>
      <trkpt lat="44.01512" lon="7.20512">
        <ele>1122.4765625</ele>
        <time>2012-05-12T09:33:41Z</time>
      </trkpt>
      <trkpt lat="44.01513" lon="7.20515">
        <ele>1123.4379883</ele>
        <time>2012-05-12T09:33:43Z</time>
      </trkpt>
      <trkpt lat="44.01515" lon="7.20519">
        <ele>1122.9572754</ele>
        <time>2012-05-12T09:33:45Z</time>
      </trkpt>
      <trkpt lat="44.01517" lon="7.20526">
        <ele>1123.4379883</ele>
        <time>2012-05-12T09:33:49Z</time>
      </trkpt>
      <trkpt lat="44.01519" lon="7.20534">
        <ele>1124.8798828</ele>
        <time>2012-05-12T09:33:54Z</time>
      </trkpt>
      <trkpt lat="44.01529" lon="7.20547">
        <ele>1125.3603516</ele>
        <time>2012-05-12T09:34:03Z</time>
      </trkpt>
      <trkpt lat="44.01539" lon="7.20559">
        <ele>1126.3217773</ele>
        <time>2012-05-12T09:34:11Z</time>
      </trkpt>
      <trkpt lat="44.01546" lon="7.20566">
        <ele>1127.2832031</ele>
        <time>2012-05-12T09:34:18Z</time>
      </trkpt>
      <trkpt lat="44.01552" lon="7.20573">
        <ele>1128.2443848</ele>
        <time>2012-05-12T09:34:23Z</time>
      </trkpt>
      <trkpt lat="44.01554" lon="7.20575">
        <ele>1128.7250977</ele>
        <time>2012-05-12T09:34:25Z</time>
      </trkpt>
      <trkpt lat="44.0156" lon="7.20581">
        <ele>1128.7250977</ele>
        <time>2012-05-12T09:34:30Z</time>
      </trkpt>
      <trkpt lat="44.01562" lon="7.20584">
        <ele>1129.2055664</ele>
        <time>2012-05-12T09:34:32Z</time>
      </trkpt>
      <trkpt lat="44.01565" lon="7.20587">
        <ele>1129.6862793</ele>
        <time>2012-05-12T09:34:35Z</time>
      </trkpt>
      <trkpt lat="44.0158" lon="7.206">
        <ele>1131.128418</ele>
        <time>2012-05-12T09:34:48Z</time>
      </trkpt>
      <trkpt lat="44.01594" lon="7.20609">
        <ele>1134.0124512</ele>
        <time>2012-05-12T09:35:01Z</time>
      </trkpt>
      <trkpt lat="44.016" lon="7.20611">
        <ele>1134.4931641</ele>
        <time>2012-05-12T09:35:05Z</time>
      </trkpt>
      <trkpt lat="44.01606" lon="7.20613">
        <ele>1134.973877</ele>
        <time>2012-05-12T09:35:10Z</time>
      </trkpt>
      <trkpt lat="44.01628" lon="7.20625">
        <ele>1137.857666</ele>
        <time>2012-05-12T09:35:29Z</time>
      </trkpt>
      <trkpt lat="44.01649" lon="7.20636">
        <ele>1139.7802734</ele>
        <time>2012-05-12T09:35:46Z</time>
      </trkpt>
      <trkpt lat="44.01664" lon="7.20648">
        <ele>1141.7028809</ele>
        <time>2012-05-12T09:35:59Z</time>
      </trkpt>
      <trkpt lat="44.01673" lon="7.20657">
        <ele>1142.6643066</ele>
        <time>2012-05-12T09:36:07Z</time>
      </trkpt>
      <trkpt lat="44.01675" lon="7.20659">
        <ele>1143.1447754</ele>
        <time>2012-05-12T09:36:09Z</time>
      </trkpt>
      <trkpt lat="44.0169" lon="7.20689">
        <ele>1146.5095215</ele>
        <time>2012-05-12T09:36:33Z</time>
      </trkpt>
      <trkpt lat="44.01687" lon="7.207">
        <ele>1147.4707031</ele>
        <time>2012-05-12T09:36:40Z</time>
      </trkpt>
      <trkpt lat="44.01684" lon="7.20705">
        <ele>1148.4321289</ele>
        <time>2012-05-12T09:36:45Z</time>
      </trkpt>
      <trkpt lat="44.01679" lon="7.20726">
        <ele>1150.3549805</ele>
        <time>2012-05-12T09:36:57Z</time>
      </trkpt>
      <trkpt lat="44.01676" lon="7.2074">
        <ele>1151.796875</ele>
        <time>2012-05-12T09:37:06Z</time>
      </trkpt>
      <trkpt lat="44.01677" lon="7.20778">
        <ele>1154.2001953</ele>
        <time>2012-05-12T09:37:27Z</time>
      </trkpt>
      <trkpt lat="44.01682" lon="7.20795">
        <ele>1155.6420898</ele>
        <time>2012-05-12T09:37:37Z</time>
      </trkpt>
      <trkpt lat="44.01684" lon="7.20798">
        <ele>1155.6420898</ele>
        <time>2012-05-12T09:37:39Z</time>
      </trkpt>
      <trkpt lat="44.01702" lon="7.20823">
        <ele>1159.0065918</ele>
        <time>2012-05-12T09:37:59Z</time>
      </trkpt>
      <trkpt lat="44.01705" lon="7.20827">
        <ele>1159.9677734</ele>
        <time>2012-05-12T09:38:04Z</time>
      </trkpt>
      <trkpt lat="44.01722" lon="7.20851">
        <ele>1162.8518066</ele>
        <time>2012-05-12T09:38:22Z</time>
      </trkpt>
      <trkpt lat="44.01728" lon="7.2086">
        <ele>1163.8129883</ele>
        <time>2012-05-12T09:38:29Z</time>
      </trkpt>
      <trkpt lat="44.01735" lon="7.20876">
        <ele>1165.2553711</ele>
        <time>2012-05-12T09:38:40Z</time>
      </trkpt>
      <trkpt lat="44.01736" lon="7.20882">
        <ele>1165.2553711</ele>
        <time>2012-05-12T09:38:43Z</time>
      </trkpt>
      <trkpt lat="44.01737" lon="7.20889">
        <ele>1166.6972656</ele>
        <time>2012-05-12T09:38:48Z</time>
      </trkpt>
      <trkpt lat="44.01737" lon="7.20894">
        <ele>1166.6972656</ele>
        <time>2012-05-12T09:38:51Z</time>
      </trkpt>
      <trkpt lat="44.01736" lon="7.20913">
        <ele>1168.619873</ele>
        <time>2012-05-12T09:39:02Z</time>
      </trkpt>
      <trkpt lat="44.01736" lon="7.20934">
        <ele>1170.0617676</ele>
        <time>2012-05-12T09:39:14Z</time>
      </trkpt>
      <trkpt lat="44.01747" lon="7.20941">
        <ele>1170.5424805</ele>
        <time>2012-05-12T09:39:21Z</time>
      </trkpt>
      <trkpt lat="44.01764" lon="7.20922">
        <ele>1173.9069824</ele>
        <time>2012-05-12T09:39:37Z</time>
      </trkpt>
      <trkpt lat="44.01769" lon="7.2091">
        <ele>1174.8684082</ele>
        <time>2012-05-12T09:39:46Z</time>
      </trkpt>
      <trkpt lat="44.01774" lon="7.20872">
        <ele>1178.2329102</ele>
        <time>2012-05-12T09:40:07Z</time>
      </trkpt>
      <trkpt lat="44.01772" lon="7.20833">
        <ele>1180.6364746</ele>
        <time>2012-05-12T09:40:27Z</time>
      </trkpt>
      <trkpt lat="44.0177" lon="7.20826">
        <ele>1180.6364746</ele>
        <time>2012-05-12T09:40:31Z</time>
      </trkpt>
      <trkpt lat="44.01769" lon="7.20822">
        <ele>1181.5976563</ele>
        <time>2012-05-12T09:40:50Z</time>
      </trkpt>
      <trkpt lat="44.01767" lon="7.20799">
        <ele>1182.559082</ele>
        <time>2012-05-12T09:44:00Z</time>
      </trkpt>
      <trkpt lat="44.01771" lon="7.20784">
        <ele>1183.5202637</ele>
        <time>2012-05-12T09:44:08Z</time>
      </trkpt>
      <trkpt lat="44.01791" lon="7.20766">
        <ele>1186.4042969</ele>
        <time>2012-05-12T09:44:27Z</time>
      </trkpt>
      <trkpt lat="44.01791" lon="7.20766">
        <ele>1187.3654785</ele>
        <time>2012-05-12T09:44:29Z</time>
      </trkpt>
      <trkpt lat="44.01797" lon="7.20761">
        <ele>1187.8461914</ele>
        <time>2012-05-12T09:44:33Z</time>
      </trkpt>
      <trkpt lat="44.01798" lon="7.2076">
        <ele>1187.8461914</ele>
        <time>2012-05-12T09:44:36Z</time>
      </trkpt>
      <trkpt lat="44.01802" lon="7.20758">
        <ele>1188.3269043</ele>
        <time>2012-05-12T09:44:38Z</time>
      </trkpt>
      <trkpt lat="44.01818" lon="7.20742">
        <ele>1190.7299805</ele>
        <time>2012-05-12T09:44:54Z</time>
      </trkpt>
      <trkpt lat="44.01818" lon="7.20742">
        <ele>1191.2106934</ele>
        <time>2012-05-12T09:44:58Z</time>
      </trkpt>
      <trkpt lat="44.0185" lon="7.20718">
        <ele>1194.5751953</ele>
        <time>2012-05-12T09:45:24Z</time>
      </trkpt>
      <trkpt lat="44.01865" lon="7.20714">
        <ele>1196.498291</ele>
        <time>2012-05-12T09:45:41Z</time>
      </trkpt>
      <trkpt lat="44.0187" lon="7.20715">
        <ele>1196.498291</ele>
        <time>2012-05-12T09:45:44Z</time>
      </trkpt>
      <trkpt lat="44.01873" lon="7.20716">
        <ele>1197.9401855</ele>
        <time>2012-05-12T09:45:55Z</time>
      </trkpt>
      <trkpt lat="44.01873" lon="7.20716">
        <ele>1198.9013672</ele>
        <time>2012-05-12T09:46:03Z</time>
      </trkpt>
      <trkpt lat="44.01897" lon="7.20729">
        <ele>1200.8239746</ele>
        <time>2012-05-12T09:46:12Z</time>
      </trkpt>
      <trkpt lat="44.01897" lon="7.20729">
        <ele>1201.3046875</ele>
        <time>2012-05-12T09:46:16Z</time>
      </trkpt>
      <trkpt lat="44.01897" lon="7.20729">
        <ele>1201.7854004</ele>
        <time>2012-05-12T09:46:20Z</time>
      </trkpt>
      <trkpt lat="44.01897" lon="7.20729">
        <ele>1202.2658691</ele>
        <time>2012-05-12T09:46:26Z</time>
      </trkpt>
      <trkpt lat="44.01897" lon="7.20729">
        <ele>1202.746582</ele>
        <time>2012-05-12T09:46:33Z</time>
      </trkpt>
      <trkpt lat="44.01897" lon="7.20729">
        <ele>1203.2272949</ele>
        <time>2012-05-12T09:46:36Z</time>
      </trkpt>
      <trkpt lat="44.0193" lon="7.20737">
        <ele>1203.7080078</ele>
        <time>2012-05-12T09:46:41Z</time>
      </trkpt>
      <trkpt lat="44.01948" lon="7.20737">
        <ele>1206.111084</ele>
        <time>2012-05-12T09:46:56Z</time>
      </trkpt>
      <trkpt lat="44.01954" lon="7.20741">
        <ele>1207.0725098</ele>
        <time>2012-05-12T09:47:02Z</time>
      </trkpt>
      <trkpt lat="44.01963" lon="7.20748">
        <ele>1207.5532227</ele>
        <time>2012-05-12T09:47:10Z</time>
      </trkpt>
      <trkpt lat="44.01968" lon="7.20752">
        <ele>1208.0339355</ele>
        <time>2012-05-12T09:47:14Z</time>
      </trkpt>
      <trkpt lat="44.0198" lon="7.20767">
        <ele>1210.9177246</ele>
        <time>2012-05-12T09:47:28Z</time>
      </trkpt>
      <trkpt lat="44.01994" lon="7.20788">
        <ele>1212.8405762</ele>
        <time>2012-05-12T09:47:44Z</time>
      </trkpt>
      <trkpt lat="44.01994" lon="7.20789">
        <ele>1214.2824707</ele>
        <time>2012-05-12T09:47:50Z</time>
      </trkpt>
      <trkpt lat="44.0201" lon="7.20817">
        <ele>1216.2050781</ele>
        <time>2012-05-12T09:48:07Z</time>
      </trkpt>
      <trkpt lat="44.02011" lon="7.20821">
        <ele>1217.1665039</ele>
        <time>2012-05-12T09:48:11Z</time>
      </trkpt>
      <trkpt lat="44.02017" lon="7.20835">
        <ele>1218.1276855</ele>
        <time>2012-05-12T09:48:19Z</time>
      </trkpt>
      <trkpt lat="44.02025" lon="7.20847">
        <ele>1220.050293</ele>
        <time>2012-05-12T09:48:29Z</time>
      </trkpt>
      <trkpt lat="44.02042" lon="7.20855">
        <ele>1221.0117188</ele>
        <time>2012-05-12T09:48:41Z</time>
      </trkpt>
      <trkpt lat="44.02051" lon="7.20847">
        <ele>1221.9729004</ele>
        <time>2012-05-12T09:48:48Z</time>
      </trkpt>
      <trkpt lat="44.02054" lon="7.20843">
        <ele>1221.4921875</ele>
        <time>2012-05-12T09:48:52Z</time>
      </trkpt>
      <trkpt lat="44.02057" lon="7.20837">
        <ele>1222.4536133</ele>
        <time>2012-05-12T09:48:56Z</time>
      </trkpt>
      <trkpt lat="44.02063" lon="7.20791">
        <ele>1226.2988281</ele>
        <time>2012-05-12T09:49:18Z</time>
      </trkpt>
      <trkpt lat="44.02059" lon="7.20745">
        <ele>1229.1828613</ele>
        <time>2012-05-12T09:49:39Z</time>
      </trkpt>
      <trkpt lat="44.0205" lon="7.20712">
        <ele>1232.5476074</ele>
        <time>2012-05-12T09:49:55Z</time>
      </trkpt>
      <trkpt lat="44.02038" lon="7.20693">
        <ele>1235.4313965</ele>
        <time>2012-05-12T09:50:07Z</time>
      </trkpt>
      <trkpt lat="44.02034" lon="7.2068">
        <ele>1236.3928223</ele>
        <time>2012-05-12T09:50:14Z</time>
      </trkpt>
      <trkpt lat="44.02038" lon="7.20659">
        <ele>1237.3540039</ele>
        <time>2012-05-12T09:50:24Z</time>
      </trkpt>
      <trkpt lat="44.02047" lon="7.20638">
        <ele>1239.7573242</ele>
        <time>2012-05-12T09:50:35Z</time>
      </trkpt>
      <trkpt lat="44.02061" lon="7.20602">
        <ele>1242.6413574</ele>
        <time>2012-05-12T09:50:53Z</time>
      </trkpt>
      <trkpt lat="44.02062" lon="7.20574">
        <ele>1244.0834961</ele>
        <time>2012-05-12T09:51:05Z</time>
      </trkpt>
      <trkpt lat="44.02058" lon="7.20552">
        <ele>1246.4868164</ele>
        <time>2012-05-12T09:51:15Z</time>
      </trkpt>
      <trkpt lat="44.02043" lon="7.20501">
        <ele>1249.3706055</ele>
        <time>2012-05-12T09:51:39Z</time>
      </trkpt>
      <trkpt lat="44.02025" lon="7.20486">
        <ele>1250.3320313</ele>
        <time>2012-05-12T09:51:50Z</time>
      </trkpt>
      <trkpt lat="44.02027" lon="7.20451">
        <ele>1251.2932129</ele>
        <time>2012-05-12T09:52:00Z</time>
      </trkpt>
      <trkpt lat="44.02015" lon="7.20464">
        <ele>1251.7739258</ele>
        <time>2012-05-12T09:52:29Z</time>
      </trkpt>
      <trkpt lat="44.02015" lon="7.20464">
        <ele>1251.7739258</ele>
        <time>2012-05-12T09:52:37Z</time>
      </trkpt>
      <trkpt lat="44.02003" lon="7.20448">
        <ele>1253.2158203</ele>
        <time>2012-05-12T09:52:54Z</time>
      </trkpt>
      <trkpt lat="44.02003" lon="7.20448">
        <ele>1256.0996094</ele>
        <time>2012-05-12T09:53:09Z</time>
      </trkpt>
      <trkpt lat="44.02003" lon="7.20448">
        <ele>1258.9836426</ele>
        <time>2012-05-12T09:53:23Z</time>
      </trkpt>
      <trkpt lat="44.02003" lon="7.20448">
        <ele>1260.4257813</ele>
        <time>2012-05-12T09:53:46Z</time>
      </trkpt>
      <trkpt lat="44.02003" lon="7.20448">
        <ele>1260.9064941</ele>
        <time>2012-05-12T09:54:27Z</time>
      </trkpt>
      <trkpt lat="44.02003" lon="7.20448">
        <ele>1260.9064941</ele>
        <time>2012-05-12T09:54:48Z</time>
      </trkpt>
      <trkpt lat="44.02003" lon="7.20448">
        <ele>1260.9064941</ele>
        <time>2012-05-12T09:56:51Z</time>
      </trkpt>
      <trkpt lat="44.02003" lon="7.20448">
        <ele>1260.9064941</ele>
        <time>2012-05-12T09:57:42Z</time>
      </trkpt>
      <trkpt lat="44.0196" lon="7.20429">
        <ele>1259.4643555</ele>
        <time>2012-05-12T10:07:38Z</time>
      </trkpt>
      <trkpt lat="44.01956" lon="7.20426">
        <ele>1258.0224609</ele>
        <time>2012-05-12T10:07:43Z</time>
      </trkpt>
      <trkpt lat="44.01964" lon="7.2042">
        <ele>1259.9448242</ele>
        <time>2012-05-12T10:07:47Z</time>
      </trkpt>
      <trkpt lat="44.01966" lon="7.20427">
        <ele>1260.9064941</ele>
        <time>2012-05-12T10:07:53Z</time>
      </trkpt>
      <trkpt lat="44.01957" lon="7.20422">
        <ele>1258.5029297</ele>
        <time>2012-05-12T10:08:00Z</time>
      </trkpt>
      <trkpt lat="44.01963" lon="7.20422">
        <ele>1259.4643555</ele>
        <time>2012-05-12T10:08:04Z</time>
      </trkpt>
      <trkpt lat="44.01973" lon="7.20424">
        <ele>1261.387207</ele>
        <time>2012-05-12T10:08:16Z</time>
      </trkpt>
      <trkpt lat="44.0196" lon="7.20424">
        <ele>1260.9064941</ele>
        <time>2012-05-12T10:09:37Z</time>
      </trkpt>
      <trkpt lat="44.01958" lon="7.20435">
        <ele>1262.8291016</ele>
        <time>2012-05-12T10:12:20Z</time>
      </trkpt>
      <trkpt lat="44.01952" lon="7.20426">
        <ele>1262.3483887</ele>
        <time>2012-05-12T10:16:45Z</time>
      </trkpt>
      <trkpt lat="44.01934" lon="7.20428">
        <ele>1258.5029297</ele>
        <time>2012-05-12T10:16:48Z</time>
      </trkpt>
      <trkpt lat="44.01927" lon="7.20431">
        <ele>1256.5803223</ele>
        <time>2012-05-12T10:16:52Z</time>
      </trkpt>
      <trkpt lat="44.01925" lon="7.20431">
        <ele>1254.6577148</ele>
        <time>2012-05-12T10:16:55Z</time>
      </trkpt>
      <trkpt lat="44.01926" lon="7.20431">
        <ele>1253.6965332</ele>
        <time>2012-05-12T10:16:56Z</time>
      </trkpt>
      <trkpt lat="44.01959" lon="7.20382">
        <ele>1250.3320313</ele>
        <time>2012-05-12T10:17:08Z</time>
      </trkpt>
      <trkpt lat="44.01975" lon="7.20372">
        <ele>1248.4091797</ele>
        <time>2012-05-12T10:17:11Z</time>
      </trkpt>
      <trkpt lat="44.01979" lon="7.20369">
        <ele>1248.4091797</ele>
        <time>2012-05-12T10:17:12Z</time>
      </trkpt>
      <trkpt lat="44.02011" lon="7.20344">
        <ele>1246.4868164</ele>
        <time>2012-05-12T10:17:20Z</time>
      </trkpt>
      <trkpt lat="44.02015" lon="7.20341">
        <ele>1246.9672852</ele>
        <time>2012-05-12T10:17:21Z</time>
      </trkpt>
      <trkpt lat="44.02049" lon="7.20318">
        <ele>1243.6025391</ele>
        <time>2012-05-12T10:17:30Z</time>
      </trkpt>
      <trkpt lat="44.02056" lon="7.20312">
        <ele>1243.1218262</ele>
        <time>2012-05-12T10:17:32Z</time>
      </trkpt>
      <trkpt lat="44.02064" lon="7.20307">
        <ele>1243.1218262</ele>
        <time>2012-05-12T10:17:34Z</time>
      </trkpt>
      <trkpt lat="44.02079" lon="7.20295">
        <ele>1239.7573242</ele>
        <time>2012-05-12T10:17:38Z</time>
      </trkpt>
      <trkpt lat="44.02099" lon="7.20271">
        <ele>1235.9121094</ele>
        <time>2012-05-12T10:17:44Z</time>
      </trkpt>
      <trkpt lat="44.02102" lon="7.20267">
        <ele>1235.9121094</ele>
        <time>2012-05-12T10:17:45Z</time>
      </trkpt>
      <trkpt lat="44.02104" lon="7.20263">
        <ele>1234.4702148</ele>
        <time>2012-05-12T10:17:46Z</time>
      </trkpt>
      <trkpt lat="44.02109" lon="7.20253">
        <ele>1233.0280762</ele>
        <time>2012-05-12T10:17:48Z</time>
      </trkpt>
      <trkpt lat="44.02115" lon="7.20241">
        <ele>1231.1057129</ele>
        <time>2012-05-12T10:17:50Z</time>
      </trkpt>
      <trkpt lat="44.02121" lon="7.20229">
        <ele>1229.6635742</ele>
        <time>2012-05-12T10:17:52Z</time>
      </trkpt>
      <trkpt lat="44.02123" lon="7.20223">
        <ele>1229.6635742</ele>
        <time>2012-05-12T10:17:53Z</time>
      </trkpt>
      <trkpt lat="44.02136" lon="7.20193">
        <ele>1229.1828613</ele>
        <time>2012-05-12T10:17:59Z</time>
      </trkpt>
      <trkpt lat="44.02145" lon="7.20176">
        <ele>1228.2216797</ele>
        <time>2012-05-12T10:18:02Z</time>
      </trkpt>
      <trkpt lat="44.02157" lon="7.20153">
        <ele>1228.2216797</ele>
        <time>2012-05-12T10:18:08Z</time>
      </trkpt>
      <trkpt lat="44.02172" lon="7.20136">
        <ele>1226.779541</ele>
        <time>2012-05-12T10:18:12Z</time>
      </trkpt>
      <trkpt lat="44.02188" lon="7.20122">
        <ele>1224.3762207</ele>
        <time>2012-05-12T10:18:16Z</time>
      </trkpt>
      <trkpt lat="44.02205" lon="7.20113">
        <ele>1221.0117188</ele>
        <time>2012-05-12T10:18:21Z</time>
      </trkpt>
      <trkpt lat="44.02212" lon="7.2011">
        <ele>1220.5310059</ele>
        <time>2012-05-12T10:18:23Z</time>
      </trkpt>
      <trkpt lat="44.0222" lon="7.20103">
        <ele>1217.1665039</ele>
        <time>2012-05-12T10:18:28Z</time>
      </trkpt>
      <trkpt lat="44.02225" lon="7.20096">
        <ele>1218.1276855</ele>
        <time>2012-05-12T10:18:30Z</time>
      </trkpt>
      <trkpt lat="44.02229" lon="7.20087">
        <ele>1217.6469727</ele>
        <time>2012-05-12T10:18:33Z</time>
      </trkpt>
      <trkpt lat="44.02231" lon="7.20076">
        <ele>1217.1665039</ele>
        <time>2012-05-12T10:18:38Z</time>
      </trkpt>
      <trkpt lat="44.02234" lon="7.20066">
        <ele>1216.685791</ele>
        <time>2012-05-12T10:18:50Z</time>
      </trkpt>
      <trkpt lat="44.02234" lon="7.20066">
        <ele>1216.685791</ele>
        <time>2012-05-12T10:18:55Z</time>
      </trkpt>
      <trkpt lat="44.02256" lon="7.20056">
        <ele>1214.7631836</ele>
        <time>2012-05-12T10:19:04Z</time>
      </trkpt>
      <trkpt lat="44.02257" lon="7.20054">
        <ele>1212.8405762</ele>
        <time>2012-05-12T10:19:18Z</time>
      </trkpt>
      <trkpt lat="44.02257" lon="7.20054">
        <ele>1212.8405762</ele>
        <time>2012-05-12T10:19:38Z</time>
      </trkpt>
      <trkpt lat="44.02257" lon="7.20054">
        <ele>1212.3598633</ele>
        <time>2012-05-12T10:20:10Z</time>
      </trkpt>
      <trkpt lat="44.02258" lon="7.20043">
        <ele>1211.3984375</ele>
        <time>2012-05-12T10:20:14Z</time>
      </trkpt>
      <trkpt lat="44.02256" lon="7.20036">
        <ele>1210.9177246</ele>
        <time>2012-05-12T10:20:16Z</time>
      </trkpt>
      <trkpt lat="44.02254" lon="7.20033">
        <ele>1212.3598633</ele>
        <time>2012-05-12T10:20:20Z</time>
      </trkpt>
      <trkpt lat="44.02248" lon="7.20023">
        <ele>1212.3598633</ele>
        <time>2012-05-12T10:20:24Z</time>
      </trkpt>
      <trkpt lat="44.02243" lon="7.20017">
        <ele>1213.3212891</ele>
        <time>2012-05-12T10:20:27Z</time>
      </trkpt>
      <trkpt lat="44.02221" lon="7.20002">
        <ele>1213.8017578</ele>
        <time>2012-05-12T10:20:37Z</time>
      </trkpt>
      <trkpt lat="44.02218" lon="7.20001">
        <ele>1213.8017578</ele>
        <time>2012-05-12T10:20:39Z</time>
      </trkpt>
      <trkpt lat="44.02198" lon="7.20007">
        <ele>1212.3598633</ele>
        <time>2012-05-12T10:20:46Z</time>
      </trkpt>
      <trkpt lat="44.02189" lon="7.20013">
        <ele>1209.9562988</ele>
        <time>2012-05-12T10:20:48Z</time>
      </trkpt>
      <trkpt lat="44.0218" lon="7.20019">
        <ele>1207.5532227</ele>
        <time>2012-05-12T10:20:51Z</time>
      </trkpt>
      <trkpt lat="44.02172" lon="7.20023">
        <ele>1205.6306152</ele>
        <time>2012-05-12T10:20:53Z</time>
      </trkpt>
      <trkpt lat="44.02163" lon="7.20023">
        <ele>1204.6691895</ele>
        <time>2012-05-12T10:20:55Z</time>
      </trkpt>
      <trkpt lat="44.02155" lon="7.20018">
        <ele>1201.7854004</ele>
        <time>2012-05-12T10:20:58Z</time>
      </trkpt>
      <trkpt lat="44.02146" lon="7.20011">
        <ele>1199.862793</ele>
        <time>2012-05-12T10:21:02Z</time>
      </trkpt>
      <trkpt lat="44.02126" lon="7.20008">
        <ele>1198.4206543</ele>
        <time>2012-05-12T10:21:05Z</time>
      </trkpt>
      <trkpt lat="44.02088" lon="7.20027">
        <ele>1198.9013672</ele>
        <time>2012-05-12T10:21:16Z</time>
      </trkpt>
      <trkpt lat="44.02058" lon="7.20044">
        <ele>1196.0175781</ele>
        <time>2012-05-12T10:21:24Z</time>
      </trkpt>
      <trkpt lat="44.02054" lon="7.20045">
        <ele>1196.0175781</ele>
        <time>2012-05-12T10:21:25Z</time>
      </trkpt>
      <trkpt lat="44.02043" lon="7.20048">
        <ele>1193.6140137</ele>
        <time>2012-05-12T10:21:28Z</time>
      </trkpt>
      <trkpt lat="44.02026" lon="7.20051">
        <ele>1191.6914063</ele>
        <time>2012-05-12T10:21:32Z</time>
      </trkpt>
      <trkpt lat="44.02021" lon="7.2005">
        <ele>1190.2495117</ele>
        <time>2012-05-12T10:21:33Z</time>
      </trkpt>
      <trkpt lat="44.02009" lon="7.20049">
        <ele>1188.8076172</ele>
        <time>2012-05-12T10:21:35Z</time>
      </trkpt>
      <trkpt lat="44.01996" lon="7.2005">
        <ele>1187.8461914</ele>
        <time>2012-05-12T10:21:37Z</time>
      </trkpt>
      <trkpt lat="44.01981" lon="7.20053">
        <ele>1187.3654785</ele>
        <time>2012-05-12T10:21:42Z</time>
      </trkpt>
      <trkpt lat="44.01959" lon="7.20057">
        <ele>1184.0009766</ele>
        <time>2012-05-12T10:21:48Z</time>
      </trkpt>
      <trkpt lat="44.01954" lon="7.20059">
        <ele>1184.0009766</ele>
        <time>2012-05-12T10:21:49Z</time>
      </trkpt>
      <trkpt lat="44.01934" lon="7.20065">
        <ele>1180.6364746</ele>
        <time>2012-05-12T10:21:54Z</time>
      </trkpt>
      <trkpt lat="44.01927" lon="7.20069">
        <ele>1179.6748047</ele>
        <time>2012-05-12T10:21:56Z</time>
      </trkpt>
      <trkpt lat="44.01907" lon="7.2008">
        <ele>1175.8295898</ele>
        <time>2012-05-12T10:22:01Z</time>
      </trkpt>
      <trkpt lat="44.01893" lon="7.20089">
        <ele>1172.9458008</ele>
        <time>2012-05-12T10:22:04Z</time>
      </trkpt>
      <trkpt lat="44.0188" lon="7.20092">
        <ele>1171.984375</ele>
        <time>2012-05-12T10:22:07Z</time>
      </trkpt>
      <trkpt lat="44.01872" lon="7.20092">
        <ele>1170.5424805</ele>
        <time>2012-05-12T10:22:09Z</time>
      </trkpt>
      <trkpt lat="44.01857" lon="7.2009">
        <ele>1168.1391602</ele>
        <time>2012-05-12T10:22:12Z</time>
      </trkpt>
      <trkpt lat="44.01847" lon="7.20086">
        <ele>1166.6972656</ele>
        <time>2012-05-12T10:22:14Z</time>
      </trkpt>
      <trkpt lat="44.01831" lon="7.20073">
        <ele>1163.3325195</ele>
        <time>2012-05-12T10:22:18Z</time>
      </trkpt>
      <trkpt lat="44.0182" lon="7.20065">
        <ele>1161.890625</ele>
        <time>2012-05-12T10:22:21Z</time>
      </trkpt>
      <trkpt lat="44.01805" lon="7.20057">
        <ele>1158.0454102</ele>
        <time>2012-05-12T10:22:25Z</time>
      </trkpt>
      <trkpt lat="44.01802" lon="7.20056">
        <ele>1158.0454102</ele>
        <time>2012-05-12T10:22:26Z</time>
      </trkpt>
      <trkpt lat="44.01783" lon="7.20043">
        <ele>1153.7194824</ele>
        <time>2012-05-12T10:22:32Z</time>
      </trkpt>
      <trkpt lat="44.0178" lon="7.20042">
        <ele>1153.7194824</ele>
        <time>2012-05-12T10:22:33Z</time>
      </trkpt>
      <trkpt lat="44.01764" lon="7.20042">
        <ele>1150.3549805</ele>
        <time>2012-05-12T10:22:38Z</time>
      </trkpt>
      <trkpt lat="44.01759" lon="7.20042">
        <ele>1149.8742676</ele>
        <time>2012-05-12T10:22:39Z</time>
      </trkpt>
      <trkpt lat="44.01748" lon="7.20041">
        <ele>1148.9128418</ele>
        <time>2012-05-12T10:22:41Z</time>
      </trkpt>
      <trkpt lat="44.0172" lon="7.20012">
        <ele>1146.5095215</ele>
        <time>2012-05-12T10:22:47Z</time>
      </trkpt>
      <trkpt lat="44.01709" lon="7.1999">
        <ele>1145.5480957</ele>
        <time>2012-05-12T10:22:50Z</time>
      </trkpt>
      <trkpt lat="44.01696" lon="7.19965">
        <ele>1144.1062012</ele>
        <time>2012-05-12T10:22:54Z</time>
      </trkpt>
      <trkpt lat="44.01678" lon="7.19948">
        <ele>1143.6254883</ele>
        <time>2012-05-12T10:22:58Z</time>
      </trkpt>
      <trkpt lat="44.01664" lon="7.19939">
        <ele>1142.6643066</ele>
        <time>2012-05-12T10:23:00Z</time>
      </trkpt>
      <trkpt lat="44.01647" lon="7.19924">
        <ele>1140.2609863</ele>
        <time>2012-05-12T10:23:03Z</time>
      </trkpt>
      <trkpt lat="44.01617" lon="7.199">
        <ele>1140.2609863</ele>
        <time>2012-05-12T10:23:14Z</time>
      </trkpt>
      <trkpt lat="44.01615" lon="7.19899">
        <ele>1139.7802734</ele>
        <time>2012-05-12T10:24:11Z</time>
      </trkpt>
      <trkpt lat="44.01597" lon="7.19895">
        <ele>1136.8962402</ele>
        <time>2012-05-12T10:24:16Z</time>
      </trkpt>
      <trkpt lat="44.01571" lon="7.19894">
        <ele>1135.9350586</ele>
        <time>2012-05-12T10:24:21Z</time>
      </trkpt>
      <trkpt lat="44.01551" lon="7.19877">
        <ele>1135.4543457</ele>
        <time>2012-05-12T10:24:26Z</time>
      </trkpt>
      <trkpt lat="44.01539" lon="7.19839">
        <ele>1133.0510254</ele>
        <time>2012-05-12T10:24:33Z</time>
      </trkpt>
      <trkpt lat="44.01535" lon="7.19825">
        <ele>1131.6088867</ele>
        <time>2012-05-12T10:24:35Z</time>
      </trkpt>
      <trkpt lat="44.01532" lon="7.19803">
        <ele>1129.6862793</ele>
        <time>2012-05-12T10:24:38Z</time>
      </trkpt>
      <trkpt lat="44.01535" lon="7.19789">
        <ele>1129.2055664</ele>
        <time>2012-05-12T10:24:40Z</time>
      </trkpt>
      <trkpt lat="44.01542" lon="7.19767">
        <ele>1126.3217773</ele>
        <time>2012-05-12T10:24:45Z</time>
      </trkpt>
      <trkpt lat="44.01551" lon="7.19746">
        <ele>1122.4765625</ele>
        <time>2012-05-12T10:24:50Z</time>
      </trkpt>
      <trkpt lat="44.01553" lon="7.19742">
        <ele>1122.4765625</ele>
        <time>2012-05-12T10:24:51Z</time>
      </trkpt>
      <trkpt lat="44.01558" lon="7.19733">
        <ele>1120.0732422</ele>
        <time>2012-05-12T10:24:54Z</time>
      </trkpt>
      <trkpt lat="44.01564" lon="7.19723">
        <ele>1118.1506348</ele>
        <time>2012-05-12T10:24:56Z</time>
      </trkpt>
      <trkpt lat="44.01569" lon="7.19713">
        <ele>1117.6699219</ele>
        <time>2012-05-12T10:24:58Z</time>
      </trkpt>
      <trkpt lat="44.0158" lon="7.19699">
        <ele>1115.7473145</ele>
        <time>2012-05-12T10:25:01Z</time>
      </trkpt>
      <trkpt lat="44.01589" lon="7.19688">
        <ele>1114.3051758</ele>
        <time>2012-05-12T10:25:04Z</time>
      </trkpt>
      <trkpt lat="44.01602" lon="7.19661">
        <ele>1110.9406738</ele>
        <time>2012-05-12T10:25:11Z</time>
      </trkpt>
      <trkpt lat="44.01602" lon="7.19661">
        <ele>1110.9406738</ele>
        <time>2012-05-12T10:25:13Z</time>
      </trkpt>
      <trkpt lat="44.0158" lon="7.19633">
        <ele>1110.4599609</ele>
        <time>2012-05-12T10:25:22Z</time>
      </trkpt>
      <trkpt lat="44.01575" lon="7.19633">
        <ele>1109.979248</ele>
        <time>2012-05-12T10:25:25Z</time>
      </trkpt>
      <trkpt lat="44.01571" lon="7.19612">
        <ele>1110.4599609</ele>
        <time>2012-05-12T10:25:38Z</time>
      </trkpt>
      <trkpt lat="44.01556" lon="7.19611">
        <ele>1111.9020996</ele>
        <time>2012-05-12T10:25:56Z</time>
      </trkpt>
      <trkpt lat="44.01555" lon="7.1961">
        <ele>1112.3825684</ele>
        <time>2012-05-12T10:25:57Z</time>
      </trkpt>
      <trkpt lat="44.0155" lon="7.19614">
        <ele>1111.9020996</ele>
        <time>2012-05-12T10:26:01Z</time>
      </trkpt>
      <trkpt lat="44.0152" lon="7.19612">
        <ele>1111.4213867</ele>
        <time>2012-05-12T10:26:16Z</time>
      </trkpt>
      <trkpt lat="44.01519" lon="7.1961">
        <ele>1111.4213867</ele>
        <time>2012-05-12T10:26:56Z</time>
      </trkpt>
      <trkpt lat="44.01483" lon="7.19596">
        <ele>1111.4213867</ele>
        <time>2012-05-12T10:27:08Z</time>
      </trkpt>
      <trkpt lat="44.01438" lon="7.19585">
        <ele>1111.9020996</ele>
        <time>2012-05-12T10:27:19Z</time>
      </trkpt>
      <trkpt lat="44.0141" lon="7.19577">
        <ele>1109.979248</ele>
        <time>2012-05-12T10:27:26Z</time>
      </trkpt>
      <trkpt lat="44.01369" lon="7.19544">
        <ele>1107.5761719</ele>
        <time>2012-05-12T10:27:37Z</time>
      </trkpt>
      <trkpt lat="44.01354" lon="7.1953">
        <ele>1107.095459</ele>
        <time>2012-05-12T10:27:41Z</time>
      </trkpt>
      <trkpt lat="44.01333" lon="7.19501">
        <ele>1105.6535645</ele>
        <time>2012-05-12T10:27:47Z</time>
      </trkpt>
      <trkpt lat="44.0132" lon="7.1946">
        <ele>1101.8083496</ele>
        <time>2012-05-12T10:27:56Z</time>
      </trkpt>
      <trkpt lat="44.01319" lon="7.19456">
        <ele>1101.8083496</ele>
        <time>2012-05-12T10:27:57Z</time>
      </trkpt>
      <trkpt lat="44.01318" lon="7.19447">
        <ele>1100.8469238</ele>
        <time>2012-05-12T10:27:59Z</time>
      </trkpt>
      <trkpt lat="44.01318" lon="7.19425">
        <ele>1097.0014648</ele>
        <time>2012-05-12T10:28:03Z</time>
      </trkpt>
      <trkpt lat="44.01318" lon="7.19419">
        <ele>1097.0014648</ele>
        <time>2012-05-12T10:28:04Z</time>
      </trkpt>
      <trkpt lat="44.01323" lon="7.194">
        <ele>1096.0402832</ele>
        <time>2012-05-12T10:28:08Z</time>
      </trkpt>
      <trkpt lat="44.01324" lon="7.19383">
        <ele>1094.1176758</ele>
        <time>2012-05-12T10:28:11Z</time>
      </trkpt>
      <trkpt lat="44.01333" lon="7.19363">
        <ele>1091.2336426</ele>
        <time>2012-05-12T10:28:16Z</time>
      </trkpt>
      <trkpt lat="44.01338" lon="7.19356">
        <ele>1090.7529297</ele>
        <time>2012-05-12T10:28:18Z</time>
      </trkpt>
      <trkpt lat="44.01368" lon="7.19331">
        <ele>1091.7143555</ele>
        <time>2012-05-12T10:28:31Z</time>
      </trkpt>
      <trkpt lat="44.01371" lon="7.19327">
        <ele>1093.15625</ele>
        <time>2012-05-12T10:28:45Z</time>
      </trkpt>
      <trkpt lat="44.01371" lon="7.19327">
        <ele>1093.6369629</ele>
        <time>2012-05-12T10:28:47Z</time>
      </trkpt>
      <trkpt lat="44.01385" lon="7.19287">
        <ele>1093.15625</ele>
        <time>2012-05-12T10:28:59Z</time>
      </trkpt>
      <trkpt lat="44.0138" lon="7.19273">
        <ele>1092.6757813</ele>
        <time>2012-05-12T10:29:02Z</time>
      </trkpt>
      <trkpt lat="44.01369" lon="7.19266">
        <ele>1091.7143555</ele>
        <time>2012-05-12T10:29:05Z</time>
      </trkpt>
      <trkpt lat="44.01369" lon="7.19252">
        <ele>1092.1950684</ele>
        <time>2012-05-12T10:29:09Z</time>
      </trkpt>
      <trkpt lat="44.01374" lon="7.19244">
        <ele>1091.2336426</ele>
        <time>2012-05-12T10:29:12Z</time>
      </trkpt>
      <trkpt lat="44.01377" lon="7.19234">
        <ele>1090.7529297</ele>
        <time>2012-05-12T10:29:15Z</time>
      </trkpt>
      <trkpt lat="44.01377" lon="7.19227">
        <ele>1090.2724609</ele>
        <time>2012-05-12T10:29:17Z</time>
      </trkpt>
      <trkpt lat="44.01347" lon="7.19217">
        <ele>1090.7529297</ele>
        <time>2012-05-12T10:29:26Z</time>
      </trkpt>
      <trkpt lat="44.01305" lon="7.19203">
        <ele>1089.791748</ele>
        <time>2012-05-12T10:29:39Z</time>
      </trkpt>
      <trkpt lat="44.01292" lon="7.19206">
        <ele>1088.8305664</ele>
        <time>2012-05-12T10:29:41Z</time>
      </trkpt>
      <trkpt lat="44.01287" lon="7.19208">
        <ele>1087.3884277</ele>
        <time>2012-05-12T10:29:43Z</time>
      </trkpt>
      <trkpt lat="44.0127" lon="7.19212">
        <ele>1085.4658203</ele>
        <time>2012-05-12T10:29:46Z</time>
      </trkpt>
      <trkpt lat="44.01266" lon="7.19212">
        <ele>1084.5046387</ele>
        <time>2012-05-12T10:29:47Z</time>
      </trkpt>
      <trkpt lat="44.01252" lon="7.19213">
        <ele>1083.5429688</ele>
        <time>2012-05-12T10:29:50Z</time>
      </trkpt>
      <trkpt lat="44.0124" lon="7.19214">
        <ele>1080.6591797</ele>
        <time>2012-05-12T10:29:53Z</time>
      </trkpt>
      <trkpt lat="44.01227" lon="7.19216">
        <ele>1079.217041</ele>
        <time>2012-05-12T10:29:56Z</time>
      </trkpt>
      <trkpt lat="44.012" lon="7.19211">
        <ele>1078.7365723</ele>
        <time>2012-05-12T10:30:02Z</time>
      </trkpt>
      <trkpt lat="44.01193" lon="7.19208">
        <ele>1076.333252</ele>
        <time>2012-05-12T10:30:04Z</time>
      </trkpt>
      <trkpt lat="44.01186" lon="7.19208">
        <ele>1075.3718262</ele>
        <time>2012-05-12T10:30:06Z</time>
      </trkpt>
      <trkpt lat="44.01173" lon="7.19205">
        <ele>1072.0073242</ele>
        <time>2012-05-12T10:30:09Z</time>
      </trkpt>
      <trkpt lat="44.01172" lon="7.19205">
        <ele>1070.5654297</ele>
        <time>2012-05-12T10:30:10Z</time>
      </trkpt>
      <trkpt lat="44.01153" lon="7.19195">
        <ele>1069.1235352</ele>
        <time>2012-05-12T10:30:13Z</time>
      </trkpt>
      <trkpt lat="44.01143" lon="7.19183">
        <ele>1066.7199707</ele>
        <time>2012-05-12T10:30:16Z</time>
      </trkpt>
      <trkpt lat="44.01131" lon="7.19169">
        <ele>1064.3166504</ele>
        <time>2012-05-12T10:30:20Z</time>
      </trkpt>
      <trkpt lat="44.01129" lon="7.19161">
        <ele>1061.9135742</ele>
        <time>2012-05-12T10:30:23Z</time>
      </trkpt>
      <trkpt lat="44.01129" lon="7.19161">
        <ele>1062.394043</ele>
        <time>2012-05-12T10:30:25Z</time>
      </trkpt>
      <trkpt lat="44.01129" lon="7.19161">
        <ele>1062.394043</ele>
        <time>2012-05-12T10:30:56Z</time>
      </trkpt>
      <trkpt lat="44.01129" lon="7.19161">
        <ele>1061.9135742</ele>
        <time>2012-05-12T10:31:34Z</time>
      </trkpt>
      <trkpt lat="44.01135" lon="7.19175">
        <ele>1064.7973633</ele>
        <time>2012-05-12T10:31:44Z</time>
      </trkpt>
      <trkpt lat="44.01135" lon="7.19175">
        <ele>1064.7973633</ele>
        <time>2012-05-12T10:31:57Z</time>
      </trkpt>
      <trkpt lat="44.0113" lon="7.19165">
        <ele>1062.394043</ele>
        <time>2012-05-12T10:32:03Z</time>
      </trkpt>
      <trkpt lat="44.01126" lon="7.19152">
        <ele>1060.9521484</ele>
        <time>2012-05-12T10:32:07Z</time>
      </trkpt>
      <trkpt lat="44.01126" lon="7.19152">
        <ele>1060.9521484</ele>
        <time>2012-05-12T10:32:43Z</time>
      </trkpt>
      <trkpt lat="44.0112" lon="7.19124">
        <ele>1059.5102539</ele>
        <time>2012-05-12T10:32:51Z</time>
      </trkpt>
      <trkpt lat="44.01111" lon="7.19115">
        <ele>1058.0683594</ele>
        <time>2012-05-12T10:32:55Z</time>
      </trkpt>
      <trkpt lat="44.01097" lon="7.19111">
        <ele>1056.1455078</ele>
        <time>2012-05-12T10:32:58Z</time>
      </trkpt>
      <trkpt lat="44.01088" lon="7.19107">
        <ele>1055.1843262</ele>
        <time>2012-05-12T10:33:00Z</time>
      </trkpt>
      <trkpt lat="44.01072" lon="7.19077">
        <ele>1052.300293</ele>
        <time>2012-05-12T10:33:05Z</time>
      </trkpt>
      <trkpt lat="44.01063" lon="7.19054">
        <ele>1051.3388672</ele>
        <time>2012-05-12T10:33:09Z</time>
      </trkpt>
      <trkpt lat="44.01053" lon="7.19041">
        <ele>1049.4162598</ele>
        <time>2012-05-12T10:33:12Z</time>
      </trkpt>
      <trkpt lat="44.01035" lon="7.1903">
        <ele>1046.0517578</ele>
        <time>2012-05-12T10:33:18Z</time>
      </trkpt>
      <trkpt lat="44.01031" lon="7.19027">
        <ele>1046.0517578</ele>
        <time>2012-05-12T10:33:19Z</time>
      </trkpt>
      <trkpt lat="44.01011" lon="7.19012">
        <ele>1042.6872559</ele>
        <time>2012-05-12T10:33:25Z</time>
      </trkpt>
      <trkpt lat="44.00989" lon="7.18995">
        <ele>1038.842041</ele>
        <time>2012-05-12T10:33:33Z</time>
      </trkpt>
      <trkpt lat="44.00982" lon="7.18992">
        <ele>1037.8806152</ele>
        <time>2012-05-12T10:33:35Z</time>
      </trkpt>
      <trkpt lat="44.00959" lon="7.18977">
        <ele>1034.0351563</ele>
        <time>2012-05-12T10:33:45Z</time>
      </trkpt>
      <trkpt lat="44.00951" lon="7.1896">
        <ele>1032.5932617</ele>
        <time>2012-05-12T10:33:50Z</time>
      </trkpt>
      <trkpt lat="44.0095" lon="7.18949">
        <ele>1031.6318359</ele>
        <time>2012-05-12T10:33:53Z</time>
      </trkpt>
      <trkpt lat="44.00948" lon="7.18936">
        <ele>1029.7092285</ele>
        <time>2012-05-12T10:33:56Z</time>
      </trkpt>
      <trkpt lat="44.00946" lon="7.18932">
        <ele>1028.267334</ele>
        <time>2012-05-12T10:33:57Z</time>
      </trkpt>
      <trkpt lat="44.00951" lon="7.18915">
        <ele>1026.8254395</ele>
        <time>2012-05-12T10:34:01Z</time>
      </trkpt>
      <trkpt lat="44.00955" lon="7.18902">
        <ele>1025.3833008</ele>
        <time>2012-05-12T10:34:03Z</time>
      </trkpt>
      <trkpt lat="44.00959" lon="7.18889">
        <ele>1023.9414063</ele>
        <time>2012-05-12T10:34:05Z</time>
      </trkpt>
      <trkpt lat="44.00963" lon="7.18884">
        <ele>1022.9802246</ele>
        <time>2012-05-12T10:34:06Z</time>
      </trkpt>
      <trkpt lat="44.00969" lon="7.18873">
        <ele>1021.5380859</ele>
        <time>2012-05-12T10:34:08Z</time>
      </trkpt>
      <trkpt lat="44.00983" lon="7.1885">
        <ele>1017.2121582</ele>
        <time>2012-05-12T10:34:13Z</time>
      </trkpt>
      <trkpt lat="44.00985" lon="7.18846">
        <ele>1017.2121582</ele>
        <time>2012-05-12T10:34:14Z</time>
      </trkpt>
      <trkpt lat="44.0099" lon="7.18841">
        <ele>1017.692627</ele>
        <time>2012-05-12T10:34:16Z</time>
      </trkpt>
      <trkpt lat="44.00999" lon="7.18832">
        <ele>1015.2895508</ele>
        <time>2012-05-12T10:34:19Z</time>
      </trkpt>
      <trkpt lat="44.01017" lon="7.18818">
        <ele>1011.9250488</ele>
        <time>2012-05-12T10:34:27Z</time>
      </trkpt>
      <trkpt lat="44.01017" lon="7.18818">
        <ele>1011.4443359</ele>
        <time>2012-05-12T10:34:36Z</time>
      </trkpt>
      <trkpt lat="44.01011" lon="7.18782">
        <ele>1011.4443359</ele>
        <time>2012-05-12T10:34:38Z</time>
      </trkpt>
      <trkpt lat="44.01008" lon="7.18781">
        <ele>1013.3669434</ele>
        <time>2012-05-12T10:34:52Z</time>
      </trkpt>
      <trkpt lat="44.01008" lon="7.18781">
        <ele>1013.3669434</ele>
        <time>2012-05-12T10:34:55Z</time>
      </trkpt>
      <trkpt lat="44.00994" lon="7.18776">
        <ele>1015.2895508</ele>
        <time>2012-05-12T10:35:10Z</time>
      </trkpt>
      <trkpt lat="44.00994" lon="7.18776">
        <ele>1015.2895508</ele>
        <time>2012-05-12T10:35:14Z</time>
      </trkpt>
      <trkpt lat="44.00945" lon="7.18747">
        <ele>1018.6540527</ele>
        <time>2012-05-12T10:35:58Z</time>
      </trkpt>
      <trkpt lat="44.0093" lon="7.18741">
        <ele>1019.1347656</ele>
        <time>2012-05-12T10:36:04Z</time>
      </trkpt>
      <trkpt lat="44.00921" lon="7.18738">
        <ele>1020.5769043</ele>
        <time>2012-05-12T10:36:12Z</time>
      </trkpt>
      <trkpt lat="44.0092" lon="7.18737">
        <ele>1023.4609375</ele>
        <time>2012-05-12T10:36:27Z</time>
      </trkpt>
      <trkpt lat="44.0092" lon="7.18737">
        <ele>1025.3833008</ele>
        <time>2012-05-12T10:36:42Z</time>
      </trkpt>
      <trkpt lat="44.0092" lon="7.18737">
        <ele>1027.3061523</ele>
        <time>2012-05-12T10:36:52Z</time>
      </trkpt>
      <trkpt lat="44.0092" lon="7.18737">
        <ele>1027.3061523</ele>
        <time>2012-05-12T10:36:57Z</time>
      </trkpt>
      <trkpt lat="44.0092" lon="7.18737">
        <ele>1028.267334</ele>
        <time>2012-05-12T10:37:08Z</time>
      </trkpt>
      <trkpt lat="44.00902" lon="7.18717">
        <ele>1028.267334</ele>
        <time>2012-05-12T10:37:10Z</time>
      </trkpt>
      <trkpt lat="44.00902" lon="7.18731">
        <ele>1028.267334</ele>
        <time>2012-05-12T10:37:35Z</time>
      </trkpt>
      <trkpt lat="44.00903" lon="7.18725">
        <ele>1027.7866211</ele>
        <time>2012-05-12T10:38:01Z</time>
      </trkpt>
      <trkpt lat="44.00909" lon="7.18677">
        <ele>1027.3061523</ele>
        <time>2012-05-12T10:38:15Z</time>
      </trkpt>
      <trkpt lat="44.00886" lon="7.18645">
        <ele>1026.8254395</ele>
        <time>2012-05-12T10:38:24Z</time>
      </trkpt>
      <trkpt lat="44.00866" lon="7.18639">
        <ele>1027.7866211</ele>
        <time>2012-05-12T10:38:30Z</time>
      </trkpt>
      <trkpt lat="44.00814" lon="7.18613">
        <ele>1027.3061523</ele>
        <time>2012-05-12T10:38:44Z</time>
      </trkpt>
      <trkpt lat="44.00797" lon="7.18563">
        <ele>1026.3447266</ele>
        <time>2012-05-12T10:38:56Z</time>
      </trkpt>
      <trkpt lat="44.00801" lon="7.1852">
        <ele>1025.8640137</ele>
        <time>2012-05-12T10:39:05Z</time>
      </trkpt>
      <trkpt lat="44.00796" lon="7.18505">
        <ele>1025.3833008</ele>
        <time>2012-05-12T10:39:09Z</time>
      </trkpt>
      <trkpt lat="44.00792" lon="7.18493">
        <ele>1025.8640137</ele>
        <time>2012-05-12T10:39:12Z</time>
      </trkpt>
      <trkpt lat="44.00792" lon="7.18473">
        <ele>1024.4221191</ele>
        <time>2012-05-12T10:39:18Z</time>
      </trkpt>
      <trkpt lat="44.0081" lon="7.18427">
        <ele>1024.4221191</ele>
        <time>2012-05-12T10:39:31Z</time>
      </trkpt>
      <trkpt lat="44.0081" lon="7.18424">
        <ele>1023.9414063</ele>
        <time>2012-05-12T10:39:32Z</time>
      </trkpt>
      <trkpt lat="44.00813" lon="7.18414">
        <ele>1022.9802246</ele>
        <time>2012-05-12T10:39:48Z</time>
      </trkpt>
      <trkpt lat="44.00813" lon="7.18414">
        <ele>1023.4609375</ele>
        <time>2012-05-12T10:39:50Z</time>
      </trkpt>
      <trkpt lat="44.00815" lon="7.18407">
        <ele>1022.9802246</ele>
        <time>2012-05-12T10:39:54Z</time>
      </trkpt>
      <trkpt lat="44.00818" lon="7.18397">
        <ele>1022.9802246</ele>
        <time>2012-05-12T10:39:57Z</time>
      </trkpt>
      <trkpt lat="44.00818" lon="7.18393">
        <ele>1022.0187988</ele>
        <time>2012-05-12T10:40:01Z</time>
      </trkpt>
      <trkpt lat="44.00805" lon="7.18411">
        <ele>1020.0961914</ele>
        <time>2012-05-12T10:40:08Z</time>
      </trkpt>
      <trkpt lat="44.00805" lon="7.18411">
        <ele>1019.6154785</ele>
        <time>2012-05-12T10:40:09Z</time>
      </trkpt>
      <trkpt lat="44.00781" lon="7.18389">
        <ele>1017.2121582</ele>
        <time>2012-05-12T10:40:11Z</time>
      </trkpt>
      <trkpt lat="44.00739" lon="7.18382">
        <ele>1014.8088379</ele>
        <time>2012-05-12T10:40:19Z</time>
      </trkpt>
      <trkpt lat="44.00728" lon="7.18356">
        <ele>1012.4055176</ele>
        <time>2012-05-12T10:40:25Z</time>
      </trkpt>
      <trkpt lat="44.00728" lon="7.18352">
        <ele>1011.4443359</ele>
        <time>2012-05-12T10:40:26Z</time>
      </trkpt>
      <trkpt lat="44.00716" lon="7.18342">
        <ele>1010.0021973</ele>
        <time>2012-05-12T10:40:30Z</time>
      </trkpt>
      <trkpt lat="44.00679" lon="7.18349">
        <ele>1007.5991211</ele>
        <time>2012-05-12T10:40:43Z</time>
      </trkpt>
      <trkpt lat="44.0065" lon="7.18342">
        <ele>1004.7150879</ele>
        <time>2012-05-12T10:40:51Z</time>
      </trkpt>
      <trkpt lat="44.00646" lon="7.18338">
        <ele>1004.7150879</ele>
        <time>2012-05-12T10:40:52Z</time>
      </trkpt>
      <trkpt lat="44.00633" lon="7.18322">
        <ele>1002.7922363</ele>
        <time>2012-05-12T10:40:55Z</time>
      </trkpt>
      <trkpt lat="44.00624" lon="7.18311">
        <ele>1001.8310547</ele>
        <time>2012-05-12T10:40:57Z</time>
      </trkpt>
      <trkpt lat="44.0061" lon="7.18291">
        <ele>999.9084473</ele>
        <time>2012-05-12T10:41:02Z</time>
      </trkpt>
      <trkpt lat="44.00604" lon="7.1826">
        <ele>997.0244141</ele>
        <time>2012-05-12T10:41:07Z</time>
      </trkpt>
      <trkpt lat="44.00594" lon="7.18241">
        <ele>996.0632324</ele>
        <time>2012-05-12T10:41:11Z</time>
      </trkpt>
      <trkpt lat="44.0059" lon="7.18233">
        <ele>995.1018066</ele>
        <time>2012-05-12T10:41:13Z</time>
      </trkpt>
      <trkpt lat="44.00589" lon="7.18219">
        <ele>992.2180176</ele>
        <time>2012-05-12T10:41:16Z</time>
      </trkpt>
      <trkpt lat="44.00589" lon="7.18214">
        <ele>991.2565918</ele>
        <time>2012-05-12T10:41:17Z</time>
      </trkpt>
      <trkpt lat="44.00594" lon="7.18189">
        <ele>987.8918457</ele>
        <time>2012-05-12T10:41:22Z</time>
      </trkpt>
      <trkpt lat="44.00595" lon="7.18184">
        <ele>987.8918457</ele>
        <time>2012-05-12T10:41:23Z</time>
      </trkpt>
      <trkpt lat="44.00597" lon="7.18179">
        <ele>986.9304199</ele>
        <time>2012-05-12T10:41:24Z</time>
      </trkpt>
      <trkpt lat="44.00599" lon="7.18161">
        <ele>985.0080566</ele>
        <time>2012-05-12T10:41:27Z</time>
      </trkpt>
      <trkpt lat="44.00606" lon="7.18142">
        <ele>980.6821289</ele>
        <time>2012-05-12T10:41:30Z</time>
      </trkpt>
      <trkpt lat="44.00609" lon="7.18136">
        <ele>983.565918</ele>
        <time>2012-05-12T10:41:31Z</time>
      </trkpt>
      <trkpt lat="44.0061" lon="7.18128">
        <ele>983.565918</ele>
        <time>2012-05-12T10:41:32Z</time>
      </trkpt>
      <trkpt lat="44.00607" lon="7.18094">
        <ele>981.1628418</ele>
        <time>2012-05-12T10:41:41Z</time>
      </trkpt>
      <trkpt lat="44.00607" lon="7.18094">
        <ele>981.1628418</ele>
        <time>2012-05-12T10:41:58Z</time>
      </trkpt>
      <trkpt lat="44.00607" lon="7.18094">
        <ele>981.1628418</ele>
        <time>2012-05-12T10:42:23Z</time>
      </trkpt>
      <trkpt lat="44.00604" lon="7.18081">
        <ele>980.6821289</ele>
        <time>2012-05-12T10:42:27Z</time>
      </trkpt>
      <trkpt lat="44.00578" lon="7.18066">
        <ele>977.7980957</ele>
        <time>2012-05-12T10:42:38Z</time>
      </trkpt>
      <trkpt lat="44.00566" lon="7.18054">
        <ele>977.7980957</ele>
        <time>2012-05-12T10:42:41Z</time>
      </trkpt>
      <trkpt lat="44.00559" lon="7.18052">
        <ele>981.1628418</ele>
        <time>2012-05-12T10:42:43Z</time>
      </trkpt>
      <trkpt lat="44.00555" lon="7.18051">
        <ele>981.1628418</ele>
        <time>2012-05-12T10:42:44Z</time>
      </trkpt>
      <trkpt lat="44.00547" lon="7.18048">
        <ele>978.2788086</ele>
        <time>2012-05-12T10:42:46Z</time>
      </trkpt>
      <trkpt lat="44.0054" lon="7.18045">
        <ele>978.7595215</ele>
        <time>2012-05-12T10:42:48Z</time>
      </trkpt>
      <trkpt lat="44.00536" lon="7.18026">
        <ele>977.7980957</ele>
        <time>2012-05-12T10:42:52Z</time>
      </trkpt>
      <trkpt lat="44.0055" lon="7.17983">
        <ele>978.2788086</ele>
        <time>2012-05-12T10:43:01Z</time>
      </trkpt>
      <trkpt lat="44.00532" lon="7.17954">
        <ele>977.7980957</ele>
        <time>2012-05-12T10:43:09Z</time>
      </trkpt>
      <trkpt lat="44.00525" lon="7.17927">
        <ele>976.3562012</ele>
        <time>2012-05-12T10:43:14Z</time>
      </trkpt>
      <trkpt lat="44.00516" lon="7.17903">
        <ele>976.3562012</ele>
        <time>2012-05-12T10:43:20Z</time>
      </trkpt>
      <trkpt lat="44.00507" lon="7.17887">
        <ele>975.3947754</ele>
        <time>2012-05-12T10:43:24Z</time>
      </trkpt>
      <trkpt lat="44.00506" lon="7.17864">
        <ele>973.9528809</ele>
        <time>2012-05-12T10:43:28Z</time>
      </trkpt>
      <trkpt lat="44.0051" lon="7.17855">
        <ele>974.9143066</ele>
        <time>2012-05-12T10:43:30Z</time>
      </trkpt>
      <trkpt lat="44.00505" lon="7.17837">
        <ele>974.4335938</ele>
        <time>2012-05-12T10:43:37Z</time>
      </trkpt>
      <trkpt lat="44.00495" lon="7.17831">
        <ele>974.4335938</ele>
        <time>2012-05-12T10:43:41Z</time>
      </trkpt>
      <trkpt lat="44.00489" lon="7.17828">
        <ele>975.3947754</ele>
        <time>2012-05-12T10:43:43Z</time>
      </trkpt>
      <trkpt lat="44.00472" lon="7.17822">
        <ele>974.9143066</ele>
        <time>2012-05-12T10:43:48Z</time>
      </trkpt>
      <trkpt lat="44.00466" lon="7.17815">
        <ele>975.3947754</ele>
        <time>2012-05-12T10:43:51Z</time>
      </trkpt>
      <trkpt lat="44.00466" lon="7.17801">
        <ele>974.9143066</ele>
        <time>2012-05-12T10:43:55Z</time>
      </trkpt>
      <trkpt lat="44.00466" lon="7.1779">
        <ele>973.4724121</ele>
        <time>2012-05-12T10:43:57Z</time>
      </trkpt>
      <trkpt lat="44.00466" lon="7.17776">
        <ele>972.9916992</ele>
        <time>2012-05-12T10:43:59Z</time>
      </trkpt>
      <trkpt lat="44.00475" lon="7.17752">
        <ele>972.0302734</ele>
        <time>2012-05-12T10:44:03Z</time>
      </trkpt>
      <trkpt lat="44.00477" lon="7.17728">
        <ele>971.5493164</ele>
        <time>2012-05-12T10:44:07Z</time>
      </trkpt>
      <trkpt lat="44.00477" lon="7.17714">
        <ele>971.5493164</ele>
        <time>2012-05-12T10:44:09Z</time>
      </trkpt>
      <trkpt lat="44.00477" lon="7.17694">
        <ele>970.5881348</ele>
        <time>2012-05-12T10:44:12Z</time>
      </trkpt>
      <trkpt lat="44.00477" lon="7.17669">
        <ele>968.6655273</ele>
        <time>2012-05-12T10:44:16Z</time>
      </trkpt>
      <trkpt lat="44.00472" lon="7.17656">
        <ele>967.2236328</ele>
        <time>2012-05-12T10:44:19Z</time>
      </trkpt>
      <trkpt lat="44.00471" lon="7.17646">
        <ele>965.7817383</ele>
        <time>2012-05-12T10:44:21Z</time>
      </trkpt>
      <trkpt lat="44.00475" lon="7.17625">
        <ele>962.4169922</ele>
        <time>2012-05-12T10:44:27Z</time>
      </trkpt>
      <trkpt lat="44.00476" lon="7.17619">
        <ele>962.4169922</ele>
        <time>2012-05-12T10:44:28Z</time>
      </trkpt>
      <trkpt lat="44.00479" lon="7.176">
        <ele>960.9750977</ele>
        <time>2012-05-12T10:44:33Z</time>
      </trkpt>
      <trkpt lat="44.00482" lon="7.17591">
        <ele>961.4558105</ele>
        <time>2012-05-12T10:44:46Z</time>
      </trkpt>
      <trkpt lat="44.0048" lon="7.17592">
        <ele>960.9750977</ele>
        <time>2012-05-12T10:44:54Z</time>
      </trkpt>
      <trkpt lat="44.00464" lon="7.17592">
        <ele>959.0524902</ele>
        <time>2012-05-12T10:45:00Z</time>
      </trkpt>
      <trkpt lat="44.00457" lon="7.1759">
        <ele>958.0913086</ele>
        <time>2012-05-12T10:45:02Z</time>
      </trkpt>
      <trkpt lat="44.00436" lon="7.17579">
        <ele>957.1298828</ele>
        <time>2012-05-12T10:45:06Z</time>
      </trkpt>
      <trkpt lat="44.00418" lon="7.17579">
        <ele>955.2070313</ele>
        <time>2012-05-12T10:45:12Z</time>
      </trkpt>
      <trkpt lat="44.00403" lon="7.17579">
        <ele>954.7263184</ele>
        <time>2012-05-12T10:45:16Z</time>
      </trkpt>
      <trkpt lat="44.00396" lon="7.17579">
        <ele>954.7263184</ele>
        <time>2012-05-12T10:45:18Z</time>
      </trkpt>
      <trkpt lat="44.00381" lon="7.17574">
        <ele>954.7263184</ele>
        <time>2012-05-12T10:45:24Z</time>
      </trkpt>
      <trkpt lat="44.00375" lon="7.1757">
        <ele>954.2458496</ele>
        <time>2012-05-12T10:45:26Z</time>
      </trkpt>
      <trkpt lat="44.00341" lon="7.17556">
        <ele>952.8037109</ele>
        <time>2012-05-12T10:45:35Z</time>
      </trkpt>
      <trkpt lat="44.0033" lon="7.17533">
        <ele>950.4006348</ele>
        <time>2012-05-12T10:45:40Z</time>
      </trkpt>
      <trkpt lat="44.00333" lon="7.17527">
        <ele>950.4006348</ele>
        <time>2012-05-12T10:45:41Z</time>
      </trkpt>
      <trkpt lat="44.00338" lon="7.17504">
        <ele>949.439209</ele>
        <time>2012-05-12T10:45:44Z</time>
      </trkpt>
      <trkpt lat="44.00329" lon="7.17466">
        <ele>947.5166016</ele>
        <time>2012-05-12T10:45:51Z</time>
      </trkpt>
      <trkpt lat="44.00336" lon="7.17449">
        <ele>945.5939941</ele>
        <time>2012-05-12T10:45:55Z</time>
      </trkpt>
      <trkpt lat="44.00341" lon="7.1744">
        <ele>944.6325684</ele>
        <time>2012-05-12T10:45:57Z</time>
      </trkpt>
      <trkpt lat="44.0034" lon="7.1742">
        <ele>942.7102051</ele>
        <time>2012-05-12T10:46:01Z</time>
      </trkpt>
      <trkpt lat="44.00342" lon="7.17389">
        <ele>941.7487793</ele>
        <time>2012-05-12T10:46:09Z</time>
      </trkpt>
      <trkpt lat="44.00338" lon="7.17387">
        <ele>941.7487793</ele>
        <time>2012-05-12T10:46:11Z</time>
      </trkpt>
      <trkpt lat="44.00309" lon="7.17373">
        <ele>942.2294922</ele>
        <time>2012-05-12T10:46:19Z</time>
      </trkpt>
      <trkpt lat="44.00297" lon="7.1737">
        <ele>942.2294922</ele>
        <time>2012-05-12T10:46:21Z</time>
      </trkpt>
      <trkpt lat="44.00283" lon="7.17377">
        <ele>940.7873535</ele>
        <time>2012-05-12T10:46:24Z</time>
      </trkpt>
      <trkpt lat="44.00274" lon="7.17379">
        <ele>939.3452148</ele>
        <time>2012-05-12T10:46:26Z</time>
      </trkpt>
      <trkpt lat="44.00246" lon="7.1738">
        <ele>936.9418945</ele>
        <time>2012-05-12T10:46:33Z</time>
      </trkpt>
      <trkpt lat="44.00231" lon="7.17383">
        <ele>934.5388184</ele>
        <time>2012-05-12T10:46:37Z</time>
      </trkpt>
      <trkpt lat="44.0022" lon="7.17379">
        <ele>932.135498</ele>
        <time>2012-05-12T10:46:40Z</time>
      </trkpt>
      <trkpt lat="44.00217" lon="7.17376">
        <ele>931.1743164</ele>
        <time>2012-05-12T10:46:41Z</time>
      </trkpt>
      <trkpt lat="44.0021" lon="7.17345">
        <ele>928.7709961</ele>
        <time>2012-05-12T10:46:47Z</time>
      </trkpt>
      <trkpt lat="44.00209" lon="7.17321">
        <ele>927.3291016</ele>
        <time>2012-05-12T10:46:51Z</time>
      </trkpt>
      <trkpt lat="44.00192" lon="7.17281">
        <ele>925.8869629</ele>
        <time>2012-05-12T10:46:59Z</time>
      </trkpt>
      <trkpt lat="44.00196" lon="7.17245">
        <ele>924.4450684</ele>
        <time>2012-05-12T10:47:05Z</time>
      </trkpt>
      <trkpt lat="44.00197" lon="7.17226">
        <ele>923.9641113</ele>
        <time>2012-05-12T10:47:08Z</time>
      </trkpt>
      <trkpt lat="44.00211" lon="7.17197">
        <ele>923.9641113</ele>
        <time>2012-05-12T10:47:15Z</time>
      </trkpt>
      <trkpt lat="44.00213" lon="7.17189">
        <ele>924.4450684</ele>
        <time>2012-05-12T10:47:17Z</time>
      </trkpt>
      <trkpt lat="44.00219" lon="7.17175">
        <ele>923.4836426</ele>
        <time>2012-05-12T10:47:20Z</time>
      </trkpt>
      <trkpt lat="44.00219" lon="7.17158">
        <ele>922.0415039</ele>
        <time>2012-05-12T10:47:24Z</time>
      </trkpt>
      <trkpt lat="44.00216" lon="7.17156">
        <ele>922.0415039</ele>
        <time>2012-05-12T10:47:25Z</time>
      </trkpt>
      <trkpt lat="44.00211" lon="7.1715">
        <ele>921.560791</ele>
        <time>2012-05-12T10:47:38Z</time>
      </trkpt>
      <trkpt lat="44.00199" lon="7.17139">
        <ele>921.0803223</ele>
        <time>2012-05-12T10:49:26Z</time>
      </trkpt>
      <trkpt lat="44.00164" lon="7.17122">
        <ele>922.5222168</ele>
        <time>2012-05-12T10:49:36Z</time>
      </trkpt>
      <trkpt lat="44.0016" lon="7.17122">
        <ele>923.0029297</ele>
        <time>2012-05-12T10:49:37Z</time>
      </trkpt>
      <trkpt lat="44.00123" lon="7.1713">
        <ele>921.0803223</ele>
        <time>2012-05-12T10:49:47Z</time>
      </trkpt>
      <trkpt lat="44.00113" lon="7.17133">
        <ele>919.6384277</ele>
        <time>2012-05-12T10:49:49Z</time>
      </trkpt>
      <trkpt lat="44.00079" lon="7.17126">
        <ele>918.1962891</ele>
        <time>2012-05-12T10:49:57Z</time>
      </trkpt>
      <trkpt lat="44.00079" lon="7.17097">
        <ele>917.2351074</ele>
        <time>2012-05-12T10:50:04Z</time>
      </trkpt>
      <trkpt lat="44.00091" lon="7.17075">
        <ele>915.3125</ele>
        <time>2012-05-12T10:50:10Z</time>
      </trkpt>
      <trkpt lat="44.00089" lon="7.1706">
        <ele>913.8703613</ele>
        <time>2012-05-12T10:50:13Z</time>
      </trkpt>
      <trkpt lat="44.00085" lon="7.17036">
        <ele>912.4284668</ele>
        <time>2012-05-12T10:50:19Z</time>
      </trkpt>
      <trkpt lat="44.00097" lon="7.17001">
        <ele>909.5446777</ele>
        <time>2012-05-12T10:50:27Z</time>
      </trkpt>
      <trkpt lat="44.00098" lon="7.16996">
        <ele>908.583252</ele>
        <time>2012-05-12T10:50:28Z</time>
      </trkpt>
      <trkpt lat="44.00113" lon="7.16977">
        <ele>907.6218262</ele>
        <time>2012-05-12T10:50:35Z</time>
      </trkpt>
      <trkpt lat="44.00118" lon="7.16966">
        <ele>906.1796875</ele>
        <time>2012-05-12T10:50:38Z</time>
      </trkpt>
      <trkpt lat="44.00124" lon="7.16955">
        <ele>904.737793</ele>
        <time>2012-05-12T10:50:41Z</time>
      </trkpt>
      <trkpt lat="44.00133" lon="7.16941">
        <ele>904.2573242</ele>
        <time>2012-05-12T10:50:45Z</time>
      </trkpt>
      <trkpt lat="44.00149" lon="7.16916">
        <ele>902.3344727</ele>
        <time>2012-05-12T10:50:50Z</time>
      </trkpt>
      <trkpt lat="44.00146" lon="7.1689">
        <ele>900.8925781</ele>
        <time>2012-05-12T10:50:56Z</time>
      </trkpt>
      <trkpt lat="44.00135" lon="7.16885">
        <ele>901.373291</ele>
        <time>2012-05-12T10:50:58Z</time>
      </trkpt>
      <trkpt lat="44.00118" lon="7.16873">
        <ele>901.8540039</ele>
        <time>2012-05-12T10:51:02Z</time>
      </trkpt>
      <trkpt lat="44.00094" lon="7.16861">
        <ele>901.8540039</ele>
        <time>2012-05-12T10:51:07Z</time>
      </trkpt>
      <trkpt lat="44.00075" lon="7.16847">
        <ele>900.4121094</ele>
        <time>2012-05-12T10:51:11Z</time>
      </trkpt>
      <trkpt lat="44.00042" lon="7.16828">
        <ele>897.5280762</ele>
        <time>2012-05-12T10:51:19Z</time>
      </trkpt>
      <trkpt lat="44.00039" lon="7.16813">
        <ele>897.0473633</ele>
        <time>2012-05-12T10:51:22Z</time>
      </trkpt>
      <trkpt lat="44.00045" lon="7.16779">
        <ele>895.1247559</ele>
        <time>2012-05-12T10:51:28Z</time>
      </trkpt>
      <trkpt lat="44.00038" lon="7.16759">
        <ele>895.6054688</ele>
        <time>2012-05-12T10:51:32Z</time>
      </trkpt>
      <trkpt lat="44.00023" lon="7.16753">
        <ele>894.1635742</ele>
        <time>2012-05-12T10:51:37Z</time>
      </trkpt>
      <trkpt lat="44.00012" lon="7.16724">
        <ele>892.7216797</ele>
        <time>2012-05-12T10:51:45Z</time>
      </trkpt>
      <trkpt lat="44.00014" lon="7.16705">
        <ele>891.2792969</ele>
        <time>2012-05-12T10:51:50Z</time>
      </trkpt>
      <trkpt lat="44.00023" lon="7.16692">
        <ele>888.8762207</ele>
        <time>2012-05-12T10:51:54Z</time>
      </trkpt>
      <trkpt lat="44.00032" lon="7.16678">
        <ele>887.434082</ele>
        <time>2012-05-12T10:51:57Z</time>
      </trkpt>
      <trkpt lat="44.00045" lon="7.16653">
        <ele>885.0310059</ele>
        <time>2012-05-12T10:52:04Z</time>
      </trkpt>
      <trkpt lat="44.0005" lon="7.16634">
        <ele>882.6276855</ele>
        <time>2012-05-12T10:52:08Z</time>
      </trkpt>
      <trkpt lat="44.00054" lon="7.16619">
        <ele>881.6662598</ele>
        <time>2012-05-12T10:52:11Z</time>
      </trkpt>
      <trkpt lat="44.00058" lon="7.16605">
        <ele>879.7436523</ele>
        <time>2012-05-12T10:52:15Z</time>
      </trkpt>
      <trkpt lat="44.00064" lon="7.16591">
        <ele>876.8598633</ele>
        <time>2012-05-12T10:52:19Z</time>
      </trkpt>
      <trkpt lat="44.00067" lon="7.16587">
        <ele>876.8598633</ele>
        <time>2012-05-12T10:52:20Z</time>
      </trkpt>
      <trkpt lat="44.00072" lon="7.16581">
        <ele>875.4174805</ele>
        <time>2012-05-12T10:52:22Z</time>
      </trkpt>
      <trkpt lat="44.00081" lon="7.16572">
        <ele>872.5336914</ele>
        <time>2012-05-12T10:52:25Z</time>
      </trkpt>
      <trkpt lat="44.00086" lon="7.16566">
        <ele>871.0917969</ele>
        <time>2012-05-12T10:52:27Z</time>
      </trkpt>
      <trkpt lat="44.00092" lon="7.16559">
        <ele>870.1303711</ele>
        <time>2012-05-12T10:52:29Z</time>
      </trkpt>
      <trkpt lat="44.00098" lon="7.16548">
        <ele>867.246582</ele>
        <time>2012-05-12T10:52:32Z</time>
      </trkpt>
      <trkpt lat="44.00101" lon="7.16544">
        <ele>866.2851563</ele>
        <time>2012-05-12T10:52:33Z</time>
      </trkpt>
      <trkpt lat="44.00103" lon="7.16529">
        <ele>864.8432617</ele>
        <time>2012-05-12T10:52:36Z</time>
      </trkpt>
      <trkpt lat="44.00104" lon="7.16525">
        <ele>863.8818359</ele>
        <time>2012-05-12T10:52:37Z</time>
      </trkpt>
      <trkpt lat="44.00104" lon="7.16522">
        <ele>862.4399414</ele>
        <time>2012-05-12T10:52:39Z</time>
      </trkpt>
      <trkpt lat="44.00104" lon="7.16521">
        <ele>862.4399414</ele>
        <time>2012-05-12T10:52:43Z</time>
      </trkpt>
      <trkpt lat="44.00101" lon="7.16516">
        <ele>861.4787598</ele>
        <time>2012-05-12T10:52:45Z</time>
      </trkpt>
      <trkpt lat="44.00103" lon="7.16498">
        <ele>860.9980469</ele>
        <time>2012-05-12T10:52:49Z</time>
      </trkpt>
      <trkpt lat="44.00109" lon="7.16491">
        <ele>860.0366211</ele>
        <time>2012-05-12T10:52:51Z</time>
      </trkpt>
      <trkpt lat="44.00112" lon="7.16484">
        <ele>860.0366211</ele>
        <time>2012-05-12T10:53:00Z</time>
      </trkpt>
      <trkpt lat="44.00112" lon="7.16484">
        <ele>860.517334</ele>
        <time>2012-05-12T10:53:12Z</time>
      </trkpt>
      <trkpt lat="44.001" lon="7.16464">
        <ele>860.517334</ele>
        <time>2012-05-12T10:53:20Z</time>
      </trkpt>
      <trkpt lat="44.00088" lon="7.16463">
        <ele>860.0366211</ele>
        <time>2012-05-12T10:53:24Z</time>
      </trkpt>
      <trkpt lat="44.00066" lon="7.16459">
        <ele>858.5944824</ele>
        <time>2012-05-12T10:53:29Z</time>
      </trkpt>
      <trkpt lat="44.00055" lon="7.16449">
        <ele>856.671875</ele>
        <time>2012-05-12T10:53:33Z</time>
      </trkpt>
      <trkpt lat="44.0005" lon="7.16426">
        <ele>858.1140137</ele>
        <time>2012-05-12T10:53:44Z</time>
      </trkpt>
      <trkpt lat="44.00047" lon="7.16412">
        <ele>858.5944824</ele>
        <time>2012-05-12T10:53:48Z</time>
      </trkpt>
      <trkpt lat="44.00047" lon="7.16412">
        <ele>858.5944824</ele>
        <time>2012-05-12T10:53:50Z</time>
      </trkpt>
      <trkpt lat="44.00047" lon="7.16412">
        <ele>859.5559082</ele>
        <time>2012-05-12T10:53:54Z</time>
      </trkpt>
      <trkpt lat="44.00015" lon="7.16403">
        <ele>859.0751953</ele>
        <time>2012-05-12T10:54:04Z</time>
      </trkpt>
      <trkpt lat="44" lon="7.16398">
        <ele>857.1525879</ele>
        <time>2012-05-12T10:54:07Z</time>
      </trkpt>
      <trkpt lat="43.99995" lon="7.16396">
        <ele>857.1525879</ele>
        <time>2012-05-12T10:54:08Z</time>
      </trkpt>
      <trkpt lat="43.9997" lon="7.16382">
        <ele>859.0751953</ele>
        <time>2012-05-12T10:54:17Z</time>
      </trkpt>
      <trkpt lat="43.99948" lon="7.16388">
        <ele>857.6333008</ele>
        <time>2012-05-12T10:54:22Z</time>
      </trkpt>
      <trkpt lat="43.99895" lon="7.1639">
        <ele>857.6333008</ele>
        <time>2012-05-12T10:54:33Z</time>
      </trkpt>
      <trkpt lat="43.99872" lon="7.16396">
        <ele>857.1525879</ele>
        <time>2012-05-12T10:54:38Z</time>
      </trkpt>
      <trkpt lat="43.99858" lon="7.164">
        <ele>856.1911621</ele>
        <time>2012-05-12T10:54:41Z</time>
      </trkpt>
      <trkpt lat="43.99841" lon="7.16401">
        <ele>854.2687988</ele>
        <time>2012-05-12T10:54:44Z</time>
      </trkpt>
      <trkpt lat="43.99815" lon="7.16387">
        <ele>851.8654785</ele>
        <time>2012-05-12T10:54:51Z</time>
      </trkpt>
      <trkpt lat="43.99794" lon="7.16374">
        <ele>848.0202637</ele>
        <time>2012-05-12T10:54:57Z</time>
      </trkpt>
      <trkpt lat="43.99791" lon="7.16371">
        <ele>848.0202637</ele>
        <time>2012-05-12T10:54:58Z</time>
      </trkpt>
      <trkpt lat="43.99782" lon="7.16351">
        <ele>844.6555176</ele>
        <time>2012-05-12T10:55:04Z</time>
      </trkpt>
      <trkpt lat="43.99782" lon="7.16349">
        <ele>844.6555176</ele>
        <time>2012-05-12T10:55:05Z</time>
      </trkpt>
      <trkpt lat="43.99784" lon="7.16331">
        <ele>841.7714844</ele>
        <time>2012-05-12T10:55:13Z</time>
      </trkpt>
      <trkpt lat="43.99795" lon="7.16301">
        <ele>837.9262695</ele>
        <time>2012-05-12T10:55:22Z</time>
      </trkpt>
      <trkpt lat="43.99801" lon="7.16273">
        <ele>834.5617676</ele>
        <time>2012-05-12T10:55:29Z</time>
      </trkpt>
      <trkpt lat="43.99801" lon="7.16269">
        <ele>834.5617676</ele>
        <time>2012-05-12T10:55:30Z</time>
      </trkpt>
      <trkpt lat="43.99795" lon="7.16247">
        <ele>831.6777344</ele>
        <time>2012-05-12T10:55:35Z</time>
      </trkpt>
      <trkpt lat="43.99782" lon="7.1623">
        <ele>827.8322754</ele>
        <time>2012-05-12T10:55:41Z</time>
      </trkpt>
      <trkpt lat="43.9978" lon="7.16227">
        <ele>827.8322754</ele>
        <time>2012-05-12T10:55:42Z</time>
      </trkpt>
      <trkpt lat="43.99769" lon="7.16211">
        <ele>823.9870605</ele>
        <time>2012-05-12T10:55:47Z</time>
      </trkpt>
      <trkpt lat="43.99759" lon="7.16193">
        <ele>821.5837402</ele>
        <time>2012-05-12T10:55:59Z</time>
      </trkpt>
      <trkpt lat="43.99759" lon="7.16193">
        <ele>821.1032715</ele>
        <time>2012-05-12T10:58:08Z</time>
      </trkpt>
      <trkpt lat="43.99747" lon="7.16177">
        <ele>818.2192383</ele>
        <time>2012-05-12T11:00:36Z</time>
      </trkpt>
      <trkpt lat="43.99742" lon="7.16166">
        <ele>818.2192383</ele>
        <time>2012-05-12T11:00:39Z</time>
      </trkpt>
      <trkpt lat="43.99755" lon="7.16145">
        <ele>815.8161621</ele>
        <time>2012-05-12T11:00:46Z</time>
      </trkpt>
      <trkpt lat="43.99753" lon="7.16143">
        <ele>814.3740234</ele>
        <time>2012-05-12T11:00:51Z</time>
      </trkpt>
      <trkpt lat="43.99733" lon="7.16147">
        <ele>811.4899902</ele>
        <time>2012-05-12T11:00:59Z</time>
      </trkpt>
      <trkpt lat="43.99729" lon="7.16148">
        <ele>811.0092773</ele>
        <time>2012-05-12T11:01:01Z</time>
      </trkpt>
      <trkpt lat="43.99734" lon="7.16142">
        <ele>808.605957</ele>
        <time>2012-05-12T11:01:07Z</time>
      </trkpt>
      <trkpt lat="43.99729" lon="7.16137">
        <ele>807.1640625</ele>
        <time>2012-05-12T11:01:14Z</time>
      </trkpt>
      <trkpt lat="43.9971" lon="7.16138">
        <ele>804.2802734</ele>
        <time>2012-05-12T11:01:20Z</time>
      </trkpt>
      <trkpt lat="43.99707" lon="7.16137">
        <ele>802.8381348</ele>
        <time>2012-05-12T11:01:31Z</time>
      </trkpt>
      <trkpt lat="43.99708" lon="7.16133">
        <ele>802.3574219</ele>
        <time>2012-05-12T11:01:37Z</time>
      </trkpt>
      <trkpt lat="43.99719" lon="7.16122">
        <ele>798.0317383</ele>
        <time>2012-05-12T11:01:44Z</time>
      </trkpt>
      <trkpt lat="43.99721" lon="7.16119">
        <ele>798.0317383</ele>
        <time>2012-05-12T11:01:45Z</time>
      </trkpt>
      <trkpt lat="43.99729" lon="7.16113">
        <ele>795.1474609</ele>
        <time>2012-05-12T11:01:49Z</time>
      </trkpt>
      <trkpt lat="43.99732" lon="7.16111">
        <ele>795.1474609</ele>
        <time>2012-05-12T11:01:50Z</time>
      </trkpt>
      <trkpt lat="43.99747" lon="7.16101">
        <ele>791.782959</ele>
        <time>2012-05-12T11:01:55Z</time>
      </trkpt>
      <trkpt lat="43.99751" lon="7.161">
        <ele>790.3410645</ele>
        <time>2012-05-12T11:01:56Z</time>
      </trkpt>
      <trkpt lat="43.99771" lon="7.16084">
        <ele>786.0151367</ele>
        <time>2012-05-12T11:02:03Z</time>
      </trkpt>
      <trkpt lat="43.99774" lon="7.16082">
        <ele>786.0151367</ele>
        <time>2012-05-12T11:02:04Z</time>
      </trkpt>
      <trkpt lat="43.99778" lon="7.16078">
        <ele>785.0539551</ele>
        <time>2012-05-12T11:02:06Z</time>
      </trkpt>
      <trkpt lat="43.99783" lon="7.16072">
        <ele>782.6506348</ele>
        <time>2012-05-12T11:02:10Z</time>
      </trkpt>
      <trkpt lat="43.99785" lon="7.16068">
        <ele>781.689209</ele>
        <time>2012-05-12T11:02:12Z</time>
      </trkpt>
      <trkpt lat="43.998" lon="7.16057">
        <ele>778.3244629</ele>
        <time>2012-05-12T11:02:21Z</time>
      </trkpt>
      <trkpt lat="43.99808" lon="7.16048">
        <ele>777.3632813</ele>
        <time>2012-05-12T11:02:26Z</time>
      </trkpt>
      <trkpt lat="43.99823" lon="7.16033">
        <ele>774.9599609</ele>
        <time>2012-05-12T11:02:34Z</time>
      </trkpt>
      <trkpt lat="43.99834" lon="7.1602">
        <ele>773.0373535</ele>
        <time>2012-05-12T11:02:38Z</time>
      </trkpt>
      <trkpt lat="43.99835" lon="7.16013">
        <ele>772.5566406</ele>
        <time>2012-05-12T11:02:41Z</time>
      </trkpt>
      <trkpt lat="43.99811" lon="7.16008">
        <ele>770.1533203</ele>
        <time>2012-05-12T11:02:48Z</time>
      </trkpt>
      <trkpt lat="43.9979" lon="7.16">
        <ele>767.75</ele>
        <time>2012-05-12T11:02:55Z</time>
      </trkpt>
      <trkpt lat="43.99754" lon="7.15963">
        <ele>764.8662109</ele>
        <time>2012-05-12T11:03:02Z</time>
      </trkpt>
      <trkpt lat="43.99739" lon="7.15952">
        <ele>762.9433594</ele>
        <time>2012-05-12T11:03:04Z</time>
      </trkpt>
      <trkpt lat="43.99722" lon="7.15938">
        <ele>760.5400391</ele>
        <time>2012-05-12T11:03:06Z</time>
      </trkpt>
      <trkpt lat="43.99704" lon="7.15923">
        <ele>759.5788574</ele>
        <time>2012-05-12T11:03:08Z</time>
      </trkpt>
      <trkpt lat="43.99696" lon="7.15916">
        <ele>756.6948242</ele>
        <time>2012-05-12T11:03:09Z</time>
      </trkpt>
      <trkpt lat="43.99685" lon="7.159">
        <ele>755.7336426</ele>
        <time>2012-05-12T11:03:11Z</time>
      </trkpt>
      <trkpt lat="43.99673" lon="7.15868">
        <ele>752.8496094</ele>
        <time>2012-05-12T11:03:15Z</time>
      </trkpt>
      <trkpt lat="43.99669" lon="7.15859">
        <ele>751.4077148</ele>
        <time>2012-05-12T11:03:17Z</time>
      </trkpt>
      <trkpt lat="43.99669" lon="7.15855">
        <ele>750.4465332</ele>
        <time>2012-05-12T11:03:29Z</time>
      </trkpt>
      <trkpt lat="43.99655" lon="7.1582">
        <ele>747.5622559</ele>
        <time>2012-05-12T11:04:09Z</time>
      </trkpt>
      <trkpt lat="43.99651" lon="7.15812">
        <ele>746.1203613</ele>
        <time>2012-05-12T11:04:10Z</time>
      </trkpt>
      <trkpt lat="43.9964" lon="7.15782">
        <ele>744.1977539</ele>
        <time>2012-05-12T11:04:13Z</time>
      </trkpt>
      <trkpt lat="43.99642" lon="7.15755">
        <ele>740.3525391</ele>
        <time>2012-05-12T11:04:15Z</time>
      </trkpt>
      <trkpt lat="43.99642" lon="7.15741">
        <ele>740.3525391</ele>
        <time>2012-05-12T11:04:16Z</time>
      </trkpt>
      <trkpt lat="43.99648" lon="7.15712">
        <ele>737.9492188</ele>
        <time>2012-05-12T11:04:18Z</time>
      </trkpt>
      <trkpt lat="43.99653" lon="7.15681">
        <ele>735.5458984</ele>
        <time>2012-05-12T11:04:20Z</time>
      </trkpt>
      <trkpt lat="43.99659" lon="7.1565">
        <ele>731.2199707</ele>
        <time>2012-05-12T11:04:22Z</time>
      </trkpt>
      <trkpt lat="43.99661" lon="7.15636">
        <ele>731.2199707</ele>
        <time>2012-05-12T11:04:23Z</time>
      </trkpt>
      <trkpt lat="43.99664" lon="7.15624">
        <ele>731.2199707</ele>
        <time>2012-05-12T11:04:24Z</time>
      </trkpt>
      <trkpt lat="43.99655" lon="7.15593">
        <ele>727.8552246</ele>
        <time>2012-05-12T11:04:28Z</time>
      </trkpt>
      <trkpt lat="43.99641" lon="7.15582">
        <ele>726.894043</ele>
        <time>2012-05-12T11:04:30Z</time>
      </trkpt>
      <trkpt lat="43.99625" lon="7.15552">
        <ele>724.9714355</ele>
        <time>2012-05-12T11:04:34Z</time>
      </trkpt>
      <trkpt lat="43.99621" lon="7.15536">
        <ele>724.9714355</ele>
        <time>2012-05-12T11:04:36Z</time>
      </trkpt>
      <trkpt lat="43.99613" lon="7.15507">
        <ele>721.1262207</ele>
        <time>2012-05-12T11:04:39Z</time>
      </trkpt>
      <trkpt lat="43.99602" lon="7.15487">
        <ele>718.2421875</ele>
        <time>2012-05-12T11:04:41Z</time>
      </trkpt>
      <trkpt lat="43.99596" lon="7.15472">
        <ele>714.8774414</ele>
        <time>2012-05-12T11:04:42Z</time>
      </trkpt>
      <trkpt lat="43.9959" lon="7.15463">
        <ele>714.8774414</ele>
        <time>2012-05-12T11:04:43Z</time>
      </trkpt>
      <trkpt lat="43.99585" lon="7.15452">
        <ele>715.8388672</ele>
        <time>2012-05-12T11:04:44Z</time>
      </trkpt>
      <trkpt lat="43.99576" lon="7.15421">
        <ele>715.3581543</ele>
        <time>2012-05-12T11:04:47Z</time>
      </trkpt>
      <trkpt lat="43.9958" lon="7.15372">
        <ele>713.9160156</ele>
        <time>2012-05-12T11:04:52Z</time>
      </trkpt>
      <trkpt lat="43.99591" lon="7.15331">
        <ele>711.9936523</ele>
        <time>2012-05-12T11:04:56Z</time>
      </trkpt>
      <trkpt lat="43.99617" lon="7.15271">
        <ele>710.0708008</ele>
        <time>2012-05-12T11:05:02Z</time>
      </trkpt>
      <trkpt lat="43.99626" lon="7.1524">
        <ele>709.1096191</ele>
        <time>2012-05-12T11:05:05Z</time>
      </trkpt>
      <trkpt lat="43.9963" lon="7.15218">
        <ele>708.1484375</ele>
        <time>2012-05-12T11:05:07Z</time>
      </trkpt>
      <trkpt lat="43.99635" lon="7.15183">
        <ele>707.1870117</ele>
        <time>2012-05-12T11:05:10Z</time>
      </trkpt>
      <trkpt lat="43.99662" lon="7.15112">
        <ele>705.2644043</ele>
        <time>2012-05-12T11:05:17Z</time>
      </trkpt>
      <trkpt lat="43.99666" lon="7.15081">
        <ele>704.7836914</ele>
        <time>2012-05-12T11:05:20Z</time>
      </trkpt>
      <trkpt lat="43.99651" lon="7.15037">
        <ele>703.8225098</ele>
        <time>2012-05-12T11:05:26Z</time>
      </trkpt>
      <trkpt lat="43.99642" lon="7.14992">
        <ele>704.3032227</ele>
        <time>2012-05-12T11:05:33Z</time>
      </trkpt>
      <trkpt lat="43.99645" lon="7.14972">
        <ele>703.8225098</ele>
        <time>2012-05-12T11:05:36Z</time>
      </trkpt>
      <trkpt lat="43.99649" lon="7.14959">
        <ele>703.8225098</ele>
        <time>2012-05-12T11:05:38Z</time>
      </trkpt>
      <trkpt lat="43.99649" lon="7.14946">
        <ele>703.8225098</ele>
        <time>2012-05-12T11:05:42Z</time>
      </trkpt>
      <trkpt lat="43.99651" lon="7.14976">
        <ele>702.861084</ele>
        <time>2012-05-12T11:05:47Z</time>
      </trkpt>
      <trkpt lat="43.99655" lon="7.15002">
        <ele>702.3803711</ele>
        <time>2012-05-12T11:05:51Z</time>
      </trkpt>
      <trkpt lat="43.99663" lon="7.1503">
        <ele>702.861084</ele>
        <time>2012-05-12T11:06:01Z</time>
      </trkpt>
      <trkpt lat="43.99663" lon="7.1503">
        <ele>702.861084</ele>
        <time>2012-05-12T11:06:27Z</time>
      </trkpt>
    </trkseg>
  </trk>
</gpx>